Wetterdaten: Montag, 12.08.2019
Datum Zeit Temp. A. Pool Temp. Temp. 5cm Feuchte A. Luftdruck Regen Wind Richtung Richtung Sonnenschein ET UV Solar Taupunkt Windchill Windben Empfang
12.08.2019 00:00 21,0 C 25,0 C 18,9 C 74 % 1009,2 hPa 0,0 l/m 1,8 km/h (1 Bft) O-SO 110 0 min 0,000 mm 0,0 UV-I 0 W/m 16,2 C 21,0 C 3,2 km/h (1 Bft) 97,37 %
12.08.2019 00:02 20,9 C 25,0 C 18,9 C 74 % 1009,2 hPa 0,0 l/m 2,8 km/h (1 Bft) O-SO 111 0 min 0,000 mm 0,0 UV-I 0 W/m 16,1 C 20,9 C 3,2 km/h (1 Bft) 97,67 %
12.08.2019 00:04 20,9 C 25,0 C 19,4 C 74 % 1010,0 hPa 0,0 l/m 8,2 km/h (2 Bft) W-SW 240 0 min 0,000 mm 0,0 UV-I 0 W/m 16,1 C 20,2 C 17,7 km/h (3 Bft) 93,62 %
12.08.2019 00:06 20,8 C 25,0 C 19,4 C 74 % 1010,5 hPa 0,0 l/m 18,4 km/h (3 Bft) W-SW 248 0 min 0,000 mm 0,0 UV-I 0 W/m 16,0 C 17,5 C 25,7 km/h (4 Bft) 98,00 %
12.08.2019 00:08 20,8 C 25,0 C 20,0 C 75 % 1010,5 hPa 0,0 l/m 17,1 km/h (3 Bft) W 279 0 min 0,000 mm 0,0 UV-I 0 W/m 16,2 C 17,8 C 24,1 km/h (4 Bft) 97,87 %
12.08.2019 00:10 20,9 C 25,0 C 20,0 C 74 % 1010,5 hPa 0,0 l/m 18,8 km/h (3 Bft) SW 232 0 min 0,000 mm 0,0 UV-I 0 W/m 16,1 C 17,6 C 30,6 km/h (5 Bft) 97,87 %
12.08.2019 00:12 21,1 C 25,0 C 20,6 C 74 % 1010,4 hPa 0,0 l/m 8,8 km/h (2 Bft) W-SW 254 0 min 0,000 mm 0,0 UV-I 0 W/m 16,3 C 20,2 C 20,9 km/h (4 Bft) 97,14 %
12.08.2019 00:14 21,3 C 25,0 C 20,6 C 73 % 1010,3 hPa 0,0 l/m 6,8 km/h (2 Bft) SW 226 0 min 0,000 mm 0,0 UV-I 0 W/m 16,3 C 21,2 C 12,9 km/h (3 Bft) 97,87 %
12.08.2019 00:16 21,3 C 25,0 C 20,6 C 73 % 1010,3 hPa 0,0 l/m 3,0 km/h (1 Bft) SW 234 0 min 0,000 mm 0,0 UV-I 0 W/m 16,3 C 21,3 C 4,8 km/h (1 Bft) 93,62 %
12.08.2019 00:18 21,4 C 25,0 C 20,0 C 72 % 1010,3 hPa 0,0 l/m 2,9 km/h (1 Bft) SW 229 0 min 0,000 mm 0,0 UV-I 0 W/m 16,1 C 21,4 C 4,8 km/h (1 Bft) 95,74 %
12.08.2019 00:20 21,3 C 25,0 C 20,0 C 73 % 1010,5 hPa 0,0 l/m 4,4 km/h (1 Bft) W-SW 244 0 min 0,000 mm 0,0 UV-I 0 W/m 16,3 C 21,3 C 6,4 km/h (2 Bft) 93,75 %
12.08.2019 00:22 21,3 C 25,0 C 20,0 C 73 % 1010,5 hPa 0,0 l/m 3,0 km/h (1 Bft) W-SW 244 0 min 0,000 mm 0,0 UV-I 0 W/m 16,3 C 21,3 C 4,8 km/h (1 Bft) 95,92 %
12.08.2019 00:24 21,2 C 25,0 C 20,0 C 73 % 1010,7 hPa 0,0 l/m 7,4 km/h (2 Bft) W 263 0 min 0,000 mm 0,0 UV-I 0 W/m 16,2 C 20,8 C 11,3 km/h (2 Bft) 91,67 %
12.08.2019 00:26 21,2 C 25,0 C 20,0 C 73 % 1010,9 hPa 0,0 l/m 6,2 km/h (2 Bft) NW 304 0 min 0,000 mm 0,0 UV-I 0 W/m 16,2 C 21,2 C 11,3 km/h (2 Bft) 94,00 %
12.08.2019 00:28 21,1 C 25,0 C 20,0 C 73 % 1010,9 hPa 0,0 l/m 5,5 km/h (1 Bft) W 264 0 min 0,000 mm 0,0 UV-I 0 W/m 16,1 C 21,1 C 9,7 km/h (2 Bft) 97,87 %
12.08.2019 00:30 21,1 C 25,0 C 20,0 C 74 % 1010,9 hPa 0,0 l/m 6,3 km/h (2 Bft) W 274 0 min 0,000 mm 0,0 UV-I 0 W/m 16,3 C 21,1 C 11,3 km/h (2 Bft) 95,74 %
12.08.2019 00:32 21,1 C 24,4 C 20,0 C 74 % 1010,9 hPa 0,0 l/m 5,4 km/h (1 Bft) W 269 0 min 0,000 mm 0,0 UV-I 0 W/m 16,3 C 21,1 C 11,3 km/h (2 Bft) 95,74 %
12.08.2019 00:34 21,1 C 24,4 C 19,4 C 74 % 1010,8 hPa 0,0 l/m 4,0 km/h (1 Bft) W-NW 282 0 min 0,000 mm 0,0 UV-I 0 W/m 16,3 C 21,1 C 6,4 km/h (2 Bft) 96,00 %
12.08.2019 00:36 21,0 C 25,0 C 19,4 C 74 % 1010,9 hPa 0,0 l/m 6,4 km/h (2 Bft) W-SW 258 0 min 0,000 mm 0,0 UV-I 0 W/m 16,2 C 21,0 C 11,3 km/h (2 Bft) 97,87 %
12.08.2019 00:38 21,0 C 24,4 C 20,0 C 74 % 1010,9 hPa 0,0 l/m 7,5 km/h (2 Bft) W-SW 245 0 min 0,000 mm 0,0 UV-I 0 W/m 16,2 C 20,6 C 12,9 km/h (3 Bft) 97,14 %
12.08.2019 00:40 21,1 C 25,0 C 20,0 C 74 % 1011,0 hPa 0,0 l/m 6,6 km/h (2 Bft) W 267 0 min 0,000 mm 0,0 UV-I 0 W/m 16,3 C 21,0 C 12,9 km/h (3 Bft) 97,87 %
12.08.2019 00:42 21,1 C 24,4 C 20,0 C 74 % 1011,0 hPa 0,0 l/m 6,9 km/h (2 Bft) W-SW 242 0 min 0,000 mm 0,0 UV-I 0 W/m 16,3 C 20,9 C 11,3 km/h (2 Bft) 97,87 %
12.08.2019 00:44 21,0 C 24,4 C 20,0 C 74 % 1011,0 hPa 0,0 l/m 6,9 km/h (2 Bft) W-SW 249 0 min 0,000 mm 0,0 UV-I 0 W/m 16,2 C 20,8 C 11,3 km/h (2 Bft) 97,87 %
12.08.2019 00:46 21,0 C 24,4 C 20,0 C 74 % 1011,0 hPa 0,0 l/m 7,9 km/h (2 Bft) W 261 0 min 0,000 mm 0,0 UV-I 0 W/m 16,2 C 20,4 C 12,9 km/h (3 Bft) 96,00 %
12.08.2019 00:48 20,9 C 24,4 C 20,0 C 74 % 1011,1 hPa 0,0 l/m 6,8 km/h (2 Bft) W-SW 239 0 min 0,000 mm 0,0 UV-I 0 W/m 16,1 C 20,8 C 9,7 km/h (2 Bft) 94,00 %
12.08.2019 00:50 20,8 C 24,4 C 19,4 C 74 % 1011,1 hPa 0,0 l/m 6,5 km/h (2 Bft) S-SW 206 0 min 0,000 mm 0,0 UV-I 0 W/m 16,0 C 20,8 C 9,7 km/h (2 Bft) 95,74 %
12.08.2019 00:52 20,8 C 24,4 C 19,4 C 75 % 1011,2 hPa 0,0 l/m 6,5 km/h (2 Bft) SW 221 0 min 0,000 mm 0,0 UV-I 0 W/m 16,2 C 20,8 C 12,9 km/h (3 Bft) 95,74 %
12.08.2019 00:54 20,7 C 24,4 C 19,4 C 75 % 1011,2 hPa 0,0 l/m 7,7 km/h (2 Bft) SW 224 0 min 0,000 mm 0,0 UV-I 0 W/m 16,1 C 20,2 C 12,9 km/h (3 Bft) 97,87 %
12.08.2019 00:56 20,6 C 24,4 C 19,4 C 75 % 1011,3 hPa 0,0 l/m 6,2 km/h (2 Bft) S 189 0 min 0,000 mm 0,0 UV-I 0 W/m 16,0 C 20,6 C 14,5 km/h (3 Bft) 97,87 %
12.08.2019 00:58 20,6 C 24,4 C 19,4 C 76 % 1011,4 hPa 0,0 l/m 8,9 km/h (2 Bft) SW 227 0 min 0,000 mm 0,0 UV-I 0 W/m 16,2 C 19,7 C 12,9 km/h (3 Bft) 97,87 %
12.08.2019 01:00 20,4 C 24,4 C 19,4 C 76 % 1011,4 hPa 0,0 l/m 7,5 km/h (2 Bft) W-SW 244 0 min 0,025 mm 0,0 UV-I 0 W/m 16,0 C 20,0 C 12,9 km/h (3 Bft) 95,74 %
12.08.2019 01:02 20,5 C 24,4 C 19,4 C 76 % 1011,4 hPa 0,0 l/m 9,8 km/h (2 Bft) W-SW 242 0 min 0,000 mm 0,0 UV-I 0 W/m 16,1 C 19,3 C 14,5 km/h (3 Bft) 97,44 %
12.08.2019 01:04 20,6 C 24,4 C 19,4 C 76 % 1011,3 hPa 0,0 l/m 8,5 km/h (2 Bft) SW 235 0 min 0,000 mm 0,0 UV-I 0 W/m 16,2 C 19,8 C 12,9 km/h (3 Bft) 94,00 %
12.08.2019 01:06 20,6 C 24,4 C 19,4 C 76 % 1011,3 hPa 0,0 l/m 6,1 km/h (2 Bft) SW 236 0 min 0,000 mm 0,0 UV-I 0 W/m 16,2 C 20,6 C 11,3 km/h (2 Bft) 94,34 %
12.08.2019 01:08 20,5 C 24,4 C 19,4 C 76 % 1011,4 hPa 0,0 l/m 7,9 km/h (2 Bft) W-NW 284 0 min 0,000 mm 0,0 UV-I 0 W/m 16,1 C 19,9 C 12,9 km/h (3 Bft) 96,00 %
12.08.2019 01:10 20,4 C 24,4 C 19,4 C 77 % 1011,4 hPa 0,0 l/m 9,2 km/h (2 Bft) W 272 0 min 0,000 mm 0,0 UV-I 0 W/m 16,2 C 19,3 C 12,9 km/h (3 Bft) 94,74 %
12.08.2019 01:12 20,4 C 24,4 C 19,4 C 77 % 1011,4 hPa 0,0 l/m 7,8 km/h (2 Bft) W-SW 253 0 min 0,000 mm 0,0 UV-I 0 W/m 16,2 C 19,8 C 12,9 km/h (3 Bft) 93,62 %
12.08.2019 01:14 20,4 C 24,4 C 19,4 C 77 % 1011,5 hPa 0,0 l/m 9,9 km/h (2 Bft) W-SW 245 0 min 0,000 mm 0,0 UV-I 0 W/m 16,2 C 19,1 C 14,5 km/h (3 Bft) 93,62 %
12.08.2019 01:16 20,4 C 24,4 C 19,4 C 77 % 1011,5 hPa 0,0 l/m 12,1 km/h (2 Bft) W-SW 247 0 min 0,000 mm 0,0 UV-I 0 W/m 16,2 C 18,5 C 19,3 km/h (3 Bft) 91,49 %
12.08.2019 01:18 20,6 C 24,4 C 20,0 C 78 % 1011,5 hPa 0,0 l/m 14,1 km/h (3 Bft) W-SW 240 0 min 0,000 mm 0,0 UV-I 0 W/m 16,6 C 18,2 C 19,3 km/h (3 Bft) 95,74 %
12.08.2019 01:20 20,7 C 24,4 C 20,0 C 78 % 1011,5 hPa 0,0 l/m 14,2 km/h (3 Bft) W-SW 239 0 min 0,000 mm 0,0 UV-I 0 W/m 16,7 C 18,3 C 20,9 km/h (4 Bft) 95,74 %
12.08.2019 01:22 20,8 C 24,4 C 20,0 C 78 % 1011,5 hPa 0,0 l/m 15,5 km/h (3 Bft) SW 223 0 min 0,000 mm 0,0 UV-I 0 W/m 16,8 C 18,1 C 25,7 km/h (4 Bft) 96,00 %
12.08.2019 01:24 21,0 C 24,4 C 20,0 C 78 % 1011,4 hPa 0,0 l/m 15,7 km/h (3 Bft) W-SW 242 0 min 0,000 mm 0,0 UV-I 0 W/m 17,0 C 18,3 C 25,7 km/h (4 Bft) 97,87 %
12.08.2019 01:26 21,2 C 24,4 C 20,6 C 77 % 1011,5 hPa 0,0 l/m 18,0 km/h (3 Bft) SW 224 0 min 0,000 mm 0,0 UV-I 0 W/m 17,0 C 18,1 C 27,4 km/h (4 Bft) 95,74 %
12.08.2019 01:28 21,3 C 24,4 C 20,6 C 77 % 1011,5 hPa 0,0 l/m 14,0 km/h (3 Bft) SW 236 0 min 0,000 mm 0,0 UV-I 0 W/m 17,1 C 19,0 C 20,9 km/h (4 Bft) 100,00 %
12.08.2019 01:30 21,4 C 24,4 C 20,6 C 77 % 1011,6 hPa 0,0 l/m 14,6 km/h (3 Bft) W-SW 238 0 min 0,000 mm 0,0 UV-I 0 W/m 17,2 C 19,0 C 19,3 km/h (3 Bft) 100,00 %
12.08.2019 01:32 21,5 C 24,4 C 20,6 C 76 % 1011,6 hPa 0,0 l/m 15,4 km/h (3 Bft) SW 229 0 min 0,000 mm 0,0 UV-I 0 W/m 17,1 C 19,0 C 24,1 km/h (4 Bft) 97,37 %
12.08.2019 01:34 21,6 C 24,4 C 20,6 C 76 % 1011,7 hPa 0,0 l/m 15,6 km/h (3 Bft) W-SW 241 0 min 0,000 mm 0,0 UV-I 0 W/m 17,2 C 19,1 C 27,4 km/h (4 Bft) 100,00 %
12.08.2019 01:36 21,7 C 24,4 C 20,6 C 76 % 1011,6 hPa 0,0 l/m 18,2 km/h (3 Bft) SW 231 0 min 0,000 mm 0,0 UV-I 0 W/m 17,3 C 18,7 C 24,1 km/h (4 Bft) 100,00 %
12.08.2019 01:38 21,8 C 24,4 C 20,6 C 76 % 1011,6 hPa 0,0 l/m 15,7 km/h (3 Bft) W-SW 240 0 min 0,000 mm 0,0 UV-I 0 W/m 17,4 C 19,3 C 20,9 km/h (4 Bft) 97,87 %
12.08.2019 01:40 21,8 C 24,4 C 21,1 C 76 % 1011,6 hPa 0,0 l/m 15,8 km/h (3 Bft) W-SW 240 0 min 0,000 mm 0,0 UV-I 0 W/m 17,4 C 19,3 C 24,1 km/h (4 Bft) 96,00 %
12.08.2019 01:42 21,9 C 24,4 C 21,1 C 75 % 1011,6 hPa 0,0 l/m 15,9 km/h (3 Bft) SW 229 0 min 0,000 mm 0,0 UV-I 0 W/m 17,3 C 19,4 C 24,1 km/h (4 Bft) 100,00 %
12.08.2019 01:44 22,1 C 24,4 C 21,1 C 75 % 1011,6 hPa 0,0 l/m 17,4 km/h (3 Bft) W-SW 246 0 min 0,000 mm 0,0 UV-I 0 W/m 17,5 C 19,3 C 27,4 km/h (4 Bft) 97,87 %
12.08.2019 01:46 22,1 C 24,4 C 21,1 C 75 % 1011,7 hPa 0,0 l/m 14,4 km/h (3 Bft) SW 230 0 min 0,000 mm 0,0 UV-I 0 W/m 17,5 C 19,9 C 25,7 km/h (4 Bft) 97,87 %
12.08.2019 01:48 22,1 C 24,4 C 21,1 C 75 % 1011,8 hPa 0,0 l/m 16,4 km/h (3 Bft) SW 233 0 min 0,000 mm 0,0 UV-I 0 W/m 17,5 C 19,5 C 25,7 km/h (4 Bft) 100,00 %
12.08.2019 01:50 22,1 C 24,4 C 21,1 C 75 % 1011,9 hPa 0,0 l/m 15,6 km/h (3 Bft) W-SW 252 0 min 0,000 mm 0,0 UV-I 0 W/m 17,5 C 19,7 C 22,5 km/h (4 Bft) 100,00 %
12.08.2019 01:52 22,1 C 24,4 C 21,1 C 76 % 1011,9 hPa 0,0 l/m 16,0 km/h (3 Bft) SW 217 0 min 0,000 mm 0,0 UV-I 0 W/m 17,7 C 19,6 C 24,1 km/h (4 Bft) 95,74 %
12.08.2019 01:54 22,1 C 24,4 C 21,1 C 76 % 1011,9 hPa 0,0 l/m 17,2 km/h (3 Bft) W-SW 256 0 min 0,000 mm 0,0 UV-I 0 W/m 17,7 C 19,4 C 25,7 km/h (4 Bft) 98,00 %
12.08.2019 01:56 22,1 C 24,4 C 21,1 C 76 % 1012,0 hPa 0,0 l/m 18,4 km/h (3 Bft) SW 232 0 min 0,000 mm 0,0 UV-I 0 W/m 17,7 C 19,2 C 25,7 km/h (4 Bft) 97,87 %
12.08.2019 01:58 22,1 C 24,4 C 21,1 C 76 % 1012,0 hPa 0,0 l/m 16,3 km/h (3 Bft) W-SW 240 0 min 0,000 mm 0,0 UV-I 0 W/m 17,7 C 19,5 C 22,5 km/h (4 Bft) 97,87 %
12.08.2019 02:00 22,1 C 24,4 C 21,1 C 75 % 1011,9 hPa 0,0 l/m 18,9 km/h (3 Bft) W 265 0 min 0,051 mm 0,0 UV-I 0 W/m 17,5 C 19,1 C 27,4 km/h (4 Bft) 95,74 %
12.08.2019 02:02 22,2 C 24,4 C 21,1 C 75 % 1011,9 hPa 0,0 l/m 18,7 km/h (3 Bft) W-SW 240 0 min 0,000 mm 0,0 UV-I 0 W/m 17,5 C 19,3 C 27,4 km/h (4 Bft) 97,87 %
12.08.2019 02:04 22,2 C 24,4 C 21,1 C 75 % 1011,9 hPa 0,0 l/m 19,0 km/h (3 Bft) SW 231 0 min 0,000 mm 0,0 UV-I 0 W/m 17,5 C 19,2 C 30,6 km/h (5 Bft) 95,74 %
12.08.2019 02:06 22,2 C 24,4 C 21,1 C 75 % 1011,9 hPa 0,0 l/m 16,6 km/h (3 Bft) W-SW 258 0 min 0,000 mm 0,0 UV-I 0 W/m 17,5 C 19,6 C 29,0 km/h (5 Bft) 96,00 %
12.08.2019 02:08 22,2 C 24,4 C 21,1 C 75 % 1011,9 hPa 0,0 l/m 15,9 km/h (3 Bft) W-SW 256 0 min 0,000 mm 0,0 UV-I 0 W/m 17,5 C 19,7 C 22,5 km/h (4 Bft) 95,83 %
12.08.2019 02:10 22,2 C 24,4 C 21,1 C 75 % 1011,9 hPa 0,0 l/m 18,6 km/h (3 Bft) W 260 0 min 0,000 mm 0,0 UV-I 0 W/m 17,5 C 19,3 C 29,0 km/h (5 Bft) 97,56 %
12.08.2019 02:12 22,2 C 24,4 C 21,1 C 75 % 1011,9 hPa 0,0 l/m 18,1 km/h (3 Bft) W 265 0 min 0,000 mm 0,0 UV-I 0 W/m 17,5 C 19,4 C 27,4 km/h (4 Bft) 98,00 %
12.08.2019 02:14 22,2 C 24,4 C 21,1 C 75 % 1011,8 hPa 0,0 l/m 21,3 km/h (4 Bft) W 280 0 min 0,000 mm 0,0 UV-I 0 W/m 17,5 C 18,9 C 29,0 km/h (5 Bft) 95,74 %
12.08.2019 02:16 22,2 C 24,4 C 21,1 C 74 % 1011,8 hPa 0,0 l/m 20,4 km/h (4 Bft) W-SW 255 0 min 0,000 mm 0,0 UV-I 0 W/m 17,3 C 19,0 C 25,7 km/h (4 Bft) 95,74 %
12.08.2019 02:18 22,2 C 24,4 C 21,1 C 74 % 1011,9 hPa 0,0 l/m 21,5 km/h (4 Bft) W-NW 284 0 min 0,000 mm 0,0 UV-I 0 W/m 17,3 C 18,8 C 30,6 km/h (5 Bft) 95,74 %
12.08.2019 02:20 22,2 C 24,4 C 21,1 C 74 % 1011,9 hPa 0,0 l/m 18,9 km/h (3 Bft) W-SW 255 0 min 0,000 mm 0,0 UV-I 0 W/m 17,3 C 19,2 C 24,1 km/h (4 Bft) 98,00 %
12.08.2019 02:22 22,2 C 24,4 C 21,1 C 74 % 1011,9 hPa 0,0 l/m 15,5 km/h (3 Bft) W 261 0 min 0,000 mm 0,0 UV-I 0 W/m 17,3 C 19,8 C 22,5 km/h (4 Bft) 97,92 %
12.08.2019 02:24 22,2 C 24,4 C 21,1 C 74 % 1012,0 hPa 0,0 l/m 16,9 km/h (3 Bft) W-SW 246 0 min 0,000 mm 0,0 UV-I 0 W/m 17,3 C 19,6 C 22,5 km/h (4 Bft) 97,14 %
12.08.2019 02:26 22,2 C 24,4 C 21,1 C 74 % 1012,1 hPa 0,0 l/m 14,4 km/h (3 Bft) W 261 0 min 0,000 mm 0,0 UV-I 0 W/m 17,3 C 20,0 C 19,3 km/h (3 Bft) 100,00 %
12.08.2019 02:28 22,2 C 24,4 C 21,1 C 74 % 1012,1 hPa 0,0 l/m 15,1 km/h (3 Bft) W 263 0 min 0,000 mm 0,0 UV-I 0 W/m 17,3 C 19,9 C 24,1 km/h (4 Bft) 98,00 %
12.08.2019 02:30 22,1 C 24,4 C 21,1 C 74 % 1012,2 hPa 0,0 l/m 16,4 km/h (3 Bft) W-SW 256 0 min 0,000 mm 0,0 UV-I 0 W/m 17,2 C 19,5 C 25,7 km/h (4 Bft) 97,87 %
12.08.2019 02:32 22,1 C 24,4 C 21,1 C 74 % 1012,2 hPa 0,0 l/m 13,8 km/h (3 Bft) W-SW 243 0 min 0,000 mm 0,0 UV-I 0 W/m 17,2 C 20,0 C 22,5 km/h (4 Bft) 100,00 %
12.08.2019 02:34 22,1 C 24,4 C 21,1 C 74 % 1012,2 hPa 0,0 l/m 12,1 km/h (2 Bft) W-SW 242 0 min 0,000 mm 0,0 UV-I 0 W/m 17,2 C 20,4 C 19,3 km/h (3 Bft) 97,87 %
12.08.2019 02:36 22,0 C 24,4 C 21,1 C 75 % 1012,3 hPa 0,0 l/m 13,2 km/h (3 Bft) W 275 0 min 0,000 mm 0,0 UV-I 0 W/m 17,4 C 20,1 C 19,3 km/h (3 Bft) 94,00 %
12.08.2019 02:38 21,9 C 24,4 C 21,1 C 75 % 1012,3 hPa 0,0 l/m 10,7 km/h (2 Bft) SW 221 0 min 0,000 mm 0,0 UV-I 0 W/m 17,3 C 20,5 C 16,1 km/h (3 Bft) 94,29 %
12.08.2019 02:40 21,8 C 24,4 C 20,6 C 75 % 1012,4 hPa 0,0 l/m 9,1 km/h (2 Bft) SW 234 0 min 0,000 mm 0,0 UV-I 0 W/m 17,2 C 20,9 C 12,9 km/h (3 Bft) 96,00 %
12.08.2019 02:42 21,8 C 24,4 C 20,6 C 75 % 1012,4 hPa 0,0 l/m 10,3 km/h (2 Bft) W 266 0 min 0,000 mm 0,0 UV-I 0 W/m 17,2 C 20,5 C 16,1 km/h (3 Bft) 97,87 %
12.08.2019 02:44 21,8 C 24,4 C 20,6 C 75 % 1012,4 hPa 0,0 l/m 10,7 km/h (2 Bft) W-SW 238 0 min 0,000 mm 0,0 UV-I 0 W/m 17,2 C 20,4 C 14,5 km/h (3 Bft) 98,00 %
12.08.2019 02:46 21,8 C 24,4 C 20,6 C 75 % 1012,3 hPa 0,0 l/m 13,6 km/h (3 Bft) W 270 0 min 0,000 mm 0,0 UV-I 0 W/m 17,2 C 19,7 C 20,9 km/h (4 Bft) 96,00 %
12.08.2019 02:48 21,8 C 24,4 C 20,6 C 75 % 1012,3 hPa 0,0 l/m 15,5 km/h (3 Bft) W 261 0 min 0,000 mm 0,0 UV-I 0 W/m 17,2 C 19,3 C 19,3 km/h (3 Bft) 100,00 %
12.08.2019 02:50 21,7 C 24,4 C 20,6 C 75 % 1012,2 hPa 0,0 l/m 13,1 km/h (3 Bft) W-SW 255 0 min 0,000 mm 0,0 UV-I 0 W/m 17,1 C 19,7 C 17,7 km/h (3 Bft) 96,08 %
12.08.2019 02:52 21,7 C 24,4 C 20,6 C 75 % 1012,3 hPa 0,0 l/m 12,8 km/h (3 Bft) W 267 0 min 0,000 mm 0,0 UV-I 0 W/m 17,1 C 19,8 C 19,3 km/h (3 Bft) 97,14 %
12.08.2019 02:54 21,7 C 24,4 C 20,6 C 75 % 1012,3 hPa 0,0 l/m 10,0 km/h (2 Bft) W 269 0 min 0,000 mm 0,0 UV-I 0 W/m 17,1 C 20,5 C 14,5 km/h (3 Bft) 96,88 %
12.08.2019 02:56 21,6 C 24,4 C 20,6 C 76 % 1012,3 hPa 0,0 l/m 10,6 km/h (2 Bft) W 269 0 min 0,000 mm 0,0 UV-I 0 W/m 17,2 C 20,2 C 16,1 km/h (3 Bft) 97,92 %
12.08.2019 02:58 21,6 C 24,4 C 20,6 C 76 % 1012,3 hPa 0,0 l/m 12,2 km/h (2 Bft) W-SW 252 0 min 0,000 mm 0,0 UV-I 0 W/m 17,2 C 19,8 C 20,9 km/h (4 Bft) 97,87 %
12.08.2019 03:00 21,5 C 24,4 C 20,6 C 76 % 1012,2 hPa 0,0 l/m 9,3 km/h (2 Bft) W-SW 251 0 min 0,051 mm 0,0 UV-I 0 W/m 17,1 C 20,5 C 14,5 km/h (3 Bft) 100,00 %
12.08.2019 03:02 21,4 C 24,4 C 20,6 C 76 % 1012,2 hPa 0,0 l/m 9,9 km/h (2 Bft) W 275 0 min 0,000 mm 0,0 UV-I 0 W/m 17,0 C 20,2 C 14,5 km/h (3 Bft) 98,00 %
12.08.2019 03:04 21,4 C 24,4 C 20,6 C 76 % 1012,2 hPa 0,0 l/m 11,9 km/h (2 Bft) W-SW 247 0 min 0,000 mm 0,0 UV-I 0 W/m 17,0 C 19,7 C 17,7 km/h (3 Bft) 94,74 %
12.08.2019 03:06 21,4 C 24,4 C 20,6 C 76 % 1012,3 hPa 0,0 l/m 10,2 km/h (2 Bft) W 267 0 min 0,000 mm 0,0 UV-I 0 W/m 17,0 C 20,1 C 14,5 km/h (3 Bft) 98,00 %
12.08.2019 03:08 21,3 C 24,4 C 20,6 C 76 % 1012,2 hPa 0,0 l/m 11,8 km/h (2 Bft) SW 225 0 min 0,000 mm 0,0 UV-I 0 W/m 16,9 C 19,6 C 17,7 km/h (3 Bft) 95,74 %
12.08.2019 03:10 21,3 C 24,4 C 20,6 C 76 % 1012,2 hPa 0,0 l/m 9,7 km/h (2 Bft) W-SW 245 0 min 0,000 mm 0,0 UV-I 0 W/m 16,9 C 20,2 C 16,1 km/h (3 Bft) 100,00 %
12.08.2019 03:12 21,2 C 24,4 C 20,0 C 76 % 1012,2 hPa 0,0 l/m 12,1 km/h (2 Bft) SW 220 0 min 0,000 mm 0,0 UV-I 0 W/m 16,8 C 19,4 C 17,7 km/h (3 Bft) 100,00 %
12.08.2019 03:14 21,2 C 24,4 C 20,0 C 76 % 1012,2 hPa 0,0 l/m 10,2 km/h (2 Bft) W-SW 249 0 min 0,000 mm 0,0 UV-I 0 W/m 16,8 C 19,9 C 16,1 km/h (3 Bft) 97,87 %
12.08.2019 03:16 21,2 C 24,4 C 20,6 C 76 % 1012,2 hPa 0,0 l/m 11,8 km/h (2 Bft) W-SW 240 0 min 0,000 mm 0,0 UV-I 0 W/m 16,8 C 19,5 C 17,7 km/h (3 Bft) 97,87 %
12.08.2019 03:18 21,2 C 24,4 C 20,0 C 76 % 1012,2 hPa 0,0 l/m 10,5 km/h (2 Bft) W 263 0 min 0,000 mm 0,0 UV-I 0 W/m 16,8 C 19,8 C 16,1 km/h (3 Bft) 100,00 %
12.08.2019 03:20 21,2 C 24,4 C 20,6 C 76 % 1012,2 hPa 0,0 l/m 14,0 km/h (3 Bft) W 266 0 min 0,000 mm 0,0 UV-I 0 W/m 16,8 C 18,9 C 20,9 km/h (4 Bft) 100,00 %
12.08.2019 03:22 21,3 C 24,4 C 20,6 C 76 % 1012,2 hPa 0,0 l/m 15,2 km/h (3 Bft) W 275 0 min 0,000 mm 0,0 UV-I 0 W/m 16,9 C 18,8 C 19,3 km/h (3 Bft) 100,00 %
12.08.2019 03:24 21,3 C 24,4 C 20,6 C 75 % 1012,3 hPa 0,0 l/m 15,0 km/h (3 Bft) W 265 0 min 0,000 mm 0,0 UV-I 0 W/m 16,7 C 18,8 C 20,9 km/h (4 Bft) 100,00 %
12.08.2019 03:26 21,4 C 24,4 C 20,6 C 75 % 1012,3 hPa 0,0 l/m 12,6 km/h (3 Bft) W-SW 246 0 min 0,000 mm 0,0 UV-I 0 W/m 16,8 C 19,5 C 17,7 km/h (3 Bft) 100,00 %
12.08.2019 03:28 21,5 C 24,4 C 21,1 C 75 % 1012,3 hPa 0,0 l/m 12,5 km/h (3 Bft) W 278 0 min 0,000 mm 0,0 UV-I 0 W/m 16,9 C 19,6 C 22,5 km/h (4 Bft) 100,00 %
12.08.2019 03:30 21,5 C 24,4 C 21,1 C 75 % 1012,3 hPa 0,0 l/m 14,0 km/h (3 Bft) W-SW 254 0 min 0,000 mm 0,0 UV-I 0 W/m 16,9 C 19,3 C 22,5 km/h (4 Bft) 100,00 %
12.08.2019 03:32 21,6 C 24,4 C 21,1 C 75 % 1012,3 hPa 0,0 l/m 12,5 km/h (3 Bft) W 261 0 min 0,000 mm 0,0 UV-I 0 W/m 17,0 C 19,7 C 19,3 km/h (3 Bft) 97,92 %
12.08.2019 03:34 21,6 C 24,4 C 21,1 C 75 % 1012,3 hPa 0,0 l/m 12,8 km/h (3 Bft) W-SW 257 0 min 0,000 mm 0,0 UV-I 0 W/m 17,0 C 19,7 C 17,7 km/h (3 Bft) 100,00 %
12.08.2019 03:36 21,6 C 24,4 C 21,1 C 75 % 1012,3 hPa 0,0 l/m 11,1 km/h (2 Bft) W 268 0 min 0,000 mm 0,0 UV-I 0 W/m 17,0 C 20,1 C 16,1 km/h (3 Bft) 95,74 %
12.08.2019 03:38 21,6 C 24,4 C 21,1 C 75 % 1012,4 hPa 0,0 l/m 13,0 km/h (3 Bft) W 272 0 min 0,000 mm 0,0 UV-I 0 W/m 17,0 C 19,6 C 19,3 km/h (3 Bft) 100,00 %
12.08.2019 03:40 21,6 C 24,4 C 21,1 C 75 % 1012,4 hPa 0,0 l/m 10,5 km/h (2 Bft) W 269 0 min 0,000 mm 0,0 UV-I 0 W/m 17,0 C 20,3 C 16,1 km/h (3 Bft) 97,87 %
12.08.2019 03:42 21,6 C 24,4 C 21,1 C 75 % 1012,3 hPa 0,0 l/m 12,6 km/h (3 Bft) W 263 0 min 0,000 mm 0,0 UV-I 0 W/m 17,0 C 19,7 C 20,9 km/h (4 Bft) 100,00 %
12.08.2019 03:44 21,5 C 24,4 C 21,1 C 75 % 1012,4 hPa 0,0 l/m 9,3 km/h (2 Bft) W 274 0 min 0,000 mm 0,0 UV-I 0 W/m 16,9 C 20,5 C 16,1 km/h (3 Bft) 97,87 %
12.08.2019 03:46 21,5 C 24,4 C 21,1 C 75 % 1012,5 hPa 0,0 l/m 9,6 km/h (2 Bft) W 276 0 min 0,000 mm 0,0 UV-I 0 W/m 16,9 C 20,4 C 14,5 km/h (3 Bft) 100,00 %
12.08.2019 03:48 21,5 C 24,4 C 20,6 C 75 % 1012,5 hPa 0,0 l/m 11,0 km/h (2 Bft) W 273 0 min 0,000 mm 0,0 UV-I 0 W/m 16,9 C 20,0 C 16,1 km/h (3 Bft) 100,00 %
12.08.2019 03:50 21,5 C 24,4 C 21,1 C 75 % 1012,6 hPa 0,0 l/m 9,0 km/h (2 Bft) W-SW 258 0 min 0,000 mm 0,0 UV-I 0 W/m 16,9 C 20,6 C 16,1 km/h (3 Bft) 97,87 %
12.08.2019 03:52 21,5 C 24,4 C 21,1 C 75 % 1012,6 hPa 0,0 l/m 9,2 km/h (2 Bft) W 275 0 min 0,000 mm 0,0 UV-I 0 W/m 16,9 C 20,5 C 14,5 km/h (3 Bft) 98,00 %
12.08.2019 03:54 21,4 C 24,4 C 20,6 C 75 % 1012,6 hPa 0,0 l/m 8,1 km/h (2 Bft) W-SW 258 0 min 0,000 mm 0,0 UV-I 0 W/m 16,8 C 20,8 C 12,9 km/h (3 Bft) 94,29 %
12.08.2019 03:56 21,4 C 24,4 C 20,6 C 75 % 1012,6 hPa 0,0 l/m 8,5 km/h (2 Bft) W 267 0 min 0,000 mm 0,0 UV-I 0 W/m 16,8 C 20,7 C 11,3 km/h (2 Bft) 98,11 %
12.08.2019 03:58 21,4 C 24,4 C 20,6 C 75 % 1012,6 hPa 0,0 l/m 8,1 km/h (2 Bft) W 267 0 min 0,000 mm 0,0 UV-I 0 W/m 16,8 C 20,8 C 12,9 km/h (3 Bft) 97,87 %
12.08.2019 04:00 21,3 C 24,4 C 20,6 C 75 % 1012,7 hPa 0,0 l/m 7,5 km/h (2 Bft) W-NW 284 0 min 0,051 mm 0,0 UV-I 0 W/m 16,7 C 20,9 C 16,1 km/h (3 Bft) 97,87 %
12.08.2019 04:02 21,3 C 24,4 C 20,6 C 76 % 1012,6 hPa 0,0 l/m 10,2 km/h (2 Bft) W-SW 252 0 min 0,000 mm 0,0 UV-I 0 W/m 16,9 C 20,0 C 16,1 km/h (3 Bft) 89,66 %
12.08.2019 04:04 21,3 C 24,4 C 20,6 C 76 % 1012,6 hPa 0,0 l/m 9,6 km/h (2 Bft) W-SW 248 0 min 0,000 mm 0,0 UV-I 0 W/m 16,9 C 20,2 C 14,5 km/h (3 Bft) 95,74 %
12.08.2019 04:06 21,3 C 24,4 C 20,6 C 76 % 1012,6 hPa 0,0 l/m 8,4 km/h (2 Bft) W-SW 255 0 min 0,000 mm 0,0 UV-I 0 W/m 16,9 C 20,6 C 17,7 km/h (3 Bft) 96,00 %
12.08.2019 04:08 21,3 C 24,4 C 20,6 C 76 % 1012,7 hPa 0,0 l/m 7,7 km/h (2 Bft) W 265 0 min 0,000 mm 0,0 UV-I 0 W/m 16,9 C 20,8 C 14,5 km/h (3 Bft) 94,87 %
12.08.2019 04:10 21,3 C 24,4 C 20,6 C 76 % 1012,7 hPa 0,0 l/m 7,4 km/h (2 Bft) W 279 0 min 0,000 mm 0,0 UV-I 0 W/m 16,9 C 20,9 C 12,9 km/h (3 Bft) 95,74 %
12.08.2019 04:12 21,3 C 24,4 C 20,6 C 76 % 1012,7 hPa 0,0 l/m 9,1 km/h (2 Bft) NW 305 0 min 0,000 mm 0,0 UV-I 0 W/m 16,9 C 20,4 C 12,9 km/h (3 Bft) 95,74 %
12.08.2019 04:14 21,3 C 24,4 C 20,6 C 76 % 1012,8 hPa 0,0 l/m 9,7 km/h (2 Bft) W-SW 246 0 min 0,000 mm 0,0 UV-I 0 W/m 16,9 C 20,2 C 16,1 km/h (3 Bft) 94,00 %
12.08.2019 04:16 21,3 C 24,4 C 20,6 C 76 % 1012,9 hPa 0,0 l/m 9,2 km/h (2 Bft) W 266 0 min 0,000 mm 0,0 UV-I 0 W/m 16,9 C 20,3 C 17,7 km/h (3 Bft) 91,49 %
12.08.2019 04:18 21,3 C 24,4 C 20,6 C 76 % 1012,8 hPa 0,0 l/m 13,0 km/h (3 Bft) W 279 0 min 0,000 mm 0,0 UV-I 0 W/m 16,9 C 19,3 C 19,3 km/h (3 Bft) 95,74 %
12.08.2019 04:20 21,3 C 24,4 C 20,6 C 76 % 1012,8 hPa 0,0 l/m 7,9 km/h (2 Bft) W 270 0 min 0,000 mm 0,0 UV-I 0 W/m 16,9 C 20,8 C 11,3 km/h (2 Bft) 93,62 %
12.08.2019 04:22 21,3 C 24,4 C 20,6 C 76 % 1012,8 hPa 0,0 l/m 10,8 km/h (2 Bft) W-SW 257 0 min 0,000 mm 0,0 UV-I 0 W/m 16,9 C 19,8 C 14,5 km/h (3 Bft) 94,00 %
12.08.2019 04:24 21,3 C 24,4 C 20,6 C 76 % 1012,9 hPa 0,0 l/m 9,5 km/h (2 Bft) W-SW 242 0 min 0,000 mm 0,0 UV-I 0 W/m 16,9 C 20,2 C 16,1 km/h (3 Bft) 93,62 %
12.08.2019 04:26 21,3 C 24,4 C 20,6 C 76 % 1012,8 hPa 0,0 l/m 8,4 km/h (2 Bft) W-SW 256 0 min 0,000 mm 0,0 UV-I 0 W/m 16,9 C 20,6 C 14,5 km/h (3 Bft) 95,74 %
12.08.2019 04:28 21,2 C 24,4 C 20,6 C 76 % 1012,8 hPa 0,0 l/m 6,2 km/h (2 Bft) W 278 0 min 0,000 mm 0,0 UV-I 0 W/m 16,8 C 21,2 C 11,3 km/h (2 Bft) 95,74 %
12.08.2019 04:30 21,2 C 24,4 C 20,6 C 77 % 1012,8 hPa 0,0 l/m 7,1 km/h (2 Bft) W 267 0 min 0,000 mm 0,0 UV-I 0 W/m 17,0 C 20,9 C 11,3 km/h (2 Bft) 97,37 %
12.08.2019 04:32 21,2 C 24,4 C 20,6 C 77 % 1012,9 hPa 0,0 l/m 5,7 km/h (1 Bft) W-NW 299 0 min 0,000 mm 0,0 UV-I 0 W/m 17,0 C 21,2 C 9,7 km/h (2 Bft) 96,00 %
12.08.2019 04:34 21,1 C 24,4 C 20,6 C 77 % 1012,9 hPa 0,0 l/m 4,4 km/h (1 Bft) W 279 0 min 0,000 mm 0,0 UV-I 0 W/m 16,9 C 21,1 C 6,4 km/h (2 Bft) 95,74 %
12.08.2019 04:36 21,1 C 24,4 C 20,6 C 77 % 1012,8 hPa 0,0 l/m 5,4 km/h (1 Bft) W 268 0 min 0,000 mm 0,0 UV-I 0 W/m 16,9 C 21,1 C 9,7 km/h (2 Bft) 98,11 %
12.08.2019 04:38 21,1 C 24,4 C 20,6 C 77 % 1012,9 hPa 0,0 l/m 5,6 km/h (1 Bft) W 268 0 min 0,000 mm 0,0 UV-I 0 W/m 16,9 C 21,1 C 9,7 km/h (2 Bft) 93,62 %
12.08.2019 04:40 21,1 C 24,4 C 20,6 C 77 % 1013,0 hPa 0,0 l/m 7,7 km/h (2 Bft) W 271 0 min 0,000 mm 0,0 UV-I 0 W/m 16,9 C 20,6 C 11,3 km/h (2 Bft) 95,74 %
12.08.2019 04:42 21,1 C 24,4 C 20,6 C 78 % 1013,1 hPa 0,0 l/m 7,5 km/h (2 Bft) W 265 0 min 0,000 mm 0,0 UV-I 0 W/m 17,1 C 20,7 C 12,9 km/h (3 Bft) 97,56 %
12.08.2019 04:44 21,0 C 24,4 C 20,6 C 78 % 1013,1 hPa 0,0 l/m 7,0 km/h (2 Bft) W-NW 284 0 min 0,000 mm 0,0 UV-I 0 W/m 17,0 C 20,8 C 11,3 km/h (2 Bft) 97,87 %
12.08.2019 04:46 20,9 C 24,4 C 20,6 C 78 % 1013,2 hPa 0,0 l/m 6,0 km/h (2 Bft) W 274 0 min 0,000 mm 0,0 UV-I 0 W/m 16,9 C 20,9 C 11,3 km/h (2 Bft) 97,87 %
12.08.2019 04:48 20,9 C 24,4 C 20,6 C 78 % 1013,1 hPa 0,0 l/m 5,9 km/h (2 Bft) W 270 0 min 0,000 mm 0,0 UV-I 0 W/m 16,9 C 20,9 C 11,3 km/h (2 Bft) 98,04 %
12.08.2019 04:50 20,9 C 24,4 C 20,6 C 78 % 1013,2 hPa 0,0 l/m 7,0 km/h (2 Bft) W 281 0 min 0,000 mm 0,0 UV-I 0 W/m 16,9 C 20,7 C 11,3 km/h (2 Bft) 97,87 %
12.08.2019 04:52 20,9 C 23,9 C 20,6 C 78 % 1013,2 hPa 0,0 l/m 7,4 km/h (2 Bft) W-NW 284 0 min 0,000 mm 0,0 UV-I 0 W/m 16,9 C 20,5 C 14,5 km/h (3 Bft) 97,87 %
12.08.2019 04:54 20,9 C 23,9 C 20,6 C 78 % 1013,2 hPa 0,0 l/m 4,5 km/h (1 Bft) W 270 0 min 0,000 mm 0,0 UV-I 0 W/m 16,9 C 20,9 C 9,7 km/h (2 Bft) 97,87 %
12.08.2019 04:56 20,9 C 23,9 C 20,6 C 78 % 1013,2 hPa 0,0 l/m 6,3 km/h (2 Bft) W 280 0 min 0,000 mm 0,0 UV-I 0 W/m 16,9 C 20,9 C 11,3 km/h (2 Bft) 95,92 %
12.08.2019 04:58 20,9 C 23,9 C 20,6 C 78 % 1013,2 hPa 0,0 l/m 6,3 km/h (2 Bft) W-NW 300 0 min 0,000 mm 0,0 UV-I 0 W/m 16,9 C 20,9 C 12,9 km/h (3 Bft) 94,29 %
12.08.2019 05:00 20,9 C 23,9 C 20,6 C 79 % 1013,2 hPa 0,0 l/m 7,0 km/h (2 Bft) W 281 0 min 0,025 mm 0,0 UV-I 0 W/m 17,1 C 20,7 C 12,9 km/h (3 Bft) 97,87 %
12.08.2019 05:02 20,9 C 24,4 C 20,6 C 79 % 1013,3 hPa 0,0 l/m 7,8 km/h (2 Bft) W-NW 292 0 min 0,000 mm 0,0 UV-I 0 W/m 17,1 C 20,4 C 14,5 km/h (3 Bft) 98,00 %
12.08.2019 05:04 20,9 C 23,9 C 20,6 C 79 % 1013,2 hPa 0,0 l/m 8,2 km/h (2 Bft) W 265 0 min 0,000 mm 0,0 UV-I 0 W/m 17,1 C 20,2 C 16,1 km/h (3 Bft) 95,74 %
12.08.2019 05:06 20,9 C 23,9 C 20,6 C 79 % 1013,2 hPa 0,0 l/m 3,6 km/h (1 Bft) W 269 0 min 0,000 mm 0,0 UV-I 0 W/m 17,1 C 20,9 C 6,4 km/h (2 Bft) 97,87 %
12.08.2019 05:08 20,8 C 23,9 C 20,0 C 79 % 1013,3 hPa 0,0 l/m 5,5 km/h (1 Bft) N-NO 20 0 min 0,000 mm 0,0 UV-I 0 W/m 17,0 C 20,8 C 11,3 km/h (2 Bft) 97,87 %
12.08.2019 05:10 20,8 C 23,9 C 20,0 C 79 % 1013,4 hPa 0,0 l/m 2,5 km/h (1 Bft) NW 307 0 min 0,000 mm 0,0 UV-I 0 W/m 17,0 C 20,8 C 4,8 km/h (1 Bft) 97,87 %
12.08.2019 05:12 20,7 C 23,9 C 20,0 C 80 % 1013,4 hPa 0,0 l/m 1,2 km/h (1 Bft) NW 306 0 min 0,000 mm 0,0 UV-I 0 W/m 17,1 C 20,7 C 6,4 km/h (2 Bft) 95,74 %
12.08.2019 05:14 20,6 C 23,9 C 20,0 C 80 % 1013,4 hPa 0,0 l/m 4,5 km/h (1 Bft) W-NW 287 0 min 0,000 mm 0,0 UV-I 0 W/m 17,0 C 20,6 C 9,7 km/h (2 Bft) 97,87 %
12.08.2019 05:16 20,5 C 23,9 C 20,0 C 80 % 1013,4 hPa 0,0 l/m 4,2 km/h (1 Bft) W-NW 289 0 min 0,000 mm 0,0 UV-I 0 W/m 16,9 C 20,5 C 11,3 km/h (2 Bft) 98,00 %
12.08.2019 05:18 20,4 C 23,9 C 19,4 C 81 % 1013,4 hPa 0,0 l/m 1,2 km/h (1 Bft) W-NW 289 0 min 0,000 mm 0,0 UV-I 0 W/m 17,0 C 20,4 C 3,2 km/h (1 Bft) 98,00 %
12.08.2019 05:20 20,3 C 23,9 C 19,4 C 81 % 1013,4 hPa 0,0 l/m 1,4 km/h (1 Bft) W-NW 289 0 min 0,000 mm 0,0 UV-I 0 W/m 16,9 C 20,3 C 3,2 km/h (1 Bft) 97,87 %
12.08.2019 05:22 20,3 C 23,9 C 19,4 C 81 % 1013,6 hPa 0,0 l/m 2,9 km/h (1 Bft) W-SW 255 0 min 0,000 mm 0,0 UV-I 0 W/m 16,9 C 20,3 C 4,8 km/h (1 Bft) 97,37 %
12.08.2019 05:24 20,3 C 23,9 C 19,4 C 82 % 1013,6 hPa 0,0 l/m 2,3 km/h (1 Bft) W-SW 255 0 min 0,000 mm 0,0 UV-I 0 W/m 17,1 C 20,3 C 4,8 km/h (1 Bft) 97,87 %
12.08.2019 05:26 20,2 C 23,9 C 19,4 C 82 % 1013,7 hPa 0,0 l/m 3,0 km/h (1 Bft) W-NW 292 0 min 0,000 mm 0,0 UV-I 0 W/m 17,0 C 20,2 C 6,4 km/h (2 Bft) 97,87 %
12.08.2019 05:28 20,2 C 23,9 C 19,4 C 83 % 1013,7 hPa 0,0 l/m 0,9 km/h (0 Bft) W-NW 292 0 min 0,000 mm 0,0 UV-I 0 W/m 17,2 C 20,2 C 1,6 km/h (1 Bft) 100,00 %
12.08.2019 05:30 20,1 C 23,9 C 19,4 C 83 % 1013,6 hPa 0,0 l/m 3,8 km/h (1 Bft) S-SW 202 0 min 0,000 mm 0,0 UV-I 0 W/m 17,1 C 20,1 C 11,3 km/h (2 Bft) 100,00 %
12.08.2019 05:32 20,1 C 23,9 C 19,4 C 83 % 1013,7 hPa 0,0 l/m 5,1 km/h (1 Bft) W-NW 292 0 min 0,000 mm 0,0 UV-I 0 W/m 17,1 C 20,1 C 8,0 km/h (2 Bft) 97,87 %
12.08.2019 05:34 20,1 C 23,9 C 20,0 C 83 % 1013,6 hPa 0,0 l/m 8,3 km/h (2 Bft) NW 313 0 min 0,000 mm 0,0 UV-I 0 W/m 17,1 C 19,3 C 16,1 km/h (3 Bft) 92,00 %
12.08.2019 05:36 20,1 C 23,9 C 20,0 C 83 % 1013,6 hPa 0,0 l/m 6,6 km/h (2 Bft) W-SW 244 0 min 0,000 mm 0,0 UV-I 0 W/m 17,1 C 20,0 C 9,7 km/h (2 Bft) 97,87 %
12.08.2019 05:38 20,1 C 23,9 C 20,0 C 83 % 1013,6 hPa 0,0 l/m 5,9 km/h (2 Bft) W-NW 286 0 min 0,000 mm 0,0 UV-I 0 W/m 17,1 C 20,1 C 11,3 km/h (2 Bft) 97,87 %
12.08.2019 05:40 20,1 C 23,9 C 20,0 C 84 % 1013,5 hPa 0,0 l/m 6,7 km/h (2 Bft) W 267 0 min 0,000 mm 0,0 UV-I 0 W/m 17,3 C 20,0 C 12,9 km/h (3 Bft) 95,74 %
12.08.2019 05:42 20,1 C 23,9 C 20,0 C 84 % 1013,5 hPa 0,0 l/m 4,6 km/h (1 Bft) W-SW 255 0 min 0,000 mm 0,0 UV-I 0 W/m 17,3 C 20,1 C 9,7 km/h (2 Bft) 97,87 %
12.08.2019 05:44 20,1 C 23,9 C 19,4 C 84 % 1013,4 hPa 0,0 l/m 11,8 km/h (2 Bft) W 269 0 min 0,000 mm 0,0 UV-I 5 W/m 17,3 C 18,2 C 24,1 km/h (4 Bft) 95,74 %
12.08.2019 05:46 20,0 C 23,9 C 19,4 C 84 % 1013,4 hPa 0,0 l/m 6,0 km/h (2 Bft) W-SW 255 0 min 0,000 mm 0,0 UV-I 5 W/m 17,2 C 20,0 C 12,9 km/h (3 Bft) 97,87 %
12.08.2019 05:48 20,0 C 23,9 C 19,4 C 84 % 1013,5 hPa 0,0 l/m 7,2 km/h (2 Bft) W 275 0 min 0,000 mm 0,0 UV-I 5 W/m 17,2 C 19,7 C 11,3 km/h (2 Bft) 97,87 %
12.08.2019 05:50 19,9 C 23,9 C 19,4 C 84 % 1013,5 hPa 0,0 l/m 7,3 km/h (2 Bft) NW 326 0 min 0,000 mm 0,0 UV-I 6 W/m 17,1 C 19,5 C 14,5 km/h (3 Bft) 95,74 %
12.08.2019 05:52 19,9 C 23,9 C 19,4 C 84 % 1013,4 hPa 0,0 l/m 8,7 km/h (2 Bft) W 273 0 min 0,000 mm 0,0 UV-I 7 W/m 17,1 C 19,0 C 12,9 km/h (3 Bft) 95,74 %
12.08.2019 05:54 19,9 C 23,9 C 19,4 C 84 % 1013,5 hPa 0,0 l/m 4,9 km/h (1 Bft) W-SW 253 0 min 0,000 mm 0,0 UV-I 8 W/m 17,1 C 19,9 C 9,7 km/h (2 Bft) 93,62 %
12.08.2019 05:56 19,8 C 23,9 C 19,4 C 84 % 1013,4 hPa 0,0 l/m 4,0 km/h (1 Bft) W-NW 290 0 min 0,000 mm 0,0 UV-I 9 W/m 17,0 C 19,8 C 6,4 km/h (2 Bft) 95,74 %
12.08.2019 05:58 19,8 C 23,9 C 18,9 C 84 % 1013,3 hPa 0,0 l/m 5,3 km/h (1 Bft) W 262 0 min 0,000 mm 0,0 UV-I 11 W/m 17,0 C 19,8 C 16,1 km/h (3 Bft) 95,74 %
12.08.2019 06:00 19,8 C 23,9 C 18,9 C 84 % 1013,4 hPa 0,0 l/m 5,9 km/h (2 Bft) W 262 0 min 0,026 mm 0,0 UV-I 12 W/m 17,0 C 19,8 C 12,9 km/h (3 Bft) 97,87 %
12.08.2019 06:02 19,7 C 23,9 C 18,9 C 84 % 1013,5 hPa 0,0 l/m 5,6 km/h (1 Bft) W 279 0 min 0,000 mm 0,0 UV-I 12 W/m 16,9 C 19,7 C 11,3 km/h (2 Bft) 95,74 %
12.08.2019 06:04 19,7 C 23,9 C 18,9 C 84 % 1013,7 hPa 0,0 l/m 5,9 km/h (2 Bft) NW 315 0 min 0,000 mm 0,0 UV-I 15 W/m 16,9 C 19,7 C 11,3 km/h (2 Bft) 100,00 %
12.08.2019 06:06 19,7 C 23,9 C 18,9 C 85 % 1013,7 hPa 0,0 l/m 4,6 km/h (1 Bft) W 271 2 min 0,000 mm 0,0 UV-I 18 W/m 17,1 C 19,7 C 9,7 km/h (2 Bft) 96,00 %
12.08.2019 06:08 19,6 C 23,9 C 18,9 C 85 % 1013,7 hPa 0,0 l/m 6,2 km/h (2 Bft) W-NW 284 2 min 0,000 mm 0,0 UV-I 20 W/m 17,0 C 19,6 C 11,3 km/h (2 Bft) 98,00 %
12.08.2019 06:10 19,6 C 23,9 C 18,9 C 85 % 1013,6 hPa 0,0 l/m 6,4 km/h (2 Bft) NW 317 2 min 0,000 mm 0,0 UV-I 21 W/m 17,0 C 19,6 C 11,3 km/h (2 Bft) 94,00 %
12.08.2019 06:12 19,6 C 23,9 C 18,9 C 85 % 1013,7 hPa 0,0 l/m 8,1 km/h (2 Bft) W 271 2 min 0,000 mm 0,0 UV-I 21 W/m 17,0 C 18,9 C 16,1 km/h (3 Bft) 95,74 %
12.08.2019 06:14 19,6 C 23,9 C 19,4 C 85 % 1013,7 hPa 0,0 l/m 5,4 km/h (1 Bft) W 265 2 min 0,000 mm 0,0 UV-I 24 W/m 17,0 C 19,6 C 12,9 km/h (3 Bft) 97,87 %
12.08.2019 06:16 19,7 C 23,9 C 19,4 C 85 % 1013,7 hPa 0,0 l/m 6,8 km/h (2 Bft) W-SW 254 0 min 0,000 mm 0,0 UV-I 25 W/m 17,1 C 19,5 C 11,3 km/h (2 Bft) 97,87 %
12.08.2019 06:18 19,7 C 23,9 C 19,4 C 85 % 1013,7 hPa 0,0 l/m 8,6 km/h (2 Bft) W-NW 289 0 min 0,000 mm 0,0 UV-I 22 W/m 17,1 C 18,8 C 17,7 km/h (3 Bft) 97,87 %
12.08.2019 06:20 19,7 C 23,9 C 19,4 C 85 % 1013,9 hPa 0,0 l/m 5,5 km/h (1 Bft) NW 307 0 min 0,000 mm 0,0 UV-I 22 W/m 17,1 C 19,7 C 11,3 km/h (2 Bft) 96,00 %
12.08.2019 06:22 19,7 C 23,9 C 19,4 C 85 % 1013,8 hPa 0,0 l/m 5,9 km/h (2 Bft) W 261 0 min 0,000 mm 0,0 UV-I 24 W/m 17,1 C 19,7 C 11,3 km/h (2 Bft) 95,74 %
12.08.2019 06:24 19,7 C 23,9 C 19,4 C 85 % 1013,8 hPa 0,0 l/m 6,2 km/h (2 Bft) W-NW 292 0 min 0,000 mm 0,0 UV-I 21 W/m 17,1 C 19,7 C 11,3 km/h (2 Bft) 97,14 %
12.08.2019 06:26 19,7 C 23,9 C 19,4 C 85 % 1013,7 hPa 0,0 l/m 7,6 km/h (2 Bft) W 264 0 min 0,000 mm 0,0 UV-I 26 W/m 17,1 C 19,2 C 16,1 km/h (3 Bft) 100,00 %
12.08.2019 06:28 19,6 C 23,9 C 19,4 C 85 % 1013,7 hPa 0,0 l/m 6,5 km/h (2 Bft) W 280 0 min 0,000 mm 0,0 UV-I 29 W/m 17,0 C 19,6 C 11,3 km/h (2 Bft) 97,87 %
12.08.2019 06:30 19,6 C 23,9 C 19,4 C 85 % 1013,9 hPa 0,0 l/m 10,3 km/h (2 Bft) W-SW 255 0 min 0,000 mm 0,0 UV-I 34 W/m 17,0 C 18,1 C 17,7 km/h (3 Bft) 95,74 %
12.08.2019 06:32 19,6 C 23,9 C 19,4 C 85 % 1013,9 hPa 0,0 l/m 9,2 km/h (2 Bft) W 270 2 min 0,000 mm 0,0 UV-I 51 W/m 17,0 C 18,5 C 12,9 km/h (3 Bft) 100,00 %
12.08.2019 06:34 19,6 C 23,9 C 19,4 C 86 % 1013,9 hPa 0,0 l/m 9,5 km/h (2 Bft) W-SW 246 2 min 0,000 mm 0,0 UV-I 66 W/m 17,2 C 18,4 C 17,7 km/h (3 Bft) 100,00 %
12.08.2019 06:36 19,6 C 23,9 C 19,4 C 85 % 1013,9 hPa 0,0 l/m 11,1 km/h (2 Bft) W 261 2 min 0,000 mm 0,0 UV-I 63 W/m 17,0 C 17,8 C 17,7 km/h (3 Bft) 100,00 %
12.08.2019 06:38 19,6 C 23,9 C 19,4 C 85 % 1013,8 hPa 0,0 l/m 9,4 km/h (2 Bft) W 266 2 min 0,000 mm 0,0 UV-I 63 W/m 17,0 C 18,4 C 14,5 km/h (3 Bft) 100,00 %
12.08.2019 06:40 19,6 C 23,9 C 19,4 C 85 % 1013,8 hPa 0,0 l/m 10,7 km/h (2 Bft) W-NW 286 2 min 0,000 mm 0,0 UV-I 67 W/m 17,0 C 18,0 C 17,7 km/h (3 Bft) 97,87 %
12.08.2019 06:42 19,6 C 23,9 C 19,4 C 85 % 1013,8 hPa 0,0 l/m 9,0 km/h (2 Bft) W-NW 293 2 min 0,000 mm 0,0 UV-I 70 W/m 17,0 C 18,6 C 16,1 km/h (3 Bft) 100,00 %
12.08.2019 06:44 19,6 C 23,9 C 19,4 C 85 % 1013,8 hPa 0,0 l/m 8,7 km/h (2 Bft) W 275 0 min 0,000 mm 0,0 UV-I 62 W/m 17,0 C 18,7 C 12,9 km/h (3 Bft) 95,74 %
12.08.2019 06:46 19,6 C 23,9 C 19,4 C 85 % 1013,8 hPa 0,0 l/m 5,9 km/h (2 Bft) W 277 0 min 0,000 mm 0,0 UV-I 44 W/m 17,0 C 19,6 C 11,3 km/h (2 Bft) 97,87 %
12.08.2019 06:48 19,6 C 23,9 C 19,4 C 85 % 1013,7 hPa 0,0 l/m 6,7 km/h (2 Bft) W 274 0 min 0,000 mm 0,0 UV-I 46 W/m 17,0 C 19,5 C 12,9 km/h (3 Bft) 100,00 %
12.08.2019 06:50 19,5 C 23,9 C 19,4 C 85 % 1013,8 hPa 0,0 l/m 8,4 km/h (2 Bft) W 268 0 min 0,000 mm 0,0 UV-I 47 W/m 16,9 C 18,7 C 14,5 km/h (3 Bft) 100,00 %
12.08.2019 06:52 19,5 C 23,9 C 19,4 C 85 % 1013,8 hPa 0,0 l/m 7,6 km/h (2 Bft) W-SW 246 0 min 0,000 mm 0,0 UV-I 48 W/m 16,9 C 19,0 C 14,5 km/h (3 Bft) 100,00 %
12.08.2019 06:54 19,5 C 23,9 C 19,4 C 85 % 1013,8 hPa 0,0 l/m 7,9 km/h (2 Bft) W-SW 248 0 min 0,000 mm 0,0 UV-I 56 W/m 16,9 C 18,9 C 12,9 km/h (3 Bft) 100,00 %
12.08.2019 06:56 19,5 C 23,9 C 19,4 C 85 % 1013,7 hPa 0,0 l/m 11,6 km/h (2 Bft) W-NW 286 0 min 0,000 mm 0,0 UV-I 45 W/m 16,9 C 17,6 C 22,5 km/h (4 Bft) 100,00 %
12.08.2019 06:58 19,5 C 23,9 C 19,4 C 85 % 1013,8 hPa 0,0 l/m 5,9 km/h (2 Bft) W-NW 287 0 min 0,000 mm 0,0 UV-I 44 W/m 16,9 C 19,5 C 11,3 km/h (2 Bft) 100,00 %
12.08.2019 07:00 19,5 C 23,9 C 19,4 C 85 % 1013,7 hPa 0,0 l/m 7,2 km/h (2 Bft) W-SW 250 0 min 0,000 mm 0,0 UV-I 47 W/m 16,9 C 19,2 C 16,1 km/h (3 Bft) 100,00 %
12.08.2019 07:02 19,4 C 23,9 C 19,4 C 85 % 1013,7 hPa 0,0 l/m 10,2 km/h (2 Bft) W-SW 255 0 min 0,050 mm 0,0 UV-I 67 W/m 16,8 C 17,9 C 16,1 km/h (3 Bft) 98,00 %
12.08.2019 07:04 19,4 C 23,9 C 19,4 C 85 % 1013,7 hPa 0,0 l/m 6,6 km/h (2 Bft) W 269 2 min 0,000 mm 0,0 UV-I 101 W/m 16,8 C 19,3 C 16,1 km/h (3 Bft) 97,87 %
12.08.2019 07:06 19,5 C 23,9 C 19,4 C 85 % 1013,7 hPa 0,0 l/m 7,6 km/h (2 Bft) W 259 2 min 0,000 mm 0,0 UV-I 102 W/m 16,9 C 19,0 C 12,9 km/h (3 Bft) 97,87 %
12.08.2019 07:08 19,5 C 23,9 C 19,4 C 85 % 1013,6 hPa 0,0 l/m 8,8 km/h (2 Bft) W-NW 296 2 min 0,000 mm 0,0 UV-I 132 W/m 16,9 C 18,5 C 14,5 km/h (3 Bft) 97,87 %
12.08.2019 07:10 19,6 C 23,9 C 19,4 C 85 % 1013,5 hPa 0,0 l/m 4,9 km/h (1 Bft) W-SW 254 2 min 0,000 mm 0,0 UV-I 130 W/m 17,0 C 19,6 C 11,3 km/h (2 Bft) 97,87 %
12.08.2019 07:12 19,6 C 23,9 C 19,4 C 85 % 1013,5 hPa 0,0 l/m 5,4 km/h (1 Bft) W-NW 293 0 min 0,000 mm 0,0 UV-I 76 W/m 17,0 C 19,6 C 11,3 km/h (2 Bft) 91,49 %
12.08.2019 07:14 19,6 C 23,9 C 19,4 C 85 % 1013,5 hPa 0,0 l/m 7,4 km/h (2 Bft) W 281 2 min 0,000 mm 0,0 UV-I 116 W/m 17,0 C 19,2 C 12,9 km/h (3 Bft) 97,87 %
12.08.2019 07:16 19,7 C 23,9 C 20,0 C 85 % 1013,5 hPa 0,0 l/m 6,5 km/h (2 Bft) W-SW 250 2 min 0,000 mm 0,0 UV-I 144 W/m 17,1 C 19,7 C 11,3 km/h (2 Bft) 98,00 %
12.08.2019 07:18 19,7 C 23,9 C 20,0 C 85 % 1013,5 hPa 0,0 l/m 6,2 km/h (2 Bft) NW 314 2 min 0,000 mm 0,0 UV-I 167 W/m 17,1 C 19,7 C 12,9 km/h (3 Bft) 97,22 %
12.08.2019 07:20 19,8 C 23,9 C 20,0 C 85 % 1013,5 hPa 0,0 l/m 4,3 km/h (1 Bft) W 271 2 min 0,000 mm 0,0 UV-I 176 W/m 17,2 C 19,8 C 8,0 km/h (2 Bft) 95,74 %
12.08.2019 07:22 19,9 C 23,9 C 20,0 C 84 % 1013,6 hPa 0,0 l/m 3,8 km/h (1 Bft) W-SW 257 2 min 0,000 mm 0,0 UV-I 185 W/m 17,1 C 19,9 C 9,7 km/h (2 Bft) 97,87 %
12.08.2019 07:24 19,9 C 23,9 C 20,6 C 84 % 1013,7 hPa 0,0 l/m 5,5 km/h (1 Bft) W 271 2 min 0,000 mm 0,0 UV-I 191 W/m 17,1 C 19,9 C 9,7 km/h (2 Bft) 97,87 %
12.08.2019 07:26 20,0 C 23,9 C 20,6 C 84 % 1013,8 hPa 0,0 l/m 5,6 km/h (1 Bft) W-SW 254 2 min 0,000 mm 0,0 UV-I 193 W/m 17,2 C 20,0 C 9,7 km/h (2 Bft) 97,87 %
12.08.2019 07:28 20,1 C 23,9 C 20,6 C 84 % 1013,9 hPa 0,0 l/m 5,0 km/h (1 Bft) W-NW 289 2 min 0,000 mm 0,0 UV-I 199 W/m 17,3 C 20,1 C 9,7 km/h (2 Bft) 95,74 %
12.08.2019 07:30 20,2 C 23,9 C 20,6 C 84 % 1013,9 hPa 0,0 l/m 5,0 km/h (1 Bft) W 265 2 min 0,000 mm 0,0 UV-I 204 W/m 17,4 C 20,2 C 9,7 km/h (2 Bft) 100,00 %
12.08.2019 07:32 20,2 C 23,9 C 20,6 C 83 % 1014,0 hPa 0,0 l/m 5,4 km/h (1 Bft) W 261 2 min 0,000 mm 0,0 UV-I 209 W/m 17,2 C 20,2 C 11,3 km/h (2 Bft) 100,00 %
12.08.2019 07:34 20,2 C 23,9 C 20,6 C 83 % 1014,0 hPa 0,0 l/m 4,9 km/h (1 Bft) W 271 2 min 0,000 mm 0,0 UV-I 216 W/m 17,2 C 20,2 C 9,7 km/h (2 Bft) 100,00 %
12.08.2019 07:36 20,3 C 23,9 C 20,6 C 83 % 1014,0 hPa 0,0 l/m 5,1 km/h (1 Bft) W 267 2 min 0,000 mm 0,0 UV-I 226 W/m 17,3 C 20,3 C 12,9 km/h (3 Bft) 100,00 %
12.08.2019 07:38 20,4 C 23,9 C 21,1 C 82 % 1014,0 hPa 0,0 l/m 10,9 km/h (2 Bft) N-NW 328 2 min 0,000 mm 0,0 UV-I 239 W/m 17,2 C 18,8 C 16,1 km/h (3 Bft) 100,00 %
12.08.2019 07:40 20,4 C 23,9 C 21,1 C 82 % 1014,0 hPa 0,0 l/m 6,0 km/h (2 Bft) W 277 2 min 0,000 mm 0,0 UV-I 258 W/m 17,2 C 20,4 C 11,3 km/h (2 Bft) 100,00 %
12.08.2019 07:42 20,4 C 23,9 C 21,7 C 83 % 1014,1 hPa 0,0 l/m 6,8 km/h (2 Bft) W-NW 288 2 min 0,000 mm 0,0 UV-I 318 W/m 17,4 C 20,2 C 12,9 km/h (3 Bft) 98,00 %
12.08.2019 07:44 20,5 C 23,9 C 22,2 C 82 % 1014,1 hPa 0,0 l/m 6,1 km/h (2 Bft) SW 232 2 min 0,000 mm 0,0 UV-I 278 W/m 17,3 C 20,5 C 14,5 km/h (3 Bft) 97,87 %
12.08.2019 07:46 20,5 C 23,9 C 22,2 C 82 % 1014,1 hPa 0,0 l/m 5,9 km/h (2 Bft) W-SW 246 0 min 0,000 mm 0,0 UV-I 158 W/m 17,3 C 20,5 C 16,1 km/h (3 Bft) 98,00 %
12.08.2019 07:48 20,5 C 23,9 C 22,2 C 82 % 1014,2 hPa 0,0 l/m 5,6 km/h (1 Bft) W 281 0 min 0,000 mm 0,0 UV-I 116 W/m 17,3 C 20,5 C 9,7 km/h (2 Bft) 97,22 %
12.08.2019 07:50 20,4 C 23,9 C 22,2 C 82 % 1014,2 hPa 0,0 l/m 4,3 km/h (1 Bft) W 269 0 min 0,000 mm 0,0 UV-I 114 W/m 17,2 C 20,4 C 9,7 km/h (2 Bft) 94,12 %
12.08.2019 07:52 20,4 C 23,9 C 22,2 C 82 % 1014,2 hPa 0,0 l/m 3,8 km/h (1 Bft) W-NW 298 0 min 0,000 mm 0,0 UV-I 109 W/m 17,2 C 20,4 C 6,4 km/h (2 Bft) 97,92 %
12.08.2019 07:54 20,4 C 23,9 C 22,2 C 82 % 1014,2 hPa 0,0 l/m 7,2 km/h (2 Bft) W-NW 296 0 min 0,000 mm 0,0 UV-I 127 W/m 17,2 C 20,1 C 14,5 km/h (3 Bft) 97,87 %
12.08.2019 07:56 20,4 C 23,9 C 22,2 C 82 % 1014,3 hPa 0,0 l/m 4,1 km/h (1 Bft) W 271 0 min 0,000 mm 0,5 UV-I 145 W/m 17,2 C 20,4 C 6,4 km/h (2 Bft) 98,00 %
12.08.2019 07:58 20,4 C 23,9 C 22,2 C 82 % 1014,3 hPa 0,0 l/m 5,0 km/h (1 Bft) W 267 0 min 0,000 mm 0,5 UV-I 179 W/m 17,2 C 20,4 C 11,3 km/h (2 Bft) 96,00 %
12.08.2019 08:00 20,4 C 23,9 C 22,2 C 82 % 1014,3 hPa 0,0 l/m 9,6 km/h (2 Bft) SW 221 0 min 0,102 mm 0,2 UV-I 167 W/m 17,2 C 19,2 C 17,7 km/h (3 Bft) 97,87 %
12.08.2019 08:02 20,4 C 23,9 C 22,2 C 82 % 1014,3 hPa 0,0 l/m 7,8 km/h (2 Bft) W 280 0 min 0,000 mm 0,0 UV-I 152 W/m 17,2 C 19,8 C 16,1 km/h (3 Bft) 95,74 %
12.08.2019 08:04 20,4 C 23,9 C 22,2 C 83 % 1014,3 hPa 0,0 l/m 4,0 km/h (1 Bft) N 350 0 min 0,000 mm 0,0 UV-I 155 W/m 17,4 C 20,4 C 11,3 km/h (2 Bft) 97,87 %
12.08.2019 08:06 20,4 C 23,9 C 22,2 C 82 % 1014,3 hPa 0,0 l/m 4,5 km/h (1 Bft) W 268 0 min 0,000 mm 0,5 UV-I 172 W/m 17,2 C 20,4 C 9,7 km/h (2 Bft) 95,74 %
12.08.2019 08:08 20,4 C 23,9 C 22,8 C 83 % 1014,2 hPa 0,0 l/m 5,1 km/h (1 Bft) N-NW 327 0 min 0,000 mm 0,5 UV-I 173 W/m 17,4 C 20,4 C 11,3 km/h (2 Bft) 95,74 %
12.08.2019 08:10 20,5 C 23,9 C 22,8 C 83 % 1014,3 hPa 0,0 l/m 4,2 km/h (1 Bft) W-NW 282 0 min 0,000 mm 0,5 UV-I 152 W/m 17,5 C 20,5 C 9,7 km/h (2 Bft) 95,74 %
12.08.2019 08:12 20,5 C 23,9 C 22,8 C 82 % 1014,3 hPa 0,0 l/m 5,2 km/h (1 Bft) W-SW 252 0 min 0,000 mm 0,0 UV-I 128 W/m 17,3 C 20,5 C 11,3 km/h (2 Bft) 97,87 %
12.08.2019 08:14 20,4 C 23,9 C 22,2 C 82 % 1014,3 hPa 0,0 l/m 5,8 km/h (2 Bft) W-SW 258 0 min 0,000 mm 0,0 UV-I 126 W/m 17,2 C 20,4 C 11,3 km/h (2 Bft) 97,30 %
12.08.2019 08:16 20,4 C 23,9 C 22,8 C 83 % 1014,3 hPa 0,0 l/m 5,1 km/h (1 Bft) W 281 0 min 0,000 mm 0,4 UV-I 140 W/m 17,4 C 20,4 C 9,7 km/h (2 Bft) 93,62 %
12.08.2019 08:18 20,4 C 23,9 C 22,8 C 83 % 1014,3 hPa 0,0 l/m 4,9 km/h (1 Bft) W 281 0 min 0,000 mm 0,5 UV-I 152 W/m 17,4 C 20,4 C 9,7 km/h (2 Bft) 94,00 %
12.08.2019 08:20 20,5 C 23,9 C 22,8 C 83 % 1014,3 hPa 0,0 l/m 5,8 km/h (2 Bft) W-SW 250 0 min 0,000 mm 0,5 UV-I 140 W/m 17,5 C 20,5 C 12,9 km/h (3 Bft) 93,88 %
12.08.2019 08:22 20,5 C 23,9 C 22,8 C 82 % 1014,3 hPa 0,0 l/m 7,8 km/h (2 Bft) W 267 0 min 0,000 mm 0,5 UV-I 141 W/m 17,3 C 20,0 C 16,1 km/h (3 Bft) 93,62 %
12.08.2019 08:24 20,4 C 23,9 C 22,8 C 83 % 1014,2 hPa 0,0 l/m 7,0 km/h (2 Bft) W 276 0 min 0,000 mm 0,6 UV-I 179 W/m 17,4 C 20,2 C 16,1 km/h (3 Bft) 97,87 %
12.08.2019 08:26 20,5 C 23,9 C 23,3 C 83 % 1014,2 hPa 0,0 l/m 6,0 km/h (2 Bft) W-SW 254 2 min 0,000 mm 0,8 UV-I 230 W/m 17,5 C 20,5 C 14,5 km/h (3 Bft) 97,87 %
12.08.2019 08:28 20,6 C 23,9 C 23,3 C 83 % 1014,2 hPa 0,0 l/m 6,3 km/h (2 Bft) W 275 2 min 0,000 mm 0,9 UV-I 253 W/m 17,6 C 20,6 C 14,5 km/h (3 Bft) 97,87 %
12.08.2019 08:30 20,7 C 23,9 C 23,9 C 83 % 1014,2 hPa 0,0 l/m 5,3 km/h (1 Bft) NW 323 2 min 0,000 mm 0,9 UV-I 238 W/m 17,7 C 20,7 C 11,3 km/h (2 Bft) 98,00 %
12.08.2019 08:32 20,7 C 23,9 C 23,3 C 83 % 1014,2 hPa 0,0 l/m 6,7 km/h (2 Bft) W 277 0 min 0,000 mm 1,0 UV-I 212 W/m 17,7 C 20,6 C 16,1 km/h (3 Bft) 95,83 %
12.08.2019 08:34 20,6 C 23,9 C 23,3 C 83 % 1014,2 hPa 0,0 l/m 5,1 km/h (1 Bft) N-NW 340 0 min 0,000 mm 1,0 UV-I 171 W/m 17,6 C 20,6 C 12,9 km/h (3 Bft) 93,62 %
12.08.2019 08:36 20,6 C 23,9 C 22,8 C 83 % 1014,2 hPa 0,0 l/m 5,5 km/h (1 Bft) W 262 0 min 0,000 mm 1,0 UV-I 197 W/m 17,6 C 20,6 C 11,3 km/h (2 Bft) 97,14 %
12.08.2019 08:38 20,5 C 23,9 C 22,8 C 83 % 1014,1 hPa 0,0 l/m 6,4 km/h (2 Bft) N-NW 329 2 min 0,000 mm 1,2 UV-I 267 W/m 17,5 C 20,5 C 11,3 km/h (2 Bft) 95,74 %
12.08.2019 08:40 20,5 C 23,9 C 22,2 C 83 % 1014,1 hPa 0,0 l/m 5,0 km/h (1 Bft) SW 234 2 min 0,000 mm 1,3 UV-I 280 W/m 17,5 C 20,5 C 8,0 km/h (2 Bft) 93,62 %
12.08.2019 08:42 20,6 C 23,9 C 22,2 C 84 % 1014,1 hPa 0,0 l/m 9,3 km/h (2 Bft) W 269 2 min 0,000 mm 1,2 UV-I 346 W/m 17,8 C 19,5 C 16,1 km/h (3 Bft) 95,74 %
12.08.2019 08:44 20,6 C 23,9 C 22,2 C 84 % 1014,2 hPa 0,0 l/m 4,3 km/h (1 Bft) W-NW 297 0 min 0,000 mm 1,3 UV-I 139 W/m 17,8 C 20,6 C 11,3 km/h (2 Bft) 96,00 %
12.08.2019 08:46 20,7 C 23,9 C 22,2 C 83 % 1014,2 hPa 0,0 l/m 10,0 km/h (2 Bft) NW 312 0 min 0,000 mm 1,4 UV-I 196 W/m 17,7 C 19,4 C 17,7 km/h (3 Bft) 93,62 %
12.08.2019 08:48 20,7 C 23,9 C 22,2 C 83 % 1014,2 hPa 0,0 l/m 9,1 km/h (2 Bft) W 261 2 min 0,000 mm 1,3 UV-I 471 W/m 17,7 C 19,7 C 16,1 km/h (3 Bft) 95,74 %
12.08.2019 08:50 20,7 C 23,9 C 22,2 C 83 % 1014,2 hPa 0,0 l/m 7,4 km/h (2 Bft) W-SW 250 0 min 0,000 mm 1,2 UV-I 165 W/m 17,7 C 20,3 C 12,9 km/h (3 Bft) 91,84 %
12.08.2019 08:52 20,7 C 23,9 C 22,8 C 83 % 1014,2 hPa 0,0 l/m 3,8 km/h (1 Bft) W-SW 242 0 min 0,000 mm 1,3 UV-I 153 W/m 17,7 C 20,7 C 8,0 km/h (2 Bft) 96,00 %
12.08.2019 08:54 20,8 C 23,9 C 22,8 C 83 % 1014,2 hPa 0,0 l/m 8,6 km/h (2 Bft) W 263 0 min 0,000 mm 1,2 UV-I 173 W/m 17,8 C 20,0 C 17,7 km/h (3 Bft) 95,74 %
12.08.2019 08:56 20,8 C 23,9 C 22,8 C 83 % 1014,3 hPa 0,0 l/m 11,5 km/h (2 Bft) W 276 0 min 0,000 mm 1,1 UV-I 196 W/m 17,8 C 19,1 C 19,3 km/h (3 Bft) 94,74 %
12.08.2019 08:58 20,7 C 23,9 C 22,8 C 83 % 1014,2 hPa 0,0 l/m 8,6 km/h (2 Bft) W 279 0 min 0,000 mm 1,2 UV-I 209 W/m 17,7 C 19,9 C 12,9 km/h (3 Bft) 98,00 %
12.08.2019 09:00 20,7 C 23,9 C 22,8 C 83 % 1014,3 hPa 0,0 l/m 7,5 km/h (2 Bft) W-NW 296 0 min 0,152 mm 1,2 UV-I 194 W/m 17,7 C 20,3 C 17,7 km/h (3 Bft) 95,74 %
12.08.2019 09:02 20,7 C 23,9 C 23,3 C 82 % 1014,3 hPa 0,0 l/m 14,6 km/h (3 Bft) NW 306 0 min 0,000 mm 1,3 UV-I 233 W/m 17,5 C 18,2 C 24,1 km/h (4 Bft) 95,74 %
12.08.2019 09:04 20,7 C 23,9 C 23,3 C 82 % 1014,2 hPa 0,0 l/m 12,5 km/h (3 Bft) W-SW 257 2 min 0,000 mm 1,4 UV-I 283 W/m 17,5 C 18,7 C 20,9 km/h (4 Bft) 97,87 %
12.08.2019 09:06 20,8 C 23,9 C 23,3 C 81 % 1014,3 hPa 0,0 l/m 12,1 km/h (2 Bft) W-NW 288 0 min 0,000 mm 1,4 UV-I 213 W/m 17,4 C 18,9 C 19,3 km/h (3 Bft) 98,00 %
12.08.2019 09:08 20,9 C 23,9 C 23,9 C 81 % 1014,3 hPa 0,0 l/m 10,7 km/h (2 Bft) W-SW 248 0 min 0,000 mm 1,5 UV-I 266 W/m 17,5 C 19,4 C 16,1 km/h (3 Bft) 98,00 %
12.08.2019 09:10 21,1 C 23,9 C 24,4 C 81 % 1014,3 hPa 0,0 l/m 9,9 km/h (2 Bft) S-SW 196 0 min 0,000 mm 1,2 UV-I 259 W/m 17,7 C 19,9 C 14,5 km/h (3 Bft) 95,74 %
12.08.2019 09:12 21,1 C 23,9 C 23,9 C 80 % 1014,3 hPa 0,0 l/m 11,3 km/h (2 Bft) W-NW 302 0 min 0,000 mm 1,1 UV-I 212 W/m 17,5 C 19,5 C 17,7 km/h (3 Bft) 97,44 %
12.08.2019 09:14 21,1 C 23,9 C 23,9 C 80 % 1014,3 hPa 0,0 l/m 9,2 km/h (2 Bft) W-SW 257 0 min 0,000 mm 1,3 UV-I 200 W/m 17,5 C 20,1 C 16,1 km/h (3 Bft) 97,87 %
12.08.2019 09:16 21,1 C 23,9 C 23,9 C 80 % 1014,2 hPa 0,0 l/m 9,5 km/h (2 Bft) W 271 0 min 0,000 mm 1,7 UV-I 285 W/m 17,5 C 20,0 C 14,5 km/h (3 Bft) 98,00 %
12.08.2019 09:18 21,3 C 23,9 C 25,0 C 80 % 1014,2 hPa 0,0 l/m 9,9 km/h (2 Bft) N-NW 339 2 min 0,000 mm 1,9 UV-I 637 W/m 17,7 C 20,1 C 19,3 km/h (3 Bft) 97,87 %
12.08.2019 09:20 21,3 C 23,9 C 25,0 C 78 % 1014,2 hPa 0,0 l/m 11,9 km/h (2 Bft) SW 215 2 min 0,000 mm 1,6 UV-I 663 W/m 17,3 C 19,6 C 22,5 km/h (4 Bft) 97,87 %
12.08.2019 09:22 21,4 C 23,9 C 25,0 C 78 % 1014,3 hPa 0,0 l/m 13,9 km/h (3 Bft) W 259 2 min 0,000 mm 1,2 UV-I 415 W/m 17,4 C 19,2 C 20,9 km/h (4 Bft) 100,00 %
12.08.2019 09:24 21,4 C 23,9 C 24,4 C 78 % 1014,3 hPa 0,0 l/m 13,3 km/h (3 Bft) W 271 0 min 0,000 mm 0,9 UV-I 210 W/m 17,4 C 19,3 C 24,1 km/h (4 Bft) 100,00 %
12.08.2019 09:26 21,3 C 23,9 C 23,9 C 78 % 1014,3 hPa 0,0 l/m 14,7 km/h (3 Bft) W-SW 255 0 min 0,000 mm 0,9 UV-I 170 W/m 17,3 C 18,9 C 24,1 km/h (4 Bft) 100,00 %
12.08.2019 09:28 21,2 C 23,9 C 23,3 C 78 % 1014,3 hPa 0,0 l/m 16,1 km/h (3 Bft) W 265 0 min 0,000 mm 0,9 UV-I 151 W/m 17,2 C 18,5 C 22,5 km/h (4 Bft) 100,00 %
12.08.2019 09:30 21,1 C 23,9 C 23,3 C 78 % 1014,3 hPa 0,0 l/m 11,8 km/h (2 Bft) N 9 0 min 0,000 mm 1,1 UV-I 178 W/m 17,1 C 19,3 C 22,5 km/h (4 Bft) 100,00 %
12.08.2019 09:32 20,9 C 23,9 C 23,3 C 78 % 1014,3 hPa 0,0 l/m 7,8 km/h (2 Bft) W 281 0 min 0,000 mm 1,3 UV-I 212 W/m 16,9 C 20,4 C 12,9 km/h (3 Bft) 100,00 %
12.08.2019 09:34 20,9 C 23,9 C 23,3 C 79 % 1014,3 hPa 0,0 l/m 8,6 km/h (2 Bft) W 281 0 min 0,000 mm 1,1 UV-I 194 W/m 17,1 C 20,1 C 17,7 km/h (3 Bft) 95,74 %
12.08.2019 09:36 20,9 C 23,9 C 23,3 C 80 % 1014,3 hPa 0,0 l/m 3,2 km/h (1 Bft) W-SW 254 0 min 0,000 mm 0,9 UV-I 164 W/m 17,3 C 20,9 C 6,4 km/h (2 Bft) 95,74 %
12.08.2019 09:38 20,8 C 23,9 C 23,3 C 80 % 1014,3 hPa 0,0 l/m 5,7 km/h (1 Bft) NW 309 0 min 0,000 mm 0,7 UV-I 140 W/m 17,2 C 20,8 C 12,9 km/h (3 Bft) 100,00 %
12.08.2019 09:40 20,8 C 23,9 C 22,8 C 80 % 1014,3 hPa 0,0 l/m 9,7 km/h (2 Bft) W-NW 290 0 min 0,000 mm 0,8 UV-I 139 W/m 17,2 C 19,6 C 16,1 km/h (3 Bft) 100,00 %
12.08.2019 09:42 20,8 C 23,9 C 22,8 C 80 % 1014,3 hPa 0,0 l/m 8,8 km/h (2 Bft) NW 320 0 min 0,000 mm 0,8 UV-I 132 W/m 17,2 C 19,9 C 14,5 km/h (3 Bft) 97,44 %
12.08.2019 09:44 20,7 C 23,9 C 22,8 C 80 % 1014,3 hPa 0,0 l/m 9,6 km/h (2 Bft) N 350 0 min 0,000 mm 0,7 UV-I 111 W/m 17,1 C 19,5 C 16,1 km/h (3 Bft) 95,74 %
12.08.2019 09:46 20,5 C 23,9 C 22,2 C 81 % 1014,4 hPa 0,0 l/m 8,2 km/h (2 Bft) NW 304 0 min 0,000 mm 0,8 UV-I 124 W/m 17,1 C 19,8 C 14,5 km/h (3 Bft) 96,00 %
12.08.2019 09:48 20,3 C 23,9 C 22,2 C 81 % 1014,3 hPa 0,0 l/m 8,6 km/h (2 Bft) N-NW 327 0 min 0,000 mm 0,9 UV-I 159 W/m 16,9 C 19,4 C 14,5 km/h (3 Bft) 96,00 %
12.08.2019 09:50 20,2 C 23,9 C 22,8 C 82 % 1014,4 hPa 0,0 l/m 5,0 km/h (1 Bft) W-SW 254 0 min 0,000 mm 1,2 UV-I 213 W/m 17,0 C 20,2 C 12,9 km/h (3 Bft) 97,87 %
12.08.2019 09:52 20,2 C 23,9 C 22,8 C 83 % 1014,4 hPa 0,0 l/m 5,4 km/h (1 Bft) NW 309 0 min 0,000 mm 1,3 UV-I 230 W/m 17,2 C 20,2 C 12,9 km/h (3 Bft) 95,74 %
12.08.2019 09:54 20,2 C 23,9 C 23,3 C 83 % 1014,4 hPa 0,0 l/m 6,2 km/h (2 Bft) W-NW 285 0 min 0,000 mm 1,3 UV-I 220 W/m 17,2 C 20,2 C 11,3 km/h (2 Bft) 95,74 %
12.08.2019 09:56 20,2 C 23,9 C 23,3 C 83 % 1014,3 hPa 0,0 l/m 6,2 km/h (2 Bft) W-NW 297 0 min 0,000 mm 1,1 UV-I 204 W/m 17,2 C 20,2 C 14,5 km/h (3 Bft) 100,00 %
12.08.2019 09:58 20,2 C 23,9 C 23,3 C 83 % 1014,3 hPa 0,0 l/m 5,9 km/h (2 Bft) NW 306 0 min 0,000 mm 1,0 UV-I 193 W/m 17,2 C 20,2 C 9,7 km/h (2 Bft) 97,87 %
12.08.2019 10:00 20,2 C 23,9 C 23,3 C 83 % 1014,3 hPa 0,0 l/m 3,9 km/h (1 Bft) N-NW 339 0 min 0,000 mm 1,0 UV-I 180 W/m 17,2 C 20,2 C 6,4 km/h (2 Bft) 97,87 %
12.08.2019 10:02 20,3 C 23,9 C 23,3 C 84 % 1014,4 hPa 0,0 l/m 6,0 km/h (2 Bft) W 262 0 min 0,153 mm 1,0 UV-I 182 W/m 17,5 C 20,3 C 14,5 km/h (3 Bft) 98,00 %
12.08.2019 10:04 20,3 C 23,9 C 23,9 C 83 % 1014,4 hPa 0,0 l/m 5,2 km/h (1 Bft) W 269 0 min 0,000 mm 1,8 UV-I 257 W/m 17,3 C 20,3 C 11,3 km/h (2 Bft) 97,37 %
12.08.2019 10:06 20,2 C 23,9 C 24,4 C 83 % 1014,4 hPa 0,0 l/m 4,9 km/h (1 Bft) N 355 0 min 0,000 mm 2,1 UV-I 301 W/m 17,2 C 20,2 C 9,7 km/h (2 Bft) 95,74 %
12.08.2019 10:08 20,2 C 23,9 C 24,4 C 83 % 1014,5 hPa 0,0 l/m 5,2 km/h (1 Bft) NW 315 0 min 0,000 mm 1,9 UV-I 308 W/m 17,2 C 20,2 C 14,5 km/h (3 Bft) 93,62 %
12.08.2019 10:10 20,3 C 23,9 C 25,0 C 83 % 1014,4 hPa 0,0 l/m 6,2 km/h (2 Bft) W-SW 253 0 min 0,000 mm 1,7 UV-I 302 W/m 17,3 C 20,3 C 11,3 km/h (2 Bft) 95,74 %
12.08.2019 10:12 20,3 C 23,9 C 25,0 C 83 % 1014,4 hPa 0,0 l/m 7,3 km/h (2 Bft) W 269 0 min 0,000 mm 1,5 UV-I 273 W/m 17,3 C 19,9 C 12,9 km/h (3 Bft) 91,49 %
12.08.2019 10:14 20,2 C 23,9 C 25,6 C 83 % 1014,4 hPa 0,0 l/m 6,9 km/h (2 Bft) SW 236 0 min 0,000 mm 1,9 UV-I 354 W/m 17,2 C 20,0 C 12,9 km/h (3 Bft) 93,62 %
12.08.2019 10:16 20,3 C 23,9 C 26,1 C 84 % 1014,4 hPa 0,0 l/m 3,9 km/h (1 Bft) N-NW 348 2 min 0,000 mm 2,0 UV-I 414 W/m 17,5 C 20,3 C 11,3 km/h (2 Bft) 91,49 %
12.08.2019 10:18 20,4 C 23,9 C 26,1 C 84 % 1014,4 hPa 0,0 l/m 1,4 km/h (1 Bft) N 351 0 min 0,000 mm 1,8 UV-I 286 W/m 17,6 C 20,4 C 4,8 km/h (1 Bft) 95,74 %
12.08.2019 10:20 20,4 C 23,9 C 25,6 C 83 % 1014,4 hPa 0,0 l/m 2,2 km/h (1 Bft) N-NW 333 0 min 0,000 mm 1,4 UV-I 233 W/m 17,4 C 20,4 C 4,8 km/h (1 Bft) 97,92 %
12.08.2019 10:22 20,4 C 23,9 C 25,0 C 83 % 1014,4 hPa 0,0 l/m 1,7 km/h (1 Bft) N-NW 336 0 min 0,000 mm 1,2 UV-I 198 W/m 17,4 C 20,4 C 4,8 km/h (1 Bft) 97,87 %
12.08.2019 10:24 20,5 C 23,9 C 25,0 C 83 % 1014,4 hPa 0,0 l/m 2,9 km/h (1 Bft) W-SW 251 0 min 0,000 mm 1,1 UV-I 203 W/m 17,5 C 20,5 C 6,4 km/h (2 Bft) 96,00 %
12.08.2019 10:26 20,5 C 23,9 C 25,0 C 83 % 1014,5 hPa 0,0 l/m 4,5 km/h (1 Bft) NW 323 0 min 0,000 mm 1,4 UV-I 245 W/m 17,5 C 20,5 C 9,7 km/h (2 Bft) 97,87 %
12.08.2019 10:28 20,4 C 23,9 C 25,6 C 83 % 1014,3 hPa 0,0 l/m 2,2 km/h (1 Bft) W 265 0 min 0,000 mm 2,2 UV-I 359 W/m 17,4 C 20,4 C 6,4 km/h (2 Bft) 97,87 %
12.08.2019 10:30 20,4 C 23,9 C 26,7 C 83 % 1014,2 hPa 0,0 l/m 4,8 km/h (1 Bft) W 279 2 min 0,000 mm 2,5 UV-I 506 W/m 17,4 C 20,4 C 11,3 km/h (2 Bft) 98,00 %
12.08.2019 10:32 20,3 C 23,9 C 26,1 C 83 % 1014,3 hPa 0,0 l/m 9,1 km/h (2 Bft) W 272 2 min 0,000 mm 2,5 UV-I 473 W/m 17,3 C 19,3 C 12,9 km/h (3 Bft) 97,87 %
12.08.2019 10:34 20,3 C 23,9 C 26,1 C 84 % 1014,4 hPa 0,0 l/m 6,0 km/h (2 Bft) N-NW 332 0 min 0,000 mm 2,3 UV-I 353 W/m 17,5 C 20,3 C 9,7 km/h (2 Bft) 97,87 %
12.08.2019 10:36 20,5 C 23,9 C 26,1 C 83 % 1014,4 hPa 0,0 l/m 6,2 km/h (2 Bft) NW 320 0 min 0,000 mm 2,3 UV-I 348 W/m 17,5 C 20,5 C 12,9 km/h (3 Bft) 100,00 %
12.08.2019 10:38 20,4 C 23,9 C 26,1 C 82 % 1014,4 hPa 0,0 l/m 6,0 km/h (2 Bft) W 278 0 min 0,000 mm 2,2 UV-I 345 W/m 17,2 C 20,4 C 11,3 km/h (2 Bft) 100,00 %
12.08.2019 10:40 20,4 C 23,9 C 26,1 C 83 % 1014,4 hPa 0,0 l/m 3,9 km/h (1 Bft) W 270 0 min 0,000 mm 2,3 UV-I 347 W/m 17,4 C 20,4 C 11,3 km/h (2 Bft) 98,00 %
12.08.2019 10:42 20,6 C 23,9 C 26,7 C 83 % 1014,4 hPa 0,0 l/m 4,8 km/h (1 Bft) SW 223 0 min 0,000 mm 2,2 UV-I 343 W/m 17,6 C 20,6 C 9,7 km/h (2 Bft) 100,00 %
12.08.2019 10:44 20,7 C 23,9 C 26,7 C 81 % 1014,4 hPa 0,0 l/m 4,8 km/h (1 Bft) W 259 0 min 0,000 mm 2,2 UV-I 334 W/m 17,3 C 20,7 C 11,3 km/h (2 Bft) 100,00 %
12.08.2019 10:46 20,8 C 23,9 C 26,7 C 81 % 1014,4 hPa 0,0 l/m 4,9 km/h (1 Bft) W-SW 257 0 min 0,000 mm 2,2 UV-I 328 W/m 17,4 C 20,8 C 11,3 km/h (2 Bft) 100,00 %
12.08.2019 10:48 20,7 C 23,9 C 26,1 C 80 % 1014,4 hPa 0,0 l/m 4,9 km/h (1 Bft) W-SW 246 0 min 0,000 mm 2,1 UV-I 321 W/m 17,1 C 20,7 C 8,0 km/h (2 Bft) 100,00 %
12.08.2019 10:50 20,7 C 23,9 C 26,1 C 81 % 1014,4 hPa 0,0 l/m 5,5 km/h (1 Bft) NW 324 0 min 0,000 mm 2,1 UV-I 322 W/m 17,3 C 20,7 C 9,7 km/h (2 Bft) 100,00 %
12.08.2019 10:52 20,7 C 23,9 C 26,1 C 81 % 1014,4 hPa 0,0 l/m 3,1 km/h (1 Bft) W 277 0 min 0,000 mm 2,1 UV-I 324 W/m 17,3 C 20,7 C 6,4 km/h (2 Bft) 100,00 %
12.08.2019 10:54 20,7 C 23,9 C 26,1 C 81 % 1014,5 hPa 0,0 l/m 4,9 km/h (1 Bft) W-SW 242 0 min 0,000 mm 2,2 UV-I 330 W/m 17,3 C 20,7 C 8,0 km/h (2 Bft) 100,00 %
12.08.2019 10:56 20,6 C 23,9 C 26,1 C 80 % 1014,5 hPa 0,0 l/m 7,0 km/h (2 Bft) W 262 0 min 0,000 mm 2,2 UV-I 327 W/m 17,0 C 20,4 C 12,9 km/h (3 Bft) 100,00 %
12.08.2019 10:58 20,6 C 23,9 C 26,1 C 80 % 1014,4 hPa 0,0 l/m 5,1 km/h (1 Bft) W 271 0 min 0,000 mm 2,2 UV-I 324 W/m 17,0 C 20,6 C 8,0 km/h (2 Bft) 100,00 %
12.08.2019 11:00 20,7 C 23,9 C 26,1 C 81 % 1014,5 hPa 0,0 l/m 5,8 km/h (2 Bft) W-SW 258 0 min 0,203 mm 2,2 UV-I 319 W/m 17,3 C 20,7 C 11,3 km/h (2 Bft) 100,00 %
12.08.2019 11:02 20,8 C 23,9 C 26,7 C 79 % 1014,4 hPa 0,0 l/m 5,0 km/h (1 Bft) S-SW 207 0 min 0,000 mm 2,2 UV-I 317 W/m 17,0 C 20,8 C 9,7 km/h (2 Bft) 100,00 %
12.08.2019 11:04 20,7 C 23,9 C 26,7 C 79 % 1014,4 hPa 0,0 l/m 6,8 km/h (2 Bft) S-SW 197 0 min 0,000 mm 2,2 UV-I 320 W/m 16,9 C 20,5 C 14,5 km/h (3 Bft) 100,00 %
12.08.2019 11:06 20,8 C 23,9 C 26,7 C 80 % 1014,4 hPa 0,0 l/m 7,4 km/h (2 Bft) W 268 0 min 0,000 mm 2,2 UV-I 328 W/m 17,2 C 20,4 C 12,9 km/h (3 Bft) 100,00 %
12.08.2019 11:08 20,9 C 23,9 C 26,7 C 80 % 1014,4 hPa 0,0 l/m 5,7 km/h (1 Bft) W-SW 238 0 min 0,000 mm 2,2 UV-I 312 W/m 17,3 C 20,9 C 11,3 km/h (2 Bft) 100,00 %
12.08.2019 11:10 21,0 C 23,9 C 26,7 C 79 % 1014,4 hPa 0,0 l/m 7,6 km/h (2 Bft) W 267 0 min 0,000 mm 2,2 UV-I 316 W/m 17,2 C 20,5 C 12,9 km/h (3 Bft) 95,74 %
12.08.2019 11:12 21,0 C 23,9 C 26,7 C 78 % 1014,4 hPa 0,0 l/m 5,5 km/h (1 Bft) W-SW 246 0 min 0,000 mm 2,3 UV-I 327 W/m 17,0 C 21,0 C 9,7 km/h (2 Bft) 97,87 %
12.08.2019 11:14 20,9 C 23,9 C 26,7 C 78 % 1014,3 hPa 0,0 l/m 3,0 km/h (1 Bft) W-SW 246 0 min 0,000 mm 2,4 UV-I 342 W/m 16,9 C 20,9 C 4,8 km/h (1 Bft) 97,87 %
12.08.2019 11:16 20,9 C 23,9 C 27,2 C 79 % 1014,3 hPa 0,0 l/m 3,2 km/h (1 Bft) W-SW 246 0 min 0,000 mm 2,6 UV-I 368 W/m 17,1 C 20,9 C 4,8 km/h (1 Bft) 100,00 %
12.08.2019 11:18 21,0 C 23,9 C 27,2 C 79 % 1014,2 hPa 0,0 l/m 5,9 km/h (2 Bft) W-SW 238 0 min 0,000 mm 2,7 UV-I 378 W/m 17,2 C 21,0 C 8,0 km/h (2 Bft) 97,87 %
12.08.2019 11:20 21,1 C 23,9 C 27,2 C 78 % 1014,2 hPa 0,0 l/m 4,0 km/h (1 Bft) W 265 0 min 0,000 mm 2,6 UV-I 368 W/m 17,1 C 21,1 C 6,4 km/h (2 Bft) 97,87 %
12.08.2019 11:22 21,1 C 23,9 C 27,2 C 78 % 1014,2 hPa 0,0 l/m 1,7 km/h (1 Bft) W 265 0 min 0,000 mm 2,5 UV-I 341 W/m 17,1 C 21,1 C 3,2 km/h (1 Bft) 100,00 %
12.08.2019 11:24 21,2 C 23,9 C 26,7 C 79 % 1014,3 hPa 0,0 l/m 3,8 km/h (1 Bft) W-SW 244 0 min 0,000 mm 2,3 UV-I 314 W/m 17,4 C 21,2 C 6,4 km/h (2 Bft) 100,00 %
12.08.2019 11:26 21,2 C 23,9 C 26,7 C 78 % 1014,3 hPa 0,0 l/m 4,3 km/h (1 Bft) SW 236 0 min 0,000 mm 2,2 UV-I 297 W/m 17,2 C 21,2 C 8,0 km/h (2 Bft) 100,00 %
12.08.2019 11:28 21,2 C 23,9 C 26,7 C 78 % 1014,4 hPa 0,0 l/m 4,4 km/h (1 Bft) W-SW 249 0 min 0,000 mm 2,1 UV-I 293 W/m 17,2 C 21,2 C 6,4 km/h (2 Bft) 97,37 %
12.08.2019 11:30 21,1 C 23,9 C 26,1 C 78 % 1014,4 hPa 0,0 l/m 2,4 km/h (1 Bft) W-SW 253 0 min 0,000 mm 2,2 UV-I 299 W/m 17,1 C 21,1 C 4,8 km/h (1 Bft) 100,00 %
12.08.2019 11:32 21,1 C 23,9 C 26,1 C 78 % 1014,4 hPa 0,0 l/m 3,4 km/h (1 Bft) W-SW 247 0 min 0,000 mm 2,2 UV-I 293 W/m 17,1 C 21,1 C 6,4 km/h (2 Bft) 97,87 %
12.08.2019 11:34 21,2 C 23,9 C 26,1 C 78 % 1014,5 hPa 0,0 l/m 6,5 km/h (2 Bft) W-SW 241 0 min 0,000 mm 2,0 UV-I 276 W/m 17,2 C 21,2 C 9,7 km/h (2 Bft) 100,00 %
12.08.2019 11:36 21,2 C 23,9 C 25,6 C 78 % 1014,6 hPa 0,0 l/m 5,9 km/h (2 Bft) SW 219 0 min 0,000 mm 1,9 UV-I 264 W/m 17,2 C 21,2 C 9,7 km/h (2 Bft) 91,49 %
12.08.2019 11:38 21,3 C 23,9 C 25,6 C 77 % 1014,5 hPa 0,0 l/m 7,0 km/h (2 Bft) W-NW 288 0 min 0,000 mm 1,9 UV-I 261 W/m 17,1 C 21,1 C 11,3 km/h (2 Bft) 97,92 %
12.08.2019 11:40 21,3 C 23,9 C 25,6 C 77 % 1014,5 hPa 0,0 l/m 6,7 km/h (2 Bft) W-SW 241 0 min 0,000 mm 2,0 UV-I 270 W/m 17,1 C 21,2 C 11,3 km/h (2 Bft) 95,74 %
12.08.2019 11:42 21,3 C 23,9 C 25,6 C 77 % 1014,5 hPa 0,0 l/m 8,2 km/h (2 Bft) W 272 0 min 0,000 mm 2,1 UV-I 277 W/m 17,1 C 20,6 C 14,5 km/h (3 Bft) 97,87 %
12.08.2019 11:44 21,3 C 23,9 C 25,6 C 76 % 1014,4 hPa 0,0 l/m 11,6 km/h (2 Bft) W-SW 252 0 min 0,000 mm 2,3 UV-I 303 W/m 16,9 C 19,6 C 16,1 km/h (3 Bft) 97,87 %
12.08.2019 11:46 21,3 C 23,9 C 25,6 C 77 % 1014,3 hPa 0,0 l/m 10,2 km/h (2 Bft) W 261 0 min 0,000 mm 2,5 UV-I 334 W/m 17,1 C 20,0 C 14,5 km/h (3 Bft) 95,74 %
12.08.2019 11:48 21,4 C 24,4 C 26,1 C 77 % 1014,3 hPa 0,0 l/m 6,8 km/h (2 Bft) W-SW 250 0 min 0,000 mm 2,7 UV-I 351 W/m 17,2 C 21,3 C 11,3 km/h (2 Bft) 95,74 %
12.08.2019 11:50 21,4 C 24,4 C 26,7 C 77 % 1014,3 hPa 0,0 l/m 4,8 km/h (1 Bft) W-SW 254 0 min 0,000 mm 2,7 UV-I 345 W/m 17,2 C 21,4 C 9,7 km/h (2 Bft) 94,00 %
12.08.2019 11:52 21,6 C 24,4 C 26,7 C 76 % 1014,3 hPa 0,0 l/m 6,4 km/h (2 Bft) W 259 0 min 0,000 mm 2,5 UV-I 325 W/m 17,2 C 21,6 C 12,9 km/h (3 Bft) 95,74 %
12.08.2019 11:54 21,7 C 23,9 C 26,7 C 77 % 1014,4 hPa 0,0 l/m 8,2 km/h (2 Bft) SW 230 0 min 0,000 mm 2,3 UV-I 306 W/m 17,5 C 21,1 C 12,9 km/h (3 Bft) 95,74 %
12.08.2019 11:56 21,7 C 24,4 C 26,1 C 75 % 1014,3 hPa 0,0 l/m 9,5 km/h (2 Bft) W 271 0 min 0,000 mm 2,3 UV-I 304 W/m 17,1 C 20,7 C 14,5 km/h (3 Bft) 93,62 %
12.08.2019 11:58 21,7 C 24,4 C 26,1 C 75 % 1014,3 hPa 0,0 l/m 6,6 km/h (2 Bft) W-SW 237 0 min 0,000 mm 2,4 UV-I 315 W/m 17,1 C 21,6 C 11,3 km/h (2 Bft) 95,74 %
12.08.2019 12:00 21,7 C 24,4 C 26,7 C 75 % 1014,2 hPa 0,0 l/m 6,5 km/h (2 Bft) NW 309 0 min 0,203 mm 2,6 UV-I 328 W/m 17,1 C 21,7 C 11,3 km/h (2 Bft) 92,11 %
12.08.2019 12:02 21,7 C 24,4 C 26,7 C 75 % 1014,2 hPa 0,0 l/m 3,7 km/h (1 Bft) W-NW 292 0 min 0,000 mm 2,6 UV-I 327 W/m 17,1 C 21,7 C 6,4 km/h (2 Bft) 94,00 %
12.08.2019 12:04 21,7 C 24,4 C 26,7 C 75 % 1014,2 hPa 0,0 l/m 5,7 km/h (1 Bft) W 262 0 min 0,000 mm 2,5 UV-I 321 W/m 17,1 C 21,7 C 9,7 km/h (2 Bft) 96,00 %
12.08.2019 12:06 21,8 C 24,4 C 26,7 C 75 % 1014,1 hPa 0,0 l/m 5,9 km/h (2 Bft) SW 232 0 min 0,000 mm 2,5 UV-I 323 W/m 17,2 C 21,8 C 11,3 km/h (2 Bft) 93,62 %
12.08.2019 12:08 21,9 C 23,9 C 27,2 C 74 % 1014,1 hPa 0,0 l/m 12,3 km/h (3 Bft) SW 228 0 min 0,000 mm 2,6 UV-I 341 W/m 17,0 C 20,1 C 16,1 km/h (3 Bft) 97,87 %
12.08.2019 12:10 21,9 C 23,9 C 26,7 C 74 % 1014,1 hPa 0,0 l/m 9,4 km/h (2 Bft) W 261 0 min 0,000 mm 2,8 UV-I 370 W/m 17,0 C 20,9 C 16,1 km/h (3 Bft) 95,74 %
12.08.2019 12:12 22,0 C 24,4 C 27,2 C 75 % 1014,0 hPa 0,0 l/m 9,7 km/h (2 Bft) W 277 0 min 0,000 mm 2,9 UV-I 385 W/m 17,4 C 20,9 C 12,9 km/h (3 Bft) 93,62 %
12.08.2019 12:14 22,0 C 24,4 C 27,2 C 74 % 1014,0 hPa 0,0 l/m 5,6 km/h (1 Bft) W 274 0 min 0,000 mm 3,0 UV-I 391 W/m 17,1 C 22,0 C 11,3 km/h (2 Bft) 95,74 %
12.08.2019 12:16 22,2 C 23,9 C 27,8 C 74 % 1014,0 hPa 0,0 l/m 7,9 km/h (2 Bft) W-SW 242 0 min 0,000 mm 3,1 UV-I 405 W/m 17,3 C 21,7 C 12,9 km/h (3 Bft) 95,74 %
12.08.2019 12:18 22,2 C 23,9 C 27,8 C 74 % 1014,0 hPa 0,0 l/m 5,2 km/h (1 Bft) SW 231 0 min 0,000 mm 2,9 UV-I 380 W/m 17,3 C 22,2 C 9,7 km/h (2 Bft) 97,92 %
12.08.2019 12:20 22,2 C 23,9 C 27,2 C 74 % 1014,0 hPa 0,0 l/m 6,2 km/h (2 Bft) SW 234 0 min 0,000 mm 2,5 UV-I 343 W/m 17,3 C 22,2 C 14,5 km/h (3 Bft) 93,62 %
12.08.2019 12:22 22,3 C 23,9 C 27,2 C 73 % 1014,0 hPa 0,0 l/m 7,6 km/h (2 Bft) SW 223 0 min 0,000 mm 2,3 UV-I 296 W/m 17,2 C 21,9 C 11,3 km/h (2 Bft) 97,37 %
12.08.2019 12:24 22,3 C 23,9 C 27,2 C 73 % 1014,0 hPa 0,0 l/m 8,9 km/h (2 Bft) W-SW 245 0 min 0,000 mm 2,2 UV-I 294 W/m 17,2 C 21,5 C 12,9 km/h (3 Bft) 98,00 %
12.08.2019 12:26 22,3 C 23,9 C 27,2 C 72 % 1013,9 hPa 0,0 l/m 9,2 km/h (2 Bft) W-SW 244 0 min 0,000 mm 2,5 UV-I 340 W/m 17,0 C 21,4 C 19,3 km/h (3 Bft) 95,74 %
12.08.2019 12:28 22,3 C 24,4 C 27,8 C 73 % 1013,9 hPa 0,0 l/m 8,1 km/h (2 Bft) SW 223 0 min 0,000 mm 3,0 UV-I 409 W/m 17,2 C 21,7 C 14,5 km/h (3 Bft) 98,00 %
12.08.2019 12:30 22,4 C 24,4 C 28,3 C 72 % 1013,8 hPa 0,0 l/m 5,7 km/h (1 Bft) W-SW 254 0 min 0,000 mm 3,0 UV-I 398 W/m 17,1 C 22,4 C 9,7 km/h (2 Bft) 95,74 %
12.08.2019 12:32 22,4 C 24,4 C 28,3 C 72 % 1013,9 hPa 0,0 l/m 4,0 km/h (1 Bft) W-SW 237 0 min 0,000 mm 2,6 UV-I 337 W/m 17,1 C 22,4 C 8,0 km/h (2 Bft) 94,00 %
12.08.2019 12:34 22,4 C 24,4 C 27,8 C 72 % 1013,9 hPa 0,0 l/m 8,2 km/h (2 Bft) W-SW 239 0 min 0,000 mm 2,0 UV-I 260 W/m 17,1 C 21,8 C 12,9 km/h (3 Bft) 97,87 %
12.08.2019 12:36 22,3 C 24,4 C 27,2 C 72 % 1013,9 hPa 0,0 l/m 8,9 km/h (2 Bft) W-SW 247 0 min 0,000 mm 2,0 UV-I 262 W/m 17,0 C 21,5 C 12,9 km/h (3 Bft) 97,73 %
12.08.2019 12:38 22,2 C 24,4 C 26,7 C 71 % 1013,8 hPa 0,0 l/m 4,9 km/h (1 Bft) W-SW 239 0 min 0,000 mm 2,4 UV-I 306 W/m 16,7 C 22,2 C 8,0 km/h (2 Bft) 97,87 %
12.08.2019 12:40 22,2 C 24,4 C 26,7 C 72 % 1013,7 hPa 0,0 l/m 4,2 km/h (1 Bft) W-SW 248 0 min 0,000 mm 2,1 UV-I 249 W/m 16,9 C 22,2 C 6,4 km/h (2 Bft) 97,87 %
12.08.2019 12:42 22,2 C 24,4 C 26,7 C 73 % 1013,7 hPa 0,0 l/m 3,6 km/h (1 Bft) W-SW 242 0 min 0,000 mm 1,8 UV-I 227 W/m 17,1 C 22,2 C 8,0 km/h (2 Bft) 97,87 %
12.08.2019 12:44 22,2 C 24,4 C 26,1 C 72 % 1013,7 hPa 0,0 l/m 9,4 km/h (2 Bft) W-NW 286 0 min 0,000 mm 2,0 UV-I 258 W/m 16,9 C 21,2 C 12,9 km/h (3 Bft) 98,00 %
12.08.2019 12:46 22,2 C 24,4 C 26,1 C 72 % 1013,7 hPa 0,0 l/m 6,9 km/h (2 Bft) W-SW 246 0 min 0,000 mm 1,9 UV-I 251 W/m 16,9 C 22,0 C 12,9 km/h (3 Bft) 97,14 %
12.08.2019 12:48 22,2 C 24,4 C 26,1 C 72 % 1013,7 hPa 0,0 l/m 5,9 km/h (2 Bft) W 273 0 min 0,000 mm 2,1 UV-I 276 W/m 16,9 C 22,2 C 9,7 km/h (2 Bft) 95,74 %
12.08.2019 12:50 22,3 C 24,4 C 26,1 C 73 % 1013,7 hPa 0,0 l/m 8,0 km/h (2 Bft) S-SW 209 0 min 0,000 mm 1,9 UV-I 240 W/m 17,2 C 21,8 C 12,9 km/h (3 Bft) 96,23 %
12.08.2019 12:52 22,3 C 24,4 C 26,1 C 72 % 1013,9 hPa 0,0 l/m 10,5 km/h (2 Bft) SW 225 0 min 0,000 mm 1,7 UV-I 212 W/m 17,0 C 21,0 C 16,1 km/h (3 Bft) 96,00 %
12.08.2019 12:54 22,2 C 24,4 C 25,6 C 72 % 1013,7 hPa 0,0 l/m 10,7 km/h (2 Bft) SW 225 0 min 0,000 mm 1,8 UV-I 218 W/m 16,9 C 20,9 C 16,1 km/h (3 Bft) 93,62 %
12.08.2019 12:56 22,2 C 24,4 C 25,6 C 72 % 1013,6 hPa 0,0 l/m 8,4 km/h (2 Bft) W-SW 256 0 min 0,000 mm 2,0 UV-I 231 W/m 16,9 C 21,5 C 12,9 km/h (3 Bft) 95,74 %
12.08.2019 12:58 22,2 C 24,4 C 25,6 C 72 % 1013,5 hPa 0,0 l/m 5,4 km/h (1 Bft) W 278 0 min 0,000 mm 2,2 UV-I 270 W/m 16,9 C 22,2 C 8,0 km/h (2 Bft) 97,92 %
12.08.2019 13:00 22,2 C 24,4 C 25,6 C 73 % 1013,6 hPa 0,0 l/m 6,2 km/h (2 Bft) SW 232 0 min 0,000 mm 1,9 UV-I 228 W/m 17,1 C 22,2 C 12,9 km/h (3 Bft) 97,87 %
12.08.2019 13:02 22,2 C 24,4 C 25,6 C 72 % 1013,7 hPa 0,0 l/m 9,6 km/h (2 Bft) W 259 0 min 0,203 mm 1,8 UV-I 219 W/m 16,9 C 21,2 C 19,3 km/h (3 Bft) 95,74 %
12.08.2019 13:04 22,3 C 24,4 C 25,6 C 72 % 1013,6 hPa 0,0 l/m 8,6 km/h (2 Bft) S-SW 213 0 min 0,000 mm 1,9 UV-I 251 W/m 17,0 C 21,6 C 14,5 km/h (3 Bft) 97,37 %
12.08.2019 13:06 22,3 C 24,4 C 25,6 C 73 % 1013,6 hPa 0,0 l/m 10,8 km/h (2 Bft) W-SW 241 0 min 0,000 mm 2,1 UV-I 283 W/m 17,2 C 21,0 C 19,3 km/h (3 Bft) 95,74 %
12.08.2019 13:08 22,3 C 24,4 C 26,1 C 72 % 1013,6 hPa 0,0 l/m 11,5 km/h (2 Bft) W 262 0 min 0,000 mm 2,3 UV-I 309 W/m 17,0 C 20,8 C 17,7 km/h (3 Bft) 98,00 %
12.08.2019 13:10 22,2 C 24,4 C 26,1 C 72 % 1013,6 hPa 0,0 l/m 10,4 km/h (2 Bft) W-SW 253 0 min 0,000 mm 2,2 UV-I 284 W/m 16,9 C 21,0 C 16,1 km/h (3 Bft) 95,74 %
12.08.2019 13:12 22,2 C 24,4 C 26,1 C 73 % 1013,6 hPa 0,0 l/m 6,7 km/h (2 Bft) S-SW 200 0 min 0,000 mm 2,0 UV-I 253 W/m 17,1 C 22,1 C 14,5 km/h (3 Bft) 95,74 %
12.08.2019 13:14 22,1 C 24,4 C 25,6 C 73 % 1013,5 hPa 0,0 l/m 10,3 km/h (2 Bft) SW 214 0 min 0,000 mm 2,0 UV-I 243 W/m 17,0 C 20,9 C 16,1 km/h (3 Bft) 95,74 %
12.08.2019 13:16 22,0 C 24,4 C 25,6 C 73 % 1013,5 hPa 0,0 l/m 6,2 km/h (2 Bft) S-SW 207 0 min 0,000 mm 1,9 UV-I 221 W/m 16,9 C 22,0 C 12,9 km/h (3 Bft) 95,74 %
12.08.2019 13:18 21,9 C 24,4 C 25,6 C 73 % 1013,5 hPa 0,0 l/m 11,2 km/h (2 Bft) S-SW 206 0 min 0,000 mm 1,8 UV-I 212 W/m 16,8 C 20,4 C 16,1 km/h (3 Bft) 91,49 %
12.08.2019 13:20 21,8 C 24,4 C 25,6 C 73 % 1013,5 hPa 0,0 l/m 8,4 km/h (2 Bft) SW 234 0 min 0,000 mm 1,7 UV-I 197 W/m 16,7 C 21,1 C 11,3 km/h (2 Bft) 98,00 %
12.08.2019 13:22 21,9 C 24,4 C 25,6 C 74 % 1013,4 hPa 0,0 l/m 8,0 km/h (2 Bft) SW 230 0 min 0,000 mm 2,0 UV-I 240 W/m 17,0 C 21,3 C 12,9 km/h (3 Bft) 97,87 %
12.08.2019 13:24 21,9 C 24,4 C 25,6 C 74 % 1013,4 hPa 0,0 l/m 7,8 km/h (2 Bft) W-SW 245 0 min 0,000 mm 2,1 UV-I 269 W/m 17,0 C 21,4 C 12,9 km/h (3 Bft) 97,87 %
12.08.2019 13:26 21,9 C 24,4 C 25,6 C 74 % 1013,4 hPa 0,0 l/m 10,0 km/h (2 Bft) W-SW 245 0 min 0,000 mm 2,2 UV-I 296 W/m 17,0 C 20,7 C 14,5 km/h (3 Bft) 97,37 %
12.08.2019 13:28 21,9 C 24,4 C 26,1 C 72 % 1013,3 hPa 0,0 l/m 11,9 km/h (2 Bft) W-SW 238 0 min 0,000 mm 2,2 UV-I 290 W/m 16,6 C 20,2 C 17,7 km/h (3 Bft) 95,83 %
12.08.2019 13:30 21,9 C 24,4 C 25,6 C 73 % 1013,4 hPa 0,0 l/m 12,8 km/h (3 Bft) SW 227 0 min 0,000 mm 2,3 UV-I 300 W/m 16,8 C 20,0 C 16,1 km/h (3 Bft) 97,87 %
12.08.2019 13:32 21,9 C 24,4 C 25,6 C 72 % 1013,3 hPa 0,0 l/m 11,6 km/h (2 Bft) SW 223 0 min 0,000 mm 2,2 UV-I 287 W/m 16,6 C 20,3 C 17,7 km/h (3 Bft) 95,74 %
12.08.2019 13:34 21,9 C 24,4 C 25,6 C 73 % 1013,2 hPa 0,0 l/m 8,4 km/h (2 Bft) S-SW 203 0 min 0,000 mm 2,1 UV-I 266 W/m 16,8 C 21,2 C 14,5 km/h (3 Bft) 95,74 %
12.08.2019 13:36 22,0 C 24,4 C 26,1 C 73 % 1013,2 hPa 0,0 l/m 9,0 km/h (2 Bft) S-SW 213 0 min 0,000 mm 2,1 UV-I 276 W/m 16,9 C 21,1 C 11,3 km/h (2 Bft) 100,00 %
12.08.2019 13:38 22,0 C 24,4 C 25,6 C 73 % 1013,2 hPa 0,0 l/m 8,0 km/h (2 Bft) W-SW 239 0 min 0,000 mm 2,0 UV-I 248 W/m 16,9 C 21,5 C 16,1 km/h (3 Bft) 98,00 %
12.08.2019 13:40 22,1 C 24,4 C 25,6 C 73 % 1013,2 hPa 0,0 l/m 9,8 km/h (2 Bft) W-SW 239 0 min 0,000 mm 1,8 UV-I 218 W/m 17,0 C 21,0 C 14,5 km/h (3 Bft) 100,00 %
12.08.2019 13:42 22,1 C 24,4 C 25,0 C 73 % 1013,1 hPa 0,0 l/m 9,1 km/h (2 Bft) SW 234 0 min 0,000 mm 1,8 UV-I 220 W/m 17,0 C 21,2 C 14,5 km/h (3 Bft) 100,00 %
12.08.2019 13:44 22,0 C 24,4 C 25,0 C 73 % 1013,1 hPa 0,0 l/m 7,6 km/h (2 Bft) SW 226 0 min 0,000 mm 1,9 UV-I 236 W/m 16,9 C 21,6 C 12,9 km/h (3 Bft) 96,00 %
12.08.2019 13:46 22,0 C 24,4 C 25,0 C 73 % 1013,0 hPa 0,0 l/m 7,6 km/h (2 Bft) S-SW 200 0 min 0,000 mm 1,9 UV-I 243 W/m 16,9 C 21,6 C 11,3 km/h (2 Bft) 98,00 %
12.08.2019 13:48 22,1 C 24,4 C 25,0 C 73 % 1013,1 hPa 0,0 l/m 9,4 km/h (2 Bft) SW 234 0 min 0,000 mm 1,6 UV-I 210 W/m 17,0 C 21,1 C 17,7 km/h (3 Bft) 95,74 %
12.08.2019 13:50 22,0 C 24,4 C 25,0 C 72 % 1013,1 hPa 0,0 l/m 10,5 km/h (2 Bft) W-SW 250 0 min 0,000 mm 1,6 UV-I 205 W/m 16,7 C 20,7 C 16,1 km/h (3 Bft) 97,37 %
12.08.2019 13:52 22,0 C 24,4 C 25,0 C 73 % 1013,1 hPa 0,0 l/m 8,7 km/h (2 Bft) S-SW 211 0 min 0,000 mm 1,7 UV-I 229 W/m 16,9 C 21,2 C 12,9 km/h (3 Bft) 95,74 %
12.08.2019 13:54 22,0 C 24,4 C 25,0 C 72 % 1013,0 hPa 0,0 l/m 9,5 km/h (2 Bft) SW 216 0 min 0,000 mm 2,0 UV-I 285 W/m 16,7 C 21,0 C 16,1 km/h (3 Bft) 95,74 %
12.08.2019 13:56 22,0 C 24,4 C 25,6 C 72 % 1013,0 hPa 0,0 l/m 10,3 km/h (2 Bft) S 188 0 min 0,000 mm 2,1 UV-I 288 W/m 16,7 C 20,8 C 14,5 km/h (3 Bft) 97,87 %
12.08.2019 13:58 22,1 C 24,4 C 25,6 C 73 % 1013,1 hPa 0,0 l/m 11,4 km/h (2 Bft) SW 236 0 min 0,000 mm 1,7 UV-I 225 W/m 17,0 C 20,6 C 17,7 km/h (3 Bft) 97,87 %
12.08.2019 14:00 22,0 C 24,4 C 25,0 C 73 % 1013,1 hPa 0,0 l/m 11,2 km/h (2 Bft) SW 234 0 min 0,178 mm 1,3 UV-I 159 W/m 16,9 C 20,5 C 17,7 km/h (3 Bft) 96,00 %
12.08.2019 14:02 21,9 C 24,4 C 24,4 C 72 % 1013,2 hPa 0,0 l/m 11,0 km/h (2 Bft) W-SW 257 0 min 0,000 mm 1,2 UV-I 146 W/m 16,6 C 20,5 C 16,1 km/h (3 Bft) 97,87 %
12.08.2019 14:04 21,9 C 24,4 C 24,4 C 73 % 1013,1 hPa 0,0 l/m 7,0 km/h (2 Bft) W-SW 244 0 min 0,000 mm 1,2 UV-I 156 W/m 16,8 C 21,7 C 12,9 km/h (3 Bft) 96,00 %
12.08.2019 14:06 21,9 C 24,4 C 23,9 C 73 % 1013,0 hPa 0,0 l/m 9,7 km/h (2 Bft) W 273 0 min 0,000 mm 1,3 UV-I 172 W/m 16,8 C 20,8 C 14,5 km/h (3 Bft) 97,87 %
12.08.2019 14:08 21,9 C 24,4 C 23,9 C 72 % 1013,0 hPa 0,0 l/m 7,9 km/h (2 Bft) SW 231 0 min 0,000 mm 1,3 UV-I 189 W/m 16,6 C 21,4 C 11,3 km/h (2 Bft) 96,00 %
12.08.2019 14:10 21,9 C 24,4 C 24,4 C 73 % 1013,0 hPa 0,0 l/m 8,0 km/h (2 Bft) SW 221 0 min 0,000 mm 1,4 UV-I 202 W/m 16,8 C 21,3 C 12,9 km/h (3 Bft) 97,22 %
12.08.2019 14:12 21,9 C 24,4 C 24,4 C 72 % 1013,0 hPa 0,0 l/m 6,8 km/h (2 Bft) W-SW 240 0 min 0,000 mm 1,4 UV-I 200 W/m 16,6 C 21,8 C 9,7 km/h (2 Bft) 96,08 %
12.08.2019 14:14 22,0 C 24,4 C 25,0 C 73 % 1013,0 hPa 0,0 l/m 6,9 km/h (2 Bft) S-SW 194 0 min 0,000 mm 1,5 UV-I 219 W/m 16,9 C 21,8 C 11,3 km/h (2 Bft) 93,62 %
12.08.2019 14:16 22,1 C 24,4 C 25,0 C 72 % 1013,0 hPa 0,0 l/m 6,4 km/h (2 Bft) W-SW 242 0 min 0,000 mm 1,5 UV-I 208 W/m 16,8 C 22,1 C 11,3 km/h (2 Bft) 95,74 %
12.08.2019 14:18 22,1 C 24,4 C 25,0 C 73 % 1013,1 hPa 0,0 l/m 6,9 km/h (2 Bft) W 269 0 min 0,000 mm 1,3 UV-I 179 W/m 17,0 C 21,9 C 9,7 km/h (2 Bft) 100,00 %
12.08.2019 14:20 22,2 C 24,4 C 25,0 C 72 % 1012,9 hPa 0,0 l/m 8,7 km/h (2 Bft) S-SW 212 0 min 0,000 mm 1,4 UV-I 192 W/m 16,9 C 21,4 C 14,5 km/h (3 Bft) 98,00 %
12.08.2019 14:22 22,2 C 24,4 C 25,0 C 71 % 1012,9 hPa 0,0 l/m 7,4 km/h (2 Bft) SW 224 0 min 0,000 mm 1,5 UV-I 216 W/m 16,7 C 21,9 C 12,9 km/h (3 Bft) 100,00 %
12.08.2019 14:24 22,2 C 24,4 C 25,0 C 72 % 1012,9 hPa 0,0 l/m 9,3 km/h (2 Bft) W-SW 238 0 min 0,000 mm 1,6 UV-I 236 W/m 16,9 C 21,3 C 17,7 km/h (3 Bft) 97,87 %
12.08.2019 14:26 22,2 C 24,4 C 25,0 C 72 % 1012,9 hPa 0,0 l/m 10,3 km/h (2 Bft) SW 235 0 min 0,000 mm 1,4 UV-I 200 W/m 16,9 C 21,0 C 16,1 km/h (3 Bft) 100,00 %
12.08.2019 14:28 22,1 C 24,4 C 24,4 C 71 % 1012,9 hPa 0,0 l/m 9,0 km/h (2 Bft) W-SW 257 0 min 0,000 mm 1,2 UV-I 163 W/m 16,6 C 21,2 C 16,1 km/h (3 Bft) 97,87 %
12.08.2019 14:30 22,1 C 24,4 C 24,4 C 71 % 1013,0 hPa 0,0 l/m 9,2 km/h (2 Bft) W-NW 292 0 min 0,000 mm 1,0 UV-I 144 W/m 16,6 C 21,2 C 14,5 km/h (3 Bft) 100,00 %
12.08.2019 14:32 22,1 C 24,4 C 23,9 C 72 % 1013,1 hPa 0,0 l/m 9,7 km/h (2 Bft) W-SW 258 0 min 0,000 mm 0,9 UV-I 131 W/m 16,8 C 21,0 C 14,5 km/h (3 Bft) 100,00 %
12.08.2019 14:34 22,0 C 24,4 C 23,9 C 71 % 1013,0 hPa 0,0 l/m 6,9 km/h (2 Bft) W 259 0 min 0,000 mm 0,8 UV-I 118 W/m 16,5 C 21,8 C 14,5 km/h (3 Bft) 98,21 %
12.08.2019 14:36 21,9 C 24,4 C 23,3 C 72 % 1013,2 hPa 0,0 l/m 7,7 km/h (2 Bft) W-SW 248 0 min 0,000 mm 0,7 UV-I 106 W/m 16,6 C 21,4 C 14,5 km/h (3 Bft) 100,00 %
12.08.2019 14:38 21,7 C 24,4 C 22,8 C 71 % 1013,3 hPa 0,0 l/m 15,0 km/h (3 Bft) W 275 0 min 0,000 mm 0,7 UV-I 104 W/m 16,2 C 19,3 C 20,9 km/h (4 Bft) 97,87 %
12.08.2019 14:40 21,6 C 24,4 C 22,8 C 72 % 1013,3 hPa 0,0 l/m 8,7 km/h (2 Bft) W 266 0 min 0,000 mm 0,7 UV-I 106 W/m 16,3 C 20,8 C 14,5 km/h (3 Bft) 97,37 %
12.08.2019 14:42 21,4 C 24,4 C 22,8 C 72 % 1013,2 hPa 0,0 l/m 11,1 km/h (2 Bft) W 269 0 min 0,000 mm 0,8 UV-I 116 W/m 16,1 C 19,9 C 16,1 km/h (3 Bft) 100,00 %
12.08.2019 14:44 21,3 C 24,4 C 22,8 C 73 % 1013,1 hPa 0,0 l/m 6,5 km/h (2 Bft) W-NW 286 0 min 0,000 mm 0,9 UV-I 132 W/m 16,3 C 21,3 C 11,3 km/h (2 Bft) 98,00 %
12.08.2019 14:46 21,2 C 24,4 C 22,8 C 74 % 1013,0 hPa 0,0 l/m 5,9 km/h (2 Bft) W-SW 246 0 min 0,000 mm 1,1 UV-I 153 W/m 16,4 C 21,2 C 12,9 km/h (3 Bft) 95,83 %
12.08.2019 14:48 21,1 C 24,4 C 22,8 C 74 % 1013,1 hPa 0,0 l/m 9,1 km/h (2 Bft) W 273 0 min 0,000 mm 1,0 UV-I 148 W/m 16,3 C 20,1 C 14,5 km/h (3 Bft) 97,87 %
12.08.2019 14:50 21,1 C 24,4 C 22,8 C 74 % 1013,3 hPa 0,0 l/m 5,8 km/h (2 Bft) SW 230 0 min 0,000 mm 0,8 UV-I 125 W/m 16,3 C 21,1 C 11,3 km/h (2 Bft) 97,87 %
12.08.2019 14:52 21,1 C 24,4 C 22,8 C 74 % 1013,3 hPa 0,0 l/m 8,2 km/h (2 Bft) W-SW 254 0 min 0,000 mm 0,9 UV-I 129 W/m 16,3 C 20,4 C 16,1 km/h (3 Bft) 93,62 %
12.08.2019 14:54 21,0 C 24,4 C 22,8 C 74 % 1013,3 hPa 0,0 l/m 12,3 km/h (3 Bft) W 265 0 min 0,000 mm 1,0 UV-I 143 W/m 16,2 C 19,1 C 19,3 km/h (3 Bft) 95,74 %
12.08.2019 14:56 20,9 C 24,4 C 22,8 C 74 % 1013,2 hPa 0,0 l/m 6,6 km/h (2 Bft) W-SW 250 0 min 0,000 mm 1,2 UV-I 168 W/m 16,1 C 20,8 C 12,9 km/h (3 Bft) 95,12 %
12.08.2019 14:58 20,8 C 24,4 C 22,8 C 74 % 1013,1 hPa 0,0 l/m 9,5 km/h (2 Bft) W 275 0 min 0,000 mm 1,1 UV-I 167 W/m 16,0 C 19,7 C 14,5 km/h (3 Bft) 98,00 %
12.08.2019 15:00 20,8 C 24,4 C 22,8 C 74 % 1013,1 hPa 0,0 l/m 10,9 km/h (2 Bft) W 265 0 min 0,000 mm 1,2 UV-I 172 W/m 16,0 C 19,3 C 17,7 km/h (3 Bft) 97,87 %
12.08.2019 15:02 20,7 C 24,4 C 22,8 C 74 % 1012,9 hPa 0,0 l/m 11,8 km/h (2 Bft) W-SW 255 0 min 0,127 mm 1,3 UV-I 193 W/m 15,9 C 18,9 C 20,9 km/h (4 Bft) 96,00 %
12.08.2019 15:04 20,7 C 24,4 C 22,8 C 74 % 1012,9 hPa 0,0 l/m 7,8 km/h (2 Bft) W 273 0 min 0,000 mm 1,4 UV-I 191 W/m 15,9 C 20,2 C 17,7 km/h (3 Bft) 97,87 %
12.08.2019 15:06 20,7 C 24,4 C 22,8 C 75 % 1012,9 hPa 0,0 l/m 6,2 km/h (2 Bft) NW 323 0 min 0,000 mm 1,2 UV-I 165 W/m 16,1 C 20,7 C 12,9 km/h (3 Bft) 97,87 %
12.08.2019 15:08 20,6 C 24,4 C 23,3 C 75 % 1012,9 hPa 0,0 l/m 6,1 km/h (2 Bft) NW 316 0 min 0,000 mm 1,2 UV-I 171 W/m 16,0 C 20,6 C 14,5 km/h (3 Bft) 97,87 %
12.08.2019 15:10 20,6 C 24,4 C 23,3 C 75 % 1012,9 hPa 0,0 l/m 7,6 km/h (2 Bft) W-NW 296 0 min 0,000 mm 1,4 UV-I 209 W/m 16,0 C 20,1 C 16,1 km/h (3 Bft) 100,00 %
12.08.2019 15:12 20,6 C 24,4 C 23,3 C 75 % 1013,0 hPa 0,0 l/m 5,8 km/h (2 Bft) W-SW 248 0 min 0,000 mm 1,5 UV-I 221 W/m 16,0 C 20,6 C 14,5 km/h (3 Bft) 100,00 %
12.08.2019 15:14 20,6 C 24,4 C 23,9 C 75 % 1013,0 hPa 0,0 l/m 8,1 km/h (2 Bft) W 281 0 min 0,000 mm 1,5 UV-I 226 W/m 16,0 C 19,9 C 22,5 km/h (4 Bft) 100,00 %
12.08.2019 15:16 20,6 C 24,4 C 23,3 C 75 % 1013,1 hPa 0,0 l/m 9,2 km/h (2 Bft) W-SW 250 0 min 0,000 mm 1,1 UV-I 151 W/m 16,0 C 19,6 C 19,3 km/h (3 Bft) 100,00 %
12.08.2019 15:18 20,6 C 24,4 C 22,8 C 75 % 1013,2 hPa 0,0 l/m 12,1 km/h (2 Bft) W 267 0 min 0,000 mm 0,9 UV-I 124 W/m 16,0 C 18,7 C 19,3 km/h (3 Bft) 95,74 %
12.08.2019 15:20 20,5 C 24,4 C 22,2 C 75 % 1013,3 hPa 0,0 l/m 12,7 km/h (3 Bft) W-SW 239 0 min 0,000 mm 0,8 UV-I 114 W/m 15,9 C 18,4 C 19,3 km/h (3 Bft) 100,00 %
12.08.2019 15:22 20,4 C 24,4 C 22,2 C 75 % 1013,3 hPa 0,0 l/m 14,1 km/h (3 Bft) W-SW 246 0 min 0,000 mm 0,7 UV-I 108 W/m 15,8 C 17,9 C 22,5 km/h (4 Bft) 100,00 %
12.08.2019 15:24 20,3 C 24,4 C 21,7 C 75 % 1013,5 hPa 0,0 l/m 12,4 km/h (3 Bft) W-SW 256 0 min 0,000 mm 0,6 UV-I 87 W/m 15,7 C 18,3 C 20,9 km/h (4 Bft) 100,00 %
12.08.2019 15:26 20,3 C 24,4 C 21,1 C 75 % 1013,5 hPa 0,0 l/m 15,1 km/h (3 Bft) W-SW 242 0 min 0,000 mm 0,5 UV-I 71 W/m 15,7 C 17,6 C 22,5 km/h (4 Bft) 98,00 %
12.08.2019 15:28 20,2 C 24,4 C 21,1 C 76 % 1013,6 hPa 0,0 l/m 12,7 km/h (3 Bft) W-SW 257 0 min 0,000 mm 0,1 UV-I 67 W/m 15,8 C 18,1 C 25,7 km/h (4 Bft) 100,00 %
12.08.2019 15:30 20,1 C 24,4 C 21,1 C 76 % 1013,5 hPa 0,0 l/m 14,2 km/h (3 Bft) W-SW 255 0 min 0,000 mm 0,0 UV-I 68 W/m 15,7 C 17,6 C 22,5 km/h (4 Bft) 100,00 %
12.08.2019 15:32 20,1 C 23,9 C 20,6 C 76 % 1013,6 hPa 0,0 l/m 11,9 km/h (2 Bft) W 277 0 min 0,000 mm 0,3 UV-I 71 W/m 15,7 C 18,2 C 19,3 km/h (3 Bft) 100,00 %
12.08.2019 15:34 20,0 C 23,9 C 20,6 C 76 % 1013,6 hPa 0,0 l/m 11,9 km/h (2 Bft) W 271 0 min 0,000 mm 0,1 UV-I 68 W/m 15,6 C 18,1 C 19,3 km/h (3 Bft) 100,00 %
12.08.2019 15:36 19,9 C 23,9 C 20,6 C 76 % 1013,6 hPa 0,0 l/m 9,8 km/h (2 Bft) W-SW 254 0 min 0,000 mm 0,0 UV-I 59 W/m 15,5 C 18,6 C 17,7 km/h (3 Bft) 97,87 %
12.08.2019 15:38 19,9 C 23,9 C 20,6 C 76 % 1013,6 hPa 0,0 l/m 12,2 km/h (2 Bft) W 273 0 min 0,000 mm 0,0 UV-I 55 W/m 15,5 C 17,9 C 24,1 km/h (4 Bft) 100,00 %
12.08.2019 15:40 19,9 C 23,9 C 20,0 C 77 % 1013,7 hPa 0,0 l/m 12,8 km/h (3 Bft) W-SW 242 0 min 0,000 mm 0,0 UV-I 62 W/m 15,7 C 17,7 C 22,5 km/h (4 Bft) 100,00 %
12.08.2019 15:42 19,8 C 23,9 C 19,4 C 77 % 1013,6 hPa 0,0 l/m 12,9 km/h (3 Bft) W-SW 258 0 min 0,000 mm 0,1 UV-I 75 W/m 15,6 C 17,5 C 19,3 km/h (3 Bft) 98,11 %
12.08.2019 15:44 19,7 C 23,9 C 18,9 C 80 % 1013,8 hPa 0,0 l/m 13,2 km/h (3 Bft) W 265 0 min 0,000 mm 0,2 UV-I 71 W/m 16,1 C 17,3 C 20,9 km/h (4 Bft) 97,87 %
12.08.2019 15:46 19,4 C 23,9 C 18,3 C 81 % 1014,2 hPa 0,0 l/m 13,5 km/h (3 Bft) W 259 0 min 0,000 mm 0,0 UV-I 56 W/m 16,1 C 16,9 C 19,3 km/h (3 Bft) 97,87 %
12.08.2019 15:48 19,2 C 23,9 C 18,3 C 82 % 1014,4 hPa 0,2 l/m 16,4 km/h (3 Bft) SW 236 0 min 0,000 mm 0,0 UV-I 45 W/m 16,0 C 15,9 C 29,0 km/h (5 Bft) 93,62 %
12.08.2019 15:50 18,9 C 23,9 C 17,8 C 82 % 1014,3 hPa 0,2 l/m 14,3 km/h (3 Bft) W-SW 244 0 min 0,000 mm 0,0 UV-I 55 W/m 15,8 C 16,1 C 20,9 km/h (4 Bft) 94,74 %
12.08.2019 15:52 18,6 C 23,9 C 17,8 C 85 % 1014,1 hPa 0,0 l/m 11,4 km/h (2 Bft) W-SW 238 0 min 0,000 mm 0,0 UV-I 66 W/m 16,0 C 16,6 C 19,3 km/h (3 Bft) 93,62 %
12.08.2019 15:54 18,4 C 23,9 C 17,8 C 86 % 1014,5 hPa 0,2 l/m 11,0 km/h (2 Bft) W 277 0 min 0,000 mm 0,0 UV-I 42 W/m 16,0 C 16,5 C 16,1 km/h (3 Bft) 96,00 %
12.08.2019 15:56 18,2 C 23,9 C 17,8 C 87 % 1014,2 hPa 0,0 l/m 12,4 km/h (3 Bft) SW 221 0 min 0,000 mm 0,0 UV-I 34 W/m 16,0 C 15,8 C 17,7 km/h (3 Bft) 98,11 %
12.08.2019 15:58 17,9 C 23,9 C 17,2 C 88 % 1013,7 hPa 0,2 l/m 9,9 km/h (2 Bft) W-NW 290 0 min 0,000 mm 0,0 UV-I 70 W/m 15,9 C 16,4 C 17,7 km/h (3 Bft) 97,87 %
12.08.2019 16:00 17,8 C 23,9 C 17,8 C 89 % 1013,7 hPa 0,2 l/m 9,7 km/h (2 Bft) NW 311 0 min 0,000 mm 0,0 UV-I 60 W/m 16,0 C 16,3 C 14,5 km/h (3 Bft) 97,87 %
12.08.2019 16:02 17,8 C 23,9 C 17,8 C 90 % 1013,9 hPa 0,0 l/m 6,3 km/h (2 Bft) W 272 0 min 0,102 mm 0,0 UV-I 64 W/m 16,1 C 17,8 C 12,9 km/h (3 Bft) 97,22 %
12.08.2019 16:04 17,7 C 23,9 C 18,3 C 90 % 1014,0 hPa 0,2 l/m 7,2 km/h (2 Bft) W-SW 252 0 min 0,000 mm 0,5 UV-I 93 W/m 16,0 C 17,3 C 16,1 km/h (3 Bft) 98,00 %
12.08.2019 16:06 17,7 C 23,9 C 17,8 C 91 % 1014,3 hPa 0,0 l/m 11,6 km/h (2 Bft) W 263 0 min 0,000 mm 0,5 UV-I 93 W/m 16,2 C 15,5 C 20,9 km/h (4 Bft) 97,87 %
12.08.2019 16:08 17,7 C 23,9 C 17,8 C 91 % 1014,2 hPa 0,0 l/m 12,2 km/h (2 Bft) W 265 0 min 0,000 mm 0,5 UV-I 76 W/m 16,2 C 15,3 C 19,3 km/h (3 Bft) 91,49 %
12.08.2019 16:10 17,6 C 23,9 C 17,8 C 91 % 1013,7 hPa 0,0 l/m 9,3 km/h (2 Bft) N-NW 340 0 min 0,000 mm 0,6 UV-I 87 W/m 16,1 C 16,3 C 16,1 km/h (3 Bft) 94,00 %
12.08.2019 16:12 17,6 C 23,9 C 18,3 C 91 % 1012,8 hPa 0,0 l/m 7,5 km/h (2 Bft) N 5 0 min 0,000 mm 1,1 UV-I 155 W/m 16,1 C 17,1 C 16,1 km/h (3 Bft) 96,00 %
12.08.2019 16:14 17,7 C 23,9 C 18,9 C 92 % 1012,4 hPa 0,0 l/m 6,2 km/h (2 Bft) W-NW 288 0 min 0,000 mm 1,5 UV-I 212 W/m 16,4 C 17,7 C 16,1 km/h (3 Bft) 91,49 %
12.08.2019 16:16 17,7 C 23,9 C 18,9 C 91 % 1013,1 hPa 0,0 l/m 7,2 km/h (2 Bft) W-SW 248 0 min 0,000 mm 1,3 UV-I 216 W/m 16,2 C 17,3 C 14,5 km/h (3 Bft) 93,62 %
12.08.2019 16:18 17,7 C 23,9 C 18,3 C 92 % 1013,9 hPa 0,0 l/m 12,0 km/h (2 Bft) W-SW 252 0 min 0,000 mm 0,2 UV-I 116 W/m 16,4 C 15,4 C 17,7 km/h (3 Bft) 97,37 %
12.08.2019 16:20 17,6 C 23,9 C 17,8 C 91 % 1014,2 hPa 0,0 l/m 14,6 km/h (3 Bft) W 271 0 min 0,000 mm 0,0 UV-I 38 W/m 16,1 C 14,5 C 22,5 km/h (4 Bft) 91,49 %
12.08.2019 16:22 17,6 C 23,9 C 17,8 C 91 % 1014,2 hPa 0,0 l/m 14,9 km/h (3 Bft) W-NW 286 0 min 0,000 mm 0,0 UV-I 32 W/m 16,1 C 14,4 C 25,7 km/h (4 Bft) 93,62 %
12.08.2019 16:24 17,5 C 23,9 C 17,8 C 91 % 1014,0 hPa 0,0 l/m 8,8 km/h (2 Bft) W 280 0 min 0,000 mm 0,0 UV-I 40 W/m 16,0 C 16,4 C 16,1 km/h (3 Bft) 95,74 %
12.08.2019 16:26 17,4 C 23,9 C 17,2 C 91 % 1013,7 hPa 0,0 l/m 12,0 km/h (2 Bft) W 263 0 min 0,000 mm 0,0 UV-I 57 W/m 15,9 C 15,0 C 22,5 km/h (4 Bft) 96,00 %
12.08.2019 16:28 17,4 C 23,9 C 17,8 C 91 % 1013,9 hPa 0,0 l/m 12,2 km/h (2 Bft) W 268 0 min 0,000 mm 0,0 UV-I 67 W/m 15,9 C 15,0 C 22,5 km/h (4 Bft) 93,62 %
12.08.2019 16:30 17,4 C 23,9 C 17,8 C 91 % 1014,1 hPa 0,0 l/m 11,4 km/h (2 Bft) W-SW 242 0 min 0,000 mm 0,0 UV-I 48 W/m 15,9 C 15,2 C 19,3 km/h (3 Bft) 91,49 %
12.08.2019 16:32 17,3 C 23,9 C 17,2 C 91 % 1014,3 hPa 0,0 l/m 17,6 km/h (3 Bft) W-NW 294 0 min 0,000 mm 0,0 UV-I 38 W/m 15,8 C 13,3 C 32,2 km/h (5 Bft) 96,00 %
12.08.2019 16:34 17,3 C 23,9 C 17,2 C 91 % 1014,5 hPa 0,0 l/m 12,3 km/h (3 Bft) W 281 0 min 0,000 mm 0,0 UV-I 42 W/m 15,8 C 14,8 C 20,9 km/h (4 Bft) 95,74 %
12.08.2019 16:36 17,3 C 23,9 C 17,2 C 90 % 1014,7 hPa 0,0 l/m 10,4 km/h (2 Bft) W-SW 244 0 min 0,000 mm 0,0 UV-I 37 W/m 15,6 C 15,5 C 19,3 km/h (3 Bft) 95,74 %
12.08.2019 16:38 17,2 C 23,9 C 17,2 C 90 % 1014,8 hPa 0,0 l/m 15,4 km/h (3 Bft) W 267 0 min 0,000 mm 0,0 UV-I 34 W/m 15,5 C 13,7 C 29,0 km/h (5 Bft) 93,62 %
12.08.2019 16:40 17,2 C 23,9 C 17,2 C 90 % 1014,8 hPa 0,0 l/m 12,3 km/h (3 Bft) W-NW 298 0 min 0,000 mm 0,0 UV-I 32 W/m 15,5 C 14,7 C 19,3 km/h (3 Bft) 96,00 %
12.08.2019 16:42 17,1 C 23,9 C 17,2 C 90 % 1015,1 hPa 0,0 l/m 15,0 km/h (3 Bft) W-NW 285 0 min 0,000 mm 0,0 UV-I 27 W/m 15,4 C 13,7 C 25,7 km/h (4 Bft) 97,22 %
12.08.2019 16:44 17,1 C 23,9 C 17,2 C 90 % 1015,1 hPa 0,0 l/m 12,1 km/h (2 Bft) W-NW 286 0 min 0,000 mm 0,0 UV-I 22 W/m 15,4 C 14,7 C 20,9 km/h (4 Bft) 98,00 %
12.08.2019 16:46 17,1 C 23,9 C 17,2 C 90 % 1015,2 hPa 0,0 l/m 9,3 km/h (2 Bft) SW 233 0 min 0,000 mm 0,0 UV-I 20 W/m 15,4 C 15,7 C 19,3 km/h (3 Bft) 98,00 %
12.08.2019 16:48 17,1 C 23,9 C 17,2 C 91 % 1015,3 hPa 0,0 l/m 10,4 km/h (2 Bft) W 277 0 min 0,000 mm 0,0 UV-I 17 W/m 15,6 C 15,3 C 19,3 km/h (3 Bft) 95,74 %
12.08.2019 16:50 17,0 C 23,9 C 17,2 C 90 % 1015,4 hPa 0,0 l/m 13,3 km/h (3 Bft) W-SW 250 0 min 0,000 mm 0,0 UV-I 17 W/m 15,3 C 14,1 C 22,5 km/h (4 Bft) 96,00 %
12.08.2019 16:52 16,9 C 23,9 C 17,2 C 90 % 1015,3 hPa 0,0 l/m 17,6 km/h (3 Bft) W-SW 257 0 min 0,000 mm 0,0 UV-I 16 W/m 15,2 C 12,8 C 27,4 km/h (4 Bft) 97,87 %
12.08.2019 16:54 16,9 C 23,9 C 17,2 C 90 % 1015,3 hPa 0,0 l/m 14,1 km/h (3 Bft) W-NW 303 0 min 0,000 mm 0,0 UV-I 15 W/m 15,2 C 13,8 C 27,4 km/h (4 Bft) 95,74 %
12.08.2019 16:56 16,9 C 23,9 C 17,2 C 89 % 1015,5 hPa 0,0 l/m 19,0 km/h (3 Bft) NW 311 0 min 0,000 mm 0,0 UV-I 16 W/m 15,1 C 12,4 C 32,2 km/h (5 Bft) 97,56 %
12.08.2019 16:58 16,9 C 23,9 C 16,7 C 89 % 1015,3 hPa 0,0 l/m 13,2 km/h (3 Bft) W-NW 290 0 min 0,000 mm 0,0 UV-I 16 W/m 15,1 C 14,1 C 22,5 km/h (4 Bft) 96,00 %
12.08.2019 17:00 16,8 C 23,9 C 16,7 C 89 % 1015,3 hPa 0,0 l/m 13,8 km/h (3 Bft) W-NW 284 0 min 0,000 mm 0,0 UV-I 14 W/m 15,0 C 13,7 C 25,7 km/h (4 Bft) 95,74 %
12.08.2019 17:02 16,8 C 23,9 C 16,7 C 89 % 1015,4 hPa 0,0 l/m 11,8 km/h (2 Bft) W-SW 254 0 min 0,051 mm 0,0 UV-I 14 W/m 15,0 C 14,4 C 25,7 km/h (4 Bft) 97,87 %
12.08.2019 17:04 16,8 C 23,9 C 16,7 C 89 % 1015,4 hPa 0,0 l/m 11,0 km/h (2 Bft) W-SW 248 0 min 0,000 mm 0,0 UV-I 17 W/m 15,0 C 14,7 C 22,5 km/h (4 Bft) 95,74 %
12.08.2019 17:06 16,8 C 23,9 C 16,7 C 89 % 1015,4 hPa 0,0 l/m 12,4 km/h (3 Bft) NW 322 0 min 0,000 mm 0,0 UV-I 18 W/m 15,0 C 14,2 C 22,5 km/h (4 Bft) 93,62 %
12.08.2019 17:09 16,7 C 23,9 C 16,7 C 89 % 1015,6 hPa 0,0 l/m 11,1 km/h (2 Bft) NW 313 0 min 0,000 mm 0,0 UV-I 13 W/m 14,9 C 14,6 C 22,5 km/h (4 Bft) 95,16 %
12.08.2019 17:10 16,7 C 23,9 C 16,7 C 89 % 1015,5 hPa 0,0 l/m 5,1 km/h (1 Bft) N 11 0 min 0,000 mm 0,0 UV-I 12 W/m 14,9 C 16,7 C 8,0 km/h (2 Bft) 96,15 %
12.08.2019 17:12 16,7 C 23,9 C 16,7 C 89 % 1015,6 hPa 0,0 l/m 8,8 km/h (2 Bft) W-SW 258 0 min 0,000 mm 0,0 UV-I 16 W/m 14,9 C 15,5 C 19,3 km/h (3 Bft) 94,00 %
12.08.2019 17:14 16,6 C 23,9 C 16,7 C 89 % 1015,6 hPa 0,0 l/m 16,1 km/h (3 Bft) S 190 0 min 0,000 mm 0,0 UV-I 16 W/m 14,8 C 12,8 C 32,2 km/h (5 Bft) 98,00 %
12.08.2019 17:16 16,6 C 23,9 C 16,7 C 89 % 1015,5 hPa 0,0 l/m 11,0 km/h (2 Bft) NW 306 0 min 0,000 mm 0,0 UV-I 14 W/m 14,8 C 14,5 C 25,7 km/h (4 Bft) 100,00 %
12.08.2019 17:18 16,4 C 23,9 C 16,7 C 89 % 1015,5 hPa 0,0 l/m 9,9 km/h (2 Bft) N-NW 337 0 min 0,000 mm 0,0 UV-I 18 W/m 14,6 C 14,7 C 19,3 km/h (3 Bft) 100,00 %
12.08.2019 17:20 16,4 C 23,9 C 16,7 C 89 % 1015,5 hPa 0,0 l/m 7,9 km/h (2 Bft) N-NW 342 0 min 0,000 mm 0,0 UV-I 19 W/m 14,6 C 15,6 C 19,3 km/h (3 Bft) 95,74 %
12.08.2019 17:22 16,3 C 23,9 C 16,7 C 89 % 1015,5 hPa 0,0 l/m 7,0 km/h (2 Bft) W-NW 287 0 min 0,000 mm 0,0 UV-I 18 W/m 14,5 C 16,0 C 20,9 km/h (4 Bft) 98,00 %
12.08.2019 17:24 16,3 C 23,9 C 16,7 C 89 % 1015,5 hPa 0,0 l/m 6,6 km/h (2 Bft) SW 227 0 min 0,000 mm 0,0 UV-I 19 W/m 14,5 C 16,2 C 16,1 km/h (3 Bft) 100,00 %
12.08.2019 17:26 16,2 C 23,9 C 16,7 C 89 % 1015,5 hPa 0,0 l/m 11,1 km/h (2 Bft) SW 226 0 min 0,000 mm 0,0 UV-I 19 W/m 14,4 C 14,0 C 25,7 km/h (4 Bft) 100,00 %
12.08.2019 17:28 16,2 C 23,9 C 16,7 C 89 % 1015,5 hPa 0,0 l/m 11,9 km/h (2 Bft) W 259 0 min 0,000 mm 0,0 UV-I 21 W/m 14,4 C 13,7 C 20,9 km/h (4 Bft) 100,00 %
12.08.2019 17:30 16,2 C 23,9 C 16,7 C 89 % 1015,5 hPa 0,0 l/m 9,0 km/h (2 Bft) W 275 0 min 0,000 mm 0,0 UV-I 21 W/m 14,4 C 14,9 C 16,1 km/h (3 Bft) 100,00 %
12.08.2019 17:32 16,1 C 23,9 C 16,7 C 89 % 1015,5 hPa 0,0 l/m 8,7 km/h (2 Bft) W-SW 255 0 min 0,000 mm 0,0 UV-I 23 W/m 14,3 C 14,9 C 14,5 km/h (3 Bft) 100,00 %
12.08.2019 17:34 16,1 C 23,9 C 16,7 C 90 % 1015,4 hPa 0,0 l/m 7,5 km/h (2 Bft) N-NW 335 0 min 0,000 mm 0,0 UV-I 26 W/m 14,5 C 15,5 C 14,5 km/h (3 Bft) 95,74 %
12.08.2019 17:36 16,1 C 23,9 C 16,7 C 90 % 1015,3 hPa 0,0 l/m 7,6 km/h (2 Bft) W 263 0 min 0,000 mm 0,0 UV-I 27 W/m 14,5 C 15,5 C 20,9 km/h (4 Bft) 100,00 %
12.08.2019 17:38 16,1 C 23,9 C 16,7 C 90 % 1015,2 hPa 0,0 l/m 5,0 km/h (1 Bft) W 276 0 min 0,000 mm 0,0 UV-I 26 W/m 14,5 C 16,1 C 9,7 km/h (2 Bft) 97,87 %
12.08.2019 17:40 16,1 C 23,9 C 16,7 C 90 % 1015,1 hPa 0,0 l/m 6,0 km/h (2 Bft) W-NW 288 0 min 0,000 mm 0,0 UV-I 28 W/m 14,5 C 16,1 C 11,3 km/h (2 Bft) 98,00 %
12.08.2019 17:42 16,0 C 23,9 C 16,7 C 90 % 1015,1 hPa 0,0 l/m 2,5 km/h (1 Bft) N 350 0 min 0,000 mm 0,0 UV-I 30 W/m 14,4 C 16,0 C 6,4 km/h (2 Bft) 94,74 %
12.08.2019 17:44 16,1 C 23,9 C 16,7 C 91 % 1015,0 hPa 0,0 l/m 3,4 km/h (1 Bft) W-SW 242 0 min 0,000 mm 0,0 UV-I 30 W/m 14,6 C 16,1 C 6,4 km/h (2 Bft) 95,74 %
12.08.2019 17:46 16,0 C 23,9 C 16,7 C 90 % 1015,0 hPa 0,0 l/m 5,0 km/h (1 Bft) W 271 0 min 0,000 mm 0,0 UV-I 32 W/m 14,4 C 16,0 C 9,7 km/h (2 Bft) 95,74 %
12.08.2019 17:48 16,1 C 23,9 C 16,7 C 91 % 1014,9 hPa 0,0 l/m 5,5 km/h (1 Bft) W-SW 237 0 min 0,000 mm 0,0 UV-I 36 W/m 14,6 C 16,1 C 11,3 km/h (2 Bft) 95,74 %
12.08.2019 17:50 16,1 C 23,9 C 16,7 C 90 % 1014,8 hPa 0,0 l/m 3,7 km/h (1 Bft) W-SW 238 0 min 0,000 mm 0,0 UV-I 40 W/m 14,5 C 16,1 C 8,0 km/h (2 Bft) 92,00 %
12.08.2019 17:52 16,1 C 23,9 C 16,7 C 90 % 1014,6 hPa 0,0 l/m 1,6 km/h (1 Bft) W-SW 238 0 min 0,000 mm 0,0 UV-I 48 W/m 14,5 C 16,1 C 4,8 km/h (1 Bft) 93,62 %
12.08.2019 17:54 16,1 C 23,9 C 17,2 C 90 % 1014,4 hPa 0,0 l/m 1,3 km/h (1 Bft) W-SW 238 0 min 0,000 mm 0,0 UV-I 70 W/m 14,5 C 16,1 C 3,2 km/h (1 Bft) 93,75 %
12.08.2019 17:56 16,1 C 23,9 C 17,2 C 90 % 1014,3 hPa 0,0 l/m 1,7 km/h (1 Bft) W-SW 238 0 min 0,000 mm 0,0 UV-I 72 W/m 14,5 C 16,1 C 3,2 km/h (1 Bft) 95,74 %
12.08.2019 17:58 16,2 C 23,9 C 17,2 C 90 % 1014,1 hPa 0,0 l/m 1,9 km/h (1 Bft) W-SW 238 0 min 0,000 mm 0,0 UV-I 71 W/m 14,6 C 16,2 C 4,8 km/h (1 Bft) 95,74 %
12.08.2019 18:00 16,2 C 23,9 C 17,8 C 90 % 1014,0 hPa 0,0 l/m 4,4 km/h (1 Bft) W-SW 238 0 min 0,025 mm 0,0 UV-I 91 W/m 14,6 C 16,2 C 4,8 km/h (1 Bft) 95,74 %
12.08.2019 18:02 16,2 C 23,9 C 18,3 C 90 % 1013,9 hPa 0,0 l/m 2,8 km/h (1 Bft) W-SW 238 0 min 0,000 mm 0,0 UV-I 130 W/m 14,6 C 16,2 C 4,8 km/h (1 Bft) 95,74 %
12.08.2019 18:04 16,3 C 23,9 C 18,9 C 90 % 1013,7 hPa 0,0 l/m 2,1 km/h (1 Bft) W-SW 238 0 min 0,000 mm 0,0 UV-I 147 W/m 14,7 C 16,3 C 4,8 km/h (1 Bft) 95,74 %
12.08.2019 18:06 16,3 C 23,9 C 18,9 C 90 % 1013,7 hPa 0,0 l/m 5,0 km/h (1 Bft) S-SW 200 0 min 0,000 mm 0,0 UV-I 150 W/m 14,7 C 16,3 C 6,4 km/h (2 Bft) 95,74 %
12.08.2019 18:08 16,3 C 23,9 C 18,9 C 90 % 1013,7 hPa 0,0 l/m 3,8 km/h (1 Bft) S 178 0 min 0,000 mm 0,0 UV-I 143 W/m 14,7 C 16,3 C 6,4 km/h (2 Bft) 94,00 %
12.08.2019 18:10 16,3 C 23,9 C 18,9 C 90 % 1013,6 hPa 0,0 l/m 6,5 km/h (2 Bft) S 170 0 min 0,000 mm 0,0 UV-I 130 W/m 14,7 C 16,3 C 9,7 km/h (2 Bft) 93,62 %
12.08.2019 18:12 16,4 C 23,9 C 18,9 C 90 % 1013,5 hPa 0,0 l/m 5,5 km/h (1 Bft) S-SO 167 0 min 0,000 mm 0,0 UV-I 121 W/m 14,8 C 16,4 C 8,0 km/h (2 Bft) 95,74 %
12.08.2019 18:14 16,4 C 23,9 C 18,9 C 90 % 1013,6 hPa 0,0 l/m 6,1 km/h (2 Bft) SO 145 0 min 0,000 mm 0,0 UV-I 115 W/m 14,8 C 16,4 C 8,0 km/h (2 Bft) 97,87 %
12.08.2019 18:16 16,5 C 23,9 C 18,9 C 90 % 1013,6 hPa 0,0 l/m 6,7 km/h (2 Bft) S 171 0 min 0,000 mm 0,0 UV-I 99 W/m 14,9 C 16,4 C 9,7 km/h (2 Bft) 97,87 %
12.08.2019 18:18 16,6 C 23,9 C 18,9 C 90 % 1013,7 hPa 0,0 l/m 5,5 km/h (1 Bft) S-SO 158 0 min 0,000 mm 0,0 UV-I 97 W/m 15,0 C 16,6 C 8,0 km/h (2 Bft) 100,00 %
12.08.2019 18:20 16,6 C 23,9 C 18,3 C 90 % 1013,6 hPa 0,0 l/m 8,5 km/h (2 Bft) S 171 0 min 0,000 mm 0,0 UV-I 97 W/m 15,0 C 15,5 C 9,7 km/h (2 Bft) 98,00 %
12.08.2019 18:22 16,6 C 23,9 C 18,3 C 90 % 1013,7 hPa 0,0 l/m 7,6 km/h (2 Bft) S 169 0 min 0,000 mm 0,0 UV-I 99 W/m 15,0 C 16,0 C 12,9 km/h (3 Bft) 98,00 %
12.08.2019 18:24 16,6 C 23,9 C 18,3 C 90 % 1013,7 hPa 0,0 l/m 9,1 km/h (2 Bft) S-SO 167 0 min 0,000 mm 0,0 UV-I 109 W/m 15,0 C 15,3 C 12,9 km/h (3 Bft) 100,00 %
12.08.2019 18:26 16,6 C 23,9 C 18,3 C 90 % 1013,6 hPa 0,0 l/m 6,6 km/h (2 Bft) S 176 0 min 0,000 mm 0,0 UV-I 125 W/m 15,0 C 16,5 C 8,0 km/h (2 Bft) 100,00 %
12.08.2019 18:28 16,6 C 23,9 C 18,9 C 90 % 1013,6 hPa 0,0 l/m 8,1 km/h (2 Bft) S 174 0 min 0,000 mm 0,0 UV-I 150 W/m 15,0 C 15,7 C 11,3 km/h (2 Bft) 100,00 %
12.08.2019 18:30 16,8 C 23,9 C 19,4 C 90 % 1013,6 hPa 0,0 l/m 6,6 km/h (2 Bft) SO 141 2 min 0,000 mm 0,0 UV-I 187 W/m 15,1 C 16,7 C 11,3 km/h (2 Bft) 100,00 %
12.08.2019 18:32 16,9 C 23,9 C 20,0 C 89 % 1013,6 hPa 0,0 l/m 7,5 km/h (2 Bft) S 181 2 min 0,000 mm 0,0 UV-I 234 W/m 15,1 C 16,3 C 12,9 km/h (3 Bft) 100,00 %
12.08.2019 18:34 17,1 C 23,9 C 20,0 C 88 % 1013,5 hPa 0,0 l/m 9,3 km/h (2 Bft) S-SO 161 2 min 0,000 mm 0,0 UV-I 175 W/m 15,1 C 15,7 C 14,5 km/h (3 Bft) 100,00 %
12.08.2019 18:36 16,9 C 23,9 C 19,4 C 88 % 1013,5 hPa 0,0 l/m 11,0 km/h (2 Bft) S-SO 161 2 min 0,000 mm 0,0 UV-I 159 W/m 14,9 C 14,8 C 16,1 km/h (3 Bft) 100,00 %
12.08.2019 18:38 16,9 C 23,9 C 19,4 C 87 % 1013,5 hPa 0,0 l/m 9,1 km/h (2 Bft) S-SO 165 0 min 0,000 mm 0,0 UV-I 143 W/m 14,7 C 15,6 C 12,9 km/h (3 Bft) 100,00 %
12.08.2019 18:40 16,9 C 23,9 C 18,9 C 88 % 1013,5 hPa 0,0 l/m 8,8 km/h (2 Bft) S-SO 158 0 min 0,000 mm 0,0 UV-I 138 W/m 14,9 C 15,7 C 14,5 km/h (3 Bft) 98,00 %
12.08.2019 18:42 16,9 C 23,9 C 18,9 C 87 % 1013,6 hPa 0,0 l/m 7,9 km/h (2 Bft) SO 136 0 min 0,000 mm 0,0 UV-I 135 W/m 14,7 C 16,1 C 12,9 km/h (3 Bft) 100,00 %
12.08.2019 18:44 17,1 C 23,9 C 19,4 C 87 % 1013,5 hPa 0,0 l/m 10,5 km/h (2 Bft) S 170 0 min 0,000 mm 0,0 UV-I 137 W/m 14,9 C 15,2 C 14,5 km/h (3 Bft) 100,00 %
12.08.2019 18:46 17,1 C 23,9 C 19,4 C 87 % 1013,4 hPa 0,0 l/m 11,7 km/h (2 Bft) S-SO 148 2 min 0,000 mm 0,0 UV-I 145 W/m 14,9 C 14,8 C 17,7 km/h (3 Bft) 100,00 %
12.08.2019 18:48 17,2 C 23,9 C 19,4 C 87 % 1013,3 hPa 0,0 l/m 9,8 km/h (2 Bft) S-SO 157 2 min 0,000 mm 0,0 UV-I 153 W/m 15,0 C 15,6 C 14,5 km/h (3 Bft) 100,00 %
12.08.2019 18:50 17,3 C 23,9 C 20,0 C 87 % 1013,3 hPa 0,0 l/m 8,1 km/h (2 Bft) S-SO 154 2 min 0,000 mm 0,0 UV-I 165 W/m 15,1 C 16,5 C 14,5 km/h (3 Bft) 100,00 %
12.08.2019 18:52 17,3 C 23,9 C 20,0 C 87 % 1013,2 hPa 0,0 l/m 10,5 km/h (2 Bft) O-SO 123 2 min 0,000 mm 0,0 UV-I 181 W/m 15,1 C 15,5 C 17,7 km/h (3 Bft) 95,74 %
12.08.2019 18:54 17,4 C 23,9 C 20,0 C 87 % 1013,0 hPa 0,0 l/m 7,0 km/h (2 Bft) SO 134 2 min 0,000 mm 0,0 UV-I 207 W/m 15,2 C 17,1 C 16,1 km/h (3 Bft) 97,87 %
12.08.2019 18:56 17,6 C 23,9 C 20,6 C 87 % 1012,9 hPa 0,0 l/m 7,0 km/h (2 Bft) SO 134 2 min 0,000 mm 0,0 UV-I 171 W/m 15,4 C 17,3 C 14,5 km/h (3 Bft) 97,14 %
12.08.2019 18:58 17,7 C 23,9 C 20,0 C 86 % 1012,9 hPa 0,0 l/m 9,3 km/h (2 Bft) SO 146 2 min 0,000 mm 0,0 UV-I 125 W/m 15,3 C 16,4 C 14,5 km/h (3 Bft) 95,74 %
12.08.2019 19:00 17,6 C 23,9 C 19,4 C 86 % 1013,0 hPa 0,0 l/m 10,4 km/h (2 Bft) SO 136 0 min 0,000 mm 0,0 UV-I 101 W/m 15,2 C 15,8 C 14,5 km/h (3 Bft) 100,00 %
12.08.2019 19:02 17,6 C 23,9 C 19,4 C 86 % 1012,9 hPa 0,0 l/m 10,1 km/h (2 Bft) SO 138 0 min 0,102 mm 0,0 UV-I 71 W/m 15,2 C 16,0 C 14,5 km/h (3 Bft) 100,00 %
12.08.2019 19:04 17,4 C 23,9 C 18,9 C 86 % 1012,9 hPa 0,0 l/m 10,9 km/h (2 Bft) SO 140 0 min 0,000 mm 0,0 UV-I 49 W/m 15,0 C 15,4 C 16,1 km/h (3 Bft) 96,00 %
12.08.2019 19:06 17,3 C 23,9 C 18,3 C 86 % 1012,9 hPa 0,0 l/m 11,3 km/h (2 Bft) S-SO 148 0 min 0,000 mm 0,0 UV-I 39 W/m 14,9 C 15,2 C 19,3 km/h (3 Bft) 97,87 %
12.08.2019 19:08 17,3 C 23,9 C 17,8 C 86 % 1013,0 hPa 0,0 l/m 11,9 km/h (2 Bft) SO 128 0 min 0,000 mm 0,0 UV-I 33 W/m 14,9 C 15,0 C 16,1 km/h (3 Bft) 100,00 %
12.08.2019 19:10 17,2 C 23,9 C 17,8 C 87 % 1012,9 hPa 0,0 l/m 8,3 km/h (2 Bft) O-SO 123 0 min 0,000 mm 0,0 UV-I 30 W/m 15,0 C 16,3 C 14,5 km/h (3 Bft) 100,00 %
12.08.2019 19:12 17,1 C 23,9 C 17,8 C 87 % 1013,0 hPa 0,0 l/m 8,8 km/h (2 Bft) SO 134 0 min 0,000 mm 0,0 UV-I 26 W/m 14,9 C 15,9 C 14,5 km/h (3 Bft) 100,00 %
12.08.2019 19:14 17,1 C 23,9 C 17,2 C 87 % 1013,0 hPa 0,0 l/m 12,3 km/h (3 Bft) S-SO 152 0 min 0,000 mm 0,0 UV-I 23 W/m 14,9 C 14,6 C 19,3 km/h (3 Bft) 97,92 %
12.08.2019 19:16 17,0 C 23,9 C 17,2 C 87 % 1013,2 hPa 0,0 l/m 9,1 km/h (2 Bft) S-SO 167 0 min 0,000 mm 0,0 UV-I 20 W/m 14,8 C 15,7 C 14,5 km/h (3 Bft) 93,62 %
12.08.2019 19:18 17,0 C 23,9 C 17,2 C 87 % 1013,3 hPa 0,0 l/m 10,0 km/h (2 Bft) S 170 0 min 0,000 mm 0,0 UV-I 19 W/m 14,8 C 15,3 C 14,5 km/h (3 Bft) 95,74 %
12.08.2019 19:20 16,9 C 23,9 C 17,2 C 87 % 1013,2 hPa 0,0 l/m 9,8 km/h (2 Bft) S-SO 161 0 min 0,000 mm 0,0 UV-I 20 W/m 14,7 C 15,3 C 12,9 km/h (3 Bft) 95,74 %
12.08.2019 19:22 17,0 C 23,9 C 17,2 C 87 % 1013,1 hPa 0,0 l/m 10,9 km/h (2 Bft) S 177 0 min 0,000 mm 0,0 UV-I 21 W/m 14,8 C 15,0 C 19,3 km/h (3 Bft) 97,37 %
12.08.2019 19:24 16,9 C 23,9 C 17,2 C 87 % 1013,0 hPa 0,0 l/m 11,3 km/h (2 Bft) SO 145 0 min 0,000 mm 0,0 UV-I 20 W/m 14,7 C 14,7 C 19,3 km/h (3 Bft) 97,87 %
12.08.2019 19:26 16,9 C 23,9 C 17,2 C 87 % 1012,9 hPa 0,0 l/m 8,5 km/h (2 Bft) S 189 0 min 0,000 mm 0,0 UV-I 19 W/m 14,7 C 15,9 C 14,5 km/h (3 Bft) 98,11 %
12.08.2019 19:28 16,9 C 23,9 C 17,2 C 87 % 1012,7 hPa 0,0 l/m 9,9 km/h (2 Bft) SO 144 0 min 0,000 mm 0,0 UV-I 19 W/m 14,7 C 15,3 C 16,1 km/h (3 Bft) 97,37 %
12.08.2019 19:30 16,9 C 23,9 C 17,2 C 87 % 1012,7 hPa 0,0 l/m 8,1 km/h (2 Bft) S-SO 163 0 min 0,000 mm 0,0 UV-I 19 W/m 14,7 C 16,0 C 11,3 km/h (2 Bft) 97,87 %
12.08.2019 19:32 16,9 C 23,9 C 17,2 C 87 % 1012,7 hPa 0,0 l/m 7,1 km/h (2 Bft) S-SO 159 0 min 0,000 mm 0,0 UV-I 19 W/m 14,7 C 16,5 C 12,9 km/h (3 Bft) 96,00 %
12.08.2019 19:34 16,9 C 23,9 C 17,2 C 88 % 1012,5 hPa 0,0 l/m 10,2 km/h (2 Bft) S 178 0 min 0,000 mm 0,0 UV-I 19 W/m 14,9 C 15,1 C 16,1 km/h (3 Bft) 93,62 %
12.08.2019 19:36 16,9 C 23,9 C 17,2 C 88 % 1012,5 hPa 0,0 l/m 8,8 km/h (2 Bft) S-SO 152 0 min 0,000 mm 0,0 UV-I 18 W/m 14,9 C 15,7 C 16,1 km/h (3 Bft) 97,87 %
12.08.2019 19:38 16,9 C 23,9 C 17,2 C 88 % 1012,6 hPa 0,0 l/m 3,3 km/h (1 Bft) S-SO 156 0 min 0,000 mm 0,0 UV-I 17 W/m 14,9 C 16,9 C 6,4 km/h (2 Bft) 96,00 %
12.08.2019 19:40 16,9 C 23,9 C 16,7 C 88 % 1012,5 hPa 0,0 l/m 4,8 km/h (1 Bft) SO 126 0 min 0,000 mm 0,0 UV-I 14 W/m 14,9 C 16,9 C 8,0 km/h (2 Bft) 97,87 %
12.08.2019 19:42 16,9 C 23,9 C 16,7 C 88 % 1012,4 hPa 0,0 l/m 7,7 km/h (2 Bft) SO 138 0 min 0,000 mm 0,0 UV-I 12 W/m 14,9 C 16,2 C 12,9 km/h (3 Bft) 100,00 %
12.08.2019 19:44 16,9 C 23,9 C 16,7 C 88 % 1012,3 hPa 0,0 l/m 3,5 km/h (1 Bft) SO 125 0 min 0,000 mm 0,0 UV-I 12 W/m 14,9 C 16,9 C 6,4 km/h (2 Bft) 95,74 %
12.08.2019 19:46 16,9 C 23,9 C 16,7 C 88 % 1012,3 hPa 0,0 l/m 4,1 km/h (1 Bft) O-SO 120 0 min 0,000 mm 0,0 UV-I 12 W/m 14,9 C 16,9 C 8,0 km/h (2 Bft) 97,87 %
12.08.2019 19:48 16,9 C 23,9 C 16,7 C 88 % 1012,4 hPa 0,0 l/m 6,2 km/h (2 Bft) S-SO 165 0 min 0,000 mm 0,0 UV-I 13 W/m 14,9 C 16,9 C 12,9 km/h (3 Bft) 95,74 %
12.08.2019 19:50 16,9 C 23,9 C 16,7 C 88 % 1012,4 hPa 0,0 l/m 5,3 km/h (1 Bft) O-SO 121 0 min 0,000 mm 0,0 UV-I 16 W/m 14,9 C 16,9 C 11,3 km/h (2 Bft) 95,24 %
12.08.2019 19:52 16,9 C 23,9 C 17,2 C 88 % 1012,3 hPa 0,0 l/m 7,1 km/h (2 Bft) SO 142 0 min 0,000 mm 0,0 UV-I 17 W/m 14,9 C 16,5 C 14,5 km/h (3 Bft) 98,00 %
12.08.2019 19:54 17,0 C 23,9 C 17,2 C 88 % 1012,1 hPa 0,0 l/m 7,3 km/h (2 Bft) O-SO 118 0 min 0,000 mm 0,0 UV-I 18 W/m 15,0 C 16,5 C 12,9 km/h (3 Bft) 95,74 %
12.08.2019 19:56 17,0 C 23,9 C 17,2 C 87 % 1012,1 hPa 0,0 l/m 4,8 km/h (1 Bft) SO 128 0 min 0,000 mm 0,0 UV-I 18 W/m 14,8 C 17,0 C 11,3 km/h (2 Bft) 97,87 %
12.08.2019 19:58 17,0 C 23,9 C 16,7 C 87 % 1012,3 hPa 0,0 l/m 3,6 km/h (1 Bft) O 101 0 min 0,000 mm 0,0 UV-I 16 W/m 14,8 C 17,0 C 6,4 km/h (2 Bft) 97,87 %
12.08.2019 20:00 16,9 C 23,9 C 16,7 C 87 % 1012,3 hPa 0,0 l/m 2,5 km/h (1 Bft) O 101 0 min 0,000 mm 0,0 UV-I 15 W/m 14,7 C 16,9 C 4,8 km/h (1 Bft) 97,87 %
12.08.2019 20:02 17,0 C 23,9 C 16,7 C 87 % 1012,3 hPa 0,0 l/m 4,3 km/h (1 Bft) O 100 0 min 0,025 mm 0,0 UV-I 12 W/m 14,8 C 17,0 C 6,4 km/h (2 Bft) 93,62 %
12.08.2019 20:04 17,0 C 23,9 C 16,7 C 87 % 1012,2 hPa 0,0 l/m 3,3 km/h (1 Bft) O 100 0 min 0,000 mm 0,0 UV-I 11 W/m 14,8 C 17,0 C 4,8 km/h (1 Bft) 93,62 %
12.08.2019 20:06 17,0 C 23,9 C 16,7 C 87 % 1012,4 hPa 0,0 l/m 1,9 km/h (1 Bft) O 100 0 min 0,000 mm 0,0 UV-I 9 W/m 14,8 C 17,0 C 3,2 km/h (1 Bft) 96,00 %
12.08.2019 20:08 17,1 C 23,9 C 16,7 C 87 % 1012,6 hPa 0,0 l/m 1,3 km/h (1 Bft) O 100 0 min 0,000 mm 0,0 UV-I 7 W/m 14,9 C 17,1 C 1,6 km/h (1 Bft) 94,74 %
12.08.2019 20:10 17,1 C 23,9 C 16,7 C 87 % 1012,8 hPa 0,0 l/m 0,7 km/h (0 Bft) O 100 0 min 0,000 mm 0,0 UV-I 7 W/m 14,9 C 17,1 C 3,2 km/h (1 Bft) 95,74 %
12.08.2019 20:12 17,1 C 23,9 C 16,7 C 87 % 1012,9 hPa 0,0 l/m 0,7 km/h (0 Bft) O 100 0 min 0,000 mm 0,0 UV-I 6 W/m 14,9 C 17,1 C 3,2 km/h (1 Bft) 95,74 %
12.08.2019 20:14 17,1 C 23,9 C 16,7 C 87 % 1013,0 hPa 0,0 l/m 1,4 km/h (1 Bft) O 100 0 min 0,000 mm 0,0 UV-I 5 W/m 14,9 C 17,1 C 3,2 km/h (1 Bft) 93,62 %
12.08.2019 20:16 17,2 C 23,9 C 16,7 C 87 % 1013,0 hPa 0,0 l/m 0,2 km/h (0 Bft) O 100 0 min 0,000 mm 0,0 UV-I 5 W/m 15,0 C 17,2 C 1,6 km/h (1 Bft) 98,00 %
12.08.2019 20:18 17,2 C 23,9 C 16,7 C 87 % 1013,0 hPa 0,0 l/m 2,3 km/h (1 Bft) O 100 0 min 0,000 mm 0,0 UV-I 4 W/m 15,0 C 17,2 C 4,8 km/h (1 Bft) 97,87 %
12.08.2019 20:20 17,2 C 23,9 C 16,7 C 87 % 1013,0 hPa 0,0 l/m 4,5 km/h (1 Bft) N-NW 340 0 min 0,000 mm 0,0 UV-I 0 W/m 15,0 C 17,2 C 6,4 km/h (2 Bft) 96,00 %
12.08.2019 20:22 17,1 C 23,9 C 16,7 C 87 % 1013,0 hPa 0,0 l/m 3,3 km/h (1 Bft) N-NW 340 0 min 0,000 mm 0,0 UV-I 0 W/m 14,9 C 17,1 C 6,4 km/h (2 Bft) 95,74 %
12.08.2019 20:24 16,9 C 23,9 C 16,7 C 88 % 1013,0 hPa 0,0 l/m 2,5 km/h (1 Bft) N-NW 340 0 min 0,000 mm 0,0 UV-I 0 W/m 14,9 C 16,9 C 3,2 km/h (1 Bft) 94,44 %
12.08.2019 20:26 16,9 C 23,9 C 16,7 C 88 % 1012,9 hPa 0,0 l/m 2,4 km/h (1 Bft) N-NW 340 0 min 0,000 mm 0,0 UV-I 0 W/m 14,9 C 16,9 C 3,2 km/h (1 Bft) 98,00 %
12.08.2019 20:28 16,9 C 23,9 C 16,7 C 89 % 1012,9 hPa 0,0 l/m 2,7 km/h (1 Bft) N-NW 340 0 min 0,000 mm 0,0 UV-I 0 W/m 15,1 C 16,9 C 3,2 km/h (1 Bft) 95,74 %
12.08.2019 20:30 16,8 C 23,9 C 16,7 C 89 % 1012,9 hPa 0,0 l/m 3,7 km/h (1 Bft) N-NW 340 0 min 0,000 mm 0,0 UV-I 0 W/m 15,0 C 16,8 C 4,8 km/h (1 Bft) 97,87 %
12.08.2019 20:32 16,8 C 23,9 C 16,7 C 89 % 1012,9 hPa 0,0 l/m 4,8 km/h (1 Bft) N 9 0 min 0,000 mm 0,0 UV-I 0 W/m 15,0 C 16,8 C 6,4 km/h (2 Bft) 93,62 %
12.08.2019 20:34 16,8 C 23,9 C 16,7 C 90 % 1012,8 hPa 0,0 l/m 4,7 km/h (1 Bft) N 5 0 min 0,000 mm 0,0 UV-I 0 W/m 15,1 C 16,8 C 6,4 km/h (2 Bft) 98,00 %
12.08.2019 20:36 16,8 C 23,9 C 16,7 C 90 % 1012,7 hPa 0,0 l/m 6,4 km/h (2 Bft) NO 53 0 min 0,000 mm 0,0 UV-I 0 W/m 15,1 C 16,8 C 8,0 km/h (2 Bft) 95,74 %
12.08.2019 20:38 16,7 C 23,9 C 16,7 C 90 % 1012,6 hPa 0,0 l/m 7,6 km/h (2 Bft) NO 43 0 min 0,000 mm 0,0 UV-I 0 W/m 15,0 C 16,1 C 9,7 km/h (2 Bft) 97,87 %
12.08.2019 20:40 16,7 C 23,9 C 16,7 C 90 % 1012,5 hPa 0,0 l/m 7,4 km/h (2 Bft) N-NO 32 0 min 0,000 mm 0,0 UV-I 0 W/m 15,0 C 16,2 C 9,7 km/h (2 Bft) 97,87 %
12.08.2019 20:42 16,7 C 23,9 C 16,7 C 90 % 1012,6 hPa 0,0 l/m 5,9 km/h (2 Bft) NO 44 0 min 0,000 mm 0,0 UV-I 0 W/m 15,0 C 16,7 C 9,7 km/h (2 Bft) 95,74 %
12.08.2019 20:44 16,7 C 23,9 C 16,7 C 90 % 1012,7 hPa 0,0 l/m 5,6 km/h (1 Bft) N 11 0 min 0,000 mm 0,0 UV-I 0 W/m 15,0 C 16,7 C 8,0 km/h (2 Bft) 96,00 %
12.08.2019 20:46 16,7 C 23,9 C 16,7 C 91 % 1012,9 hPa 0,0 l/m 6,7 km/h (2 Bft) N 5 0 min 0,000 mm 0,0 UV-I 0 W/m 15,2 C 16,6 C 11,3 km/h (2 Bft) 92,11 %
12.08.2019 20:48 16,7 C 23,9 C 16,7 C 91 % 1013,1 hPa 0,0 l/m 4,6 km/h (1 Bft) N 5 0 min 0,000 mm 0,0 UV-I 0 W/m 15,2 C 16,7 C 6,4 km/h (2 Bft) 95,74 %
12.08.2019 20:50 16,6 C 23,9 C 16,1 C 90 % 1013,1 hPa 0,0 l/m 3,4 km/h (1 Bft) N 9 0 min 0,000 mm 0,0 UV-I 0 W/m 15,0 C 16,6 C 4,8 km/h (1 Bft) 93,62 %
12.08.2019 20:52 16,6 C 23,9 C 16,1 C 91 % 1013,0 hPa 0,0 l/m 4,8 km/h (1 Bft) N-NO 12 0 min 0,000 mm 0,0 UV-I 0 W/m 15,1 C 16,6 C 6,4 km/h (2 Bft) 94,00 %
12.08.2019 20:54 16,6 C 23,9 C 16,1 C 91 % 1013,1 hPa 0,0 l/m 3,6 km/h (1 Bft) N-NO 15 0 min 0,000 mm 0,0 UV-I 0 W/m 15,1 C 16,6 C 4,8 km/h (1 Bft) 93,62 %
12.08.2019 20:56 16,6 C 23,9 C 16,1 C 91 % 1013,0 hPa 0,0 l/m 4,7 km/h (1 Bft) N-NO 14 0 min 0,000 mm 0,0 UV-I 0 W/m 15,1 C 16,6 C 8,0 km/h (2 Bft) 91,49 %
12.08.2019 20:58 16,6 C 23,9 C 16,1 C 91 % 1012,8 hPa 0,2 l/m 9,7 km/h (2 Bft) N-NO 22 0 min 0,000 mm 0,0 UV-I 0 W/m 15,1 C 15,0 C 16,1 km/h (3 Bft) 95,74 %
12.08.2019 21:00 16,5 C 23,9 C 16,1 C 91 % 1012,6 hPa 0,0 l/m 13,1 km/h (3 Bft) N 5 0 min 0,000 mm 0,0 UV-I 0 W/m 15,0 C 13,6 C 17,7 km/h (3 Bft) 96,00 %
12.08.2019 21:02 16,4 C 23,9 C 16,1 C 92 % 1013,0 hPa 0,0 l/m 6,7 km/h (2 Bft) NW 304 0 min 0,000 mm 0,0 UV-I 0 W/m 15,1 C 16,3 C 12,9 km/h (3 Bft) 91,49 %
12.08.2019 21:04 16,4 C 23,3 C 16,1 C 92 % 1013,4 hPa 0,0 l/m 4,0 km/h (1 Bft) W 261 0 min 0,000 mm 0,0 UV-I 0 W/m 15,1 C 16,4 C 9,7 km/h (2 Bft) 97,87 %
12.08.2019 21:06 16,4 C 23,3 C 16,7 C 92 % 1013,8 hPa 0,0 l/m 3,0 km/h (1 Bft) W 278 0 min 0,000 mm 0,0 UV-I 0 W/m 15,1 C 16,4 C 6,4 km/h (2 Bft) 97,87 %
12.08.2019 21:08 16,4 C 23,3 C 16,7 C 93 % 1014,1 hPa 0,0 l/m 4,8 km/h (1 Bft) W-NW 286 0 min 0,000 mm 0,0 UV-I 0 W/m 15,3 C 16,4 C 8,0 km/h (2 Bft) 95,83 %
12.08.2019 21:10 16,4 C 23,3 C 16,7 C 92 % 1014,2 hPa 0,0 l/m 5,7 km/h (1 Bft) NW 325 0 min 0,000 mm 0,0 UV-I 0 W/m 15,1 C 16,4 C 11,3 km/h (2 Bft) 100,00 %
12.08.2019 21:12 16,4 C 23,3 C 16,1 C 93 % 1014,3 hPa 0,0 l/m 8,8 km/h (2 Bft) W-NW 288 0 min 0,000 mm 0,0 UV-I 0 W/m 15,3 C 15,2 C 14,5 km/h (3 Bft) 100,00 %
12.08.2019 21:14 16,4 C 23,3 C 16,7 C 93 % 1014,2 hPa 0,0 l/m 6,4 km/h (2 Bft) N-NW 346 0 min 0,000 mm 0,0 UV-I 0 W/m 15,3 C 16,4 C 12,9 km/h (3 Bft) 100,00 %
12.08.2019 21:16 16,3 C 23,3 C 16,7 C 93 % 1014,2 hPa 0,0 l/m 7,3 km/h (2 Bft) N-NO 28 0 min 0,000 mm 0,0 UV-I 0 W/m 15,2 C 15,8 C 14,5 km/h (3 Bft) 100,00 %
12.08.2019 21:18 16,3 C 23,3 C 16,1 C 93 % 1014,2 hPa 0,0 l/m 3,6 km/h (1 Bft) W-NW 299 0 min 0,000 mm 0,0 UV-I 0 W/m 15,2 C 16,3 C 12,9 km/h (3 Bft) 97,87 %
12.08.2019 21:20 16,3 C 23,3 C 16,1 C 93 % 1014,3 hPa 0,0 l/m 8,5 km/h (2 Bft) W 279 0 min 0,000 mm 0,0 UV-I 0 W/m 15,2 C 15,2 C 17,7 km/h (3 Bft) 100,00 %
12.08.2019 21:22 16,3 C 23,3 C 16,1 C 94 % 1014,5 hPa 0,0 l/m 6,1 km/h (2 Bft) N-NW 339 0 min 0,000 mm 0,0 UV-I 0 W/m 15,3 C 16,3 C 16,1 km/h (3 Bft) 100,00 %
12.08.2019 21:24 16,3 C 23,3 C 16,7 C 94 % 1014,8 hPa 0,0 l/m 6,1 km/h (2 Bft) W-NW 284 0 min 0,000 mm 0,0 UV-I 0 W/m 15,3 C 16,3 C 11,3 km/h (2 Bft) 98,00 %
12.08.2019 21:26 16,3 C 23,3 C 16,7 C 94 % 1014,9 hPa 0,0 l/m 9,5 km/h (2 Bft) W 262 0 min 0,000 mm 0,0 UV-I 0 W/m 15,3 C 14,8 C 24,1 km/h (4 Bft) 97,87 %
12.08.2019 21:28 16,3 C 23,3 C 16,7 C 94 % 1015,1 hPa 0,0 l/m 9,1 km/h (2 Bft) NW 326 0 min 0,000 mm 0,0 UV-I 0 W/m 15,3 C 14,9 C 19,3 km/h (3 Bft) 100,00 %
12.08.2019 21:30 16,3 C 23,3 C 16,7 C 94 % 1015,1 hPa 0,0 l/m 11,8 km/h (2 Bft) NW 313 0 min 0,000 mm 0,0 UV-I 0 W/m 15,3 C 13,8 C 19,3 km/h (3 Bft) 95,74 %
12.08.2019 21:32 16,3 C 23,3 C 16,1 C 94 % 1015,0 hPa 0,0 l/m 7,8 km/h (2 Bft) W-NW 294 0 min 0,000 mm 0,0 UV-I 0 W/m 15,3 C 15,6 C 20,9 km/h (4 Bft) 100,00 %
12.08.2019 21:34 16,2 C 23,3 C 16,1 C 94 % 1014,8 hPa 0,2 l/m 12,9 km/h (3 Bft) W-NW 300 0 min 0,000 mm 0,0 UV-I 0 W/m 15,2 C 13,3 C 29,0 km/h (5 Bft) 97,87 %
12.08.2019 21:36 16,2 C 23,3 C 16,1 C 94 % 1014,9 hPa 0,0 l/m 7,8 km/h (2 Bft) NW 319 0 min 0,000 mm 0,0 UV-I 0 W/m 15,2 C 15,5 C 14,5 km/h (3 Bft) 100,00 %
12.08.2019 21:38 16,2 C 23,3 C 16,1 C 94 % 1015,0 hPa 0,0 l/m 6,2 km/h (2 Bft) W-NW 288 0 min 0,000 mm 0,0 UV-I 0 W/m 15,2 C 16,2 C 11,3 km/h (2 Bft) 100,00 %
12.08.2019 21:40 16,2 C 23,3 C 16,1 C 94 % 1015,1 hPa 0,0 l/m 7,5 km/h (2 Bft) NW 306 0 min 0,000 mm 0,0 UV-I 0 W/m 15,2 C 15,6 C 17,7 km/h (3 Bft) 95,74 %
12.08.2019 21:42 16,1 C 23,3 C 16,1 C 94 % 1015,1 hPa 0,2 l/m 11,4 km/h (2 Bft) NW 325 0 min 0,000 mm 0,0 UV-I 0 W/m 15,1 C 13,8 C 27,4 km/h (4 Bft) 100,00 %
12.08.2019 21:44 16,1 C 23,3 C 16,1 C 94 % 1015,0 hPa 0,2 l/m 10,3 km/h (2 Bft) W-NW 291 0 min 0,000 mm 0,0 UV-I 0 W/m 15,1 C 14,2 C 22,5 km/h (4 Bft) 95,16 %
12.08.2019 21:46 16,0 C 23,3 C 16,1 C 94 % 1014,9 hPa 0,4 l/m 10,9 km/h (2 Bft) NW 307 0 min 0,000 mm 0,0 UV-I 0 W/m 15,0 C 13,8 C 17,7 km/h (3 Bft) 97,37 %
12.08.2019 21:48 15,9 C 23,3 C 16,1 C 94 % 1014,8 hPa 0,2 l/m 8,6 km/h (2 Bft) W 275 0 min 0,000 mm 0,0 UV-I 0 W/m 14,9 C 14,8 C 14,5 km/h (3 Bft) 97,87 %
12.08.2019 21:50 15,9 C 23,3 C 16,1 C 94 % 1015,1 hPa 0,2 l/m 4,7 km/h (1 Bft) W 269 0 min 0,000 mm 0,0 UV-I 0 W/m 14,9 C 15,9 C 11,3 km/h (2 Bft) 98,00 %
12.08.2019 21:52 15,9 C 23,3 C 16,1 C 95 % 1015,3 hPa 0,0 l/m 13,1 km/h (3 Bft) SW 230 0 min 0,000 mm 0,0 UV-I 0 W/m 15,1 C 12,9 C 25,7 km/h (4 Bft) 98,00 %
12.08.2019 21:54 15,9 C 23,3 C 16,1 C 94 % 1015,4 hPa 0,0 l/m 11,6 km/h (2 Bft) N 5 0 min 0,000 mm 0,0 UV-I 0 W/m 14,9 C 13,5 C 16,1 km/h (3 Bft) 97,87 %
12.08.2019 21:56 15,9 C 23,3 C 16,1 C 94 % 1015,4 hPa 0,4 l/m 14,9 km/h (3 Bft) W-NW 300 0 min 0,000 mm 0,0 UV-I 0 W/m 14,9 C 12,3 C 20,9 km/h (4 Bft) 95,74 %
12.08.2019 21:58 15,9 C 23,3 C 16,1 C 95 % 1015,5 hPa 0,0 l/m 10,9 km/h (2 Bft) W-SW 248 0 min 0,000 mm 0,0 UV-I 0 W/m 15,1 C 13,7 C 17,7 km/h (3 Bft) 98,00 %
12.08.2019 22:00 15,8 C 23,3 C 16,1 C 95 % 1015,4 hPa 0,4 l/m 12,4 km/h (3 Bft) W 279 0 min 0,000 mm 0,0 UV-I 0 W/m 15,0 C 13,0 C 20,9 km/h (4 Bft) 95,74 %
12.08.2019 22:02 15,8 C 23,3 C 16,1 C 95 % 1015,6 hPa 0,6 l/m 14,5 km/h (3 Bft) W-SW 255 0 min 0,000 mm 0,0 UV-I 0 W/m 15,0 C 12,3 C 22,5 km/h (4 Bft) 97,14 %
12.08.2019 22:04 15,8 C 23,3 C 16,1 C 95 % 1015,7 hPa 0,2 l/m 12,6 km/h (3 Bft) W-SW 248 0 min 0,000 mm 0,0 UV-I 0 W/m 15,0 C 13,0 C 24,1 km/h (4 Bft) 96,00 %
12.08.2019 22:06 15,8 C 23,3 C 16,1 C 95 % 1015,8 hPa 0,4 l/m 12,4 km/h (3 Bft) W 267 0 min 0,000 mm 0,0 UV-I 0 W/m 15,0 C 13,0 C 24,1 km/h (4 Bft) 95,74 %
12.08.2019 22:08 15,8 C 23,3 C 16,1 C 95 % 1015,9 hPa 0,6 l/m 12,1 km/h (2 Bft) W-SW 240 0 min 0,000 mm 0,0 UV-I 0 W/m 15,0 C 13,2 C 22,5 km/h (4 Bft) 97,87 %
12.08.2019 22:10 15,7 C 23,3 C 15,6 C 95 % 1016,1 hPa 0,4 l/m 13,0 km/h (3 Bft) W-SW 250 0 min 0,000 mm 0,0 UV-I 0 W/m 14,9 C 12,7 C 22,5 km/h (4 Bft) 97,87 %
12.08.2019 22:12 15,7 C 23,3 C 15,6 C 95 % 1016,2 hPa 0,2 l/m 12,3 km/h (3 Bft) W-SW 247 0 min 0,000 mm 0,0 UV-I 0 W/m 14,9 C 13,0 C 17,7 km/h (3 Bft) 98,00 %
12.08.2019 22:14 15,7 C 23,3 C 15,6 C 95 % 1016,2 hPa 0,2 l/m 9,9 km/h (2 Bft) NW 313 0 min 0,000 mm 0,0 UV-I 0 W/m 14,9 C 13,9 C 17,7 km/h (3 Bft) 93,62 %
12.08.2019 22:16 15,7 C 23,3 C 15,6 C 95 % 1016,2 hPa 0,2 l/m 8,0 km/h (2 Bft) W 275 0 min 0,000 mm 0,0 UV-I 0 W/m 14,9 C 14,8 C 22,5 km/h (4 Bft) 93,62 %
12.08.2019 22:18 15,6 C 23,3 C 15,6 C 95 % 1016,3 hPa 0,4 l/m 12,7 km/h (3 Bft) W-SW 240 0 min 0,000 mm 0,0 UV-I 0 W/m 14,8 C 12,7 C 25,7 km/h (4 Bft) 97,87 %
12.08.2019 22:20 15,6 C 23,3 C 15,6 C 95 % 1016,3 hPa 0,4 l/m 9,1 km/h (2 Bft) W-NW 302 0 min 0,000 mm 0,0 UV-I 0 W/m 14,8 C 14,2 C 14,5 km/h (3 Bft) 97,87 %
12.08.2019 22:22 15,6 C 23,3 C 15,6 C 95 % 1016,2 hPa 0,4 l/m 8,7 km/h (2 Bft) W-SW 255 0 min 0,000 mm 0,0 UV-I 0 W/m 14,8 C 14,4 C 17,7 km/h (3 Bft) 97,92 %
12.08.2019 22:24 15,6 C 23,3 C 15,6 C 95 % 1016,2 hPa 0,2 l/m 10,2 km/h (2 Bft) W-NW 289 0 min 0,000 mm 0,0 UV-I 0 W/m 14,8 C 13,7 C 14,5 km/h (3 Bft) 98,00 %
12.08.2019 22:26 15,5 C 23,3 C 15,6 C 95 % 1016,2 hPa 0,2 l/m 7,1 km/h (2 Bft) SW 217 0 min 0,000 mm 0,0 UV-I 0 W/m 14,7 C 15,1 C 14,5 km/h (3 Bft) 97,87 %
12.08.2019 22:28 15,6 C 23,3 C 15,6 C 95 % 1016,1 hPa 0,2 l/m 5,5 km/h (1 Bft) W-NW 298 0 min 0,000 mm 0,0 UV-I 0 W/m 14,8 C 15,6 C 11,3 km/h (2 Bft) 94,74 %
12.08.2019 22:30 15,5 C 23,3 C 15,6 C 95 % 1016,0 hPa 0,2 l/m 6,5 km/h (2 Bft) NO 44 0 min 0,000 mm 0,0 UV-I 0 W/m 14,7 C 15,5 C 11,3 km/h (2 Bft) 98,00 %
12.08.2019 22:32 15,5 C 23,3 C 15,6 C 95 % 1015,9 hPa 0,0 l/m 3,0 km/h (1 Bft) W-SW 252 0 min 0,000 mm 0,0 UV-I 0 W/m 14,7 C 15,5 C 6,4 km/h (2 Bft) 98,00 %
12.08.2019 22:34 15,5 C 23,3 C 15,6 C 96 % 1015,9 hPa 0,2 l/m 3,5 km/h (1 Bft) W-SW 239 0 min 0,000 mm 0,0 UV-I 0 W/m 14,9 C 15,5 C 6,4 km/h (2 Bft) 97,87 %
12.08.2019 22:36 15,5 C 23,3 C 15,6 C 96 % 1015,9 hPa 0,2 l/m 4,3 km/h (1 Bft) W-NW 292 0 min 0,000 mm 0,0 UV-I 0 W/m 14,9 C 15,5 C 8,0 km/h (2 Bft) 97,87 %
12.08.2019 22:38 15,5 C 23,3 C 15,6 C 96 % 1015,8 hPa 0,0 l/m 1,4 km/h (1 Bft) W-SW 254 0 min 0,000 mm 0,0 UV-I 0 W/m 14,9 C 15,5 C 4,8 km/h (1 Bft) 100,00 %
12.08.2019 22:40 15,5 C 23,3 C 15,6 C 96 % 1015,7 hPa 0,0 l/m 3,2 km/h (1 Bft) N-NO 19 0 min 0,000 mm 0,0 UV-I 0 W/m 14,9 C 15,5 C 6,4 km/h (2 Bft) 100,00 %
12.08.2019 22:42 15,4 C 23,3 C 15,6 C 96 % 1015,6 hPa 0,0 l/m 5,4 km/h (1 Bft) N-NO 21 0 min 0,000 mm 0,0 UV-I 0 W/m 14,8 C 15,4 C 8,0 km/h (2 Bft) 97,37 %
12.08.2019 22:44 15,5 C 23,3 C 15,6 C 96 % 1015,4 hPa 0,2 l/m 7,0 km/h (2 Bft) NO 49 0 min 0,000 mm 0,0 UV-I 0 W/m 14,9 C 15,2 C 11,3 km/h (2 Bft) 98,11 %
12.08.2019 22:46 15,5 C 23,3 C 15,6 C 96 % 1015,3 hPa 0,0 l/m 7,3 km/h (2 Bft) O-NO 59 0 min 0,000 mm 0,0 UV-I 0 W/m 14,9 C 15,0 C 9,7 km/h (2 Bft) 100,00 %
12.08.2019 22:48 15,4 C 23,3 C 15,6 C 96 % 1015,2 hPa 0,0 l/m 7,9 km/h (2 Bft) O-NO 58 0 min 0,000 mm 0,0 UV-I 0 W/m 14,8 C 14,6 C 11,3 km/h (2 Bft) 100,00 %
12.08.2019 22:50 15,4 C 23,3 C 15,6 C 96 % 1015,1 hPa 0,0 l/m 6,3 km/h (2 Bft) O 79 0 min 0,000 mm 0,0 UV-I 0 W/m 14,8 C 15,4 C 9,7 km/h (2 Bft) 100,00 %
12.08.2019 22:52 15,5 C 23,3 C 15,6 C 96 % 1015,1 hPa 0,0 l/m 7,2 km/h (2 Bft) O-SO 109 0 min 0,000 mm 0,0 UV-I 0 W/m 14,9 C 15,1 C 11,3 km/h (2 Bft) 100,00 %
12.08.2019 22:54 15,4 C 23,3 C 15,6 C 96 % 1015,1 hPa 0,2 l/m 5,0 km/h (1 Bft) O 97 0 min 0,000 mm 0,0 UV-I 0 W/m 14,8 C 15,4 C 9,7 km/h (2 Bft) 100,00 %
12.08.2019 22:56 15,4 C 23,3 C 15,6 C 96 % 1015,0 hPa 0,0 l/m 6,1 km/h (2 Bft) O 95 0 min 0,000 mm 0,0 UV-I 0 W/m 14,8 C 15,4 C 9,7 km/h (2 Bft) 97,87 %
12.08.2019 22:58 15,5 C 23,3 C 15,6 C 96 % 1015,1 hPa 0,0 l/m 3,4 km/h (1 Bft) O-SO 106 0 min 0,000 mm 0,0 UV-I 0 W/m 14,9 C 15,5 C 9,7 km/h (2 Bft) 100,00 %
12.08.2019 23:00 15,6 C 23,3 C 16,1 C 96 % 1015,2 hPa 0,0 l/m 1,5 km/h (1 Bft) O-SO 106 0 min 0,000 mm 0,0 UV-I 0 W/m 15,0 C 15,6 C 3,2 km/h (1 Bft) 100,00 %
12.08.2019 23:02 15,6 C 23,3 C 16,1 C 96 % 1015,2 hPa 0,0 l/m 1,9 km/h (1 Bft) O-SO 112 0 min 0,000 mm 0,0 UV-I 0 W/m 15,0 C 15,6 C 3,2 km/h (1 Bft) 100,00 %
12.08.2019 23:04 15,6 C 23,3 C 16,1 C 96 % 1015,1 hPa 0,0 l/m 2,9 km/h (1 Bft) O-SO 113 0 min 0,000 mm 0,0 UV-I 0 W/m 15,0 C 15,6 C 4,8 km/h (1 Bft) 100,00 %
12.08.2019 23:06 15,6 C 23,3 C 16,1 C 96 % 1015,0 hPa 0,0 l/m 3,5 km/h (1 Bft) O-SO 113 0 min 0,000 mm 0,0 UV-I 0 W/m 15,0 C 15,6 C 4,8 km/h (1 Bft) 93,62 %
12.08.2019 23:09 15,6 C 23,3 C 16,1 C 96 % 1015,2 hPa 0,0 l/m 4,5 km/h (1 Bft) S-SO 167 0 min 0,000 mm 0,0 UV-I 0 W/m 15,0 C 15,6 C 6,4 km/h (2 Bft) 100,00 %
12.08.2019 23:10 15,6 C 23,3 C 16,1 C 96 % 1015,2 hPa 0,0 l/m 6,1 km/h (2 Bft) S 181 0 min 0,000 mm 0,0 UV-I 0 W/m 15,0 C 15,6 C 8,0 km/h (2 Bft) 100,00 %
12.08.2019 23:12 15,6 C 23,3 C 16,1 C 96 % 1015,4 hPa 0,0 l/m 5,1 km/h (1 Bft) SW 214 0 min 0,000 mm 0,0 UV-I 0 W/m 15,0 C 15,6 C 8,0 km/h (2 Bft) 100,00 %
12.08.2019 23:14 15,6 C 23,3 C 16,1 C 96 % 1015,5 hPa 0,0 l/m 4,0 km/h (1 Bft) SW 223 0 min 0,000 mm 0,0 UV-I 0 W/m 15,0 C 15,6 C 6,4 km/h (2 Bft) 100,00 %
12.08.2019 23:16 15,6 C 23,3 C 16,1 C 96 % 1015,5 hPa 0,0 l/m 3,5 km/h (1 Bft) W-SW 238 0 min 0,000 mm 0,0 UV-I 0 W/m 15,0 C 15,6 C 6,4 km/h (2 Bft) 100,00 %
12.08.2019 23:19 15,6 C 23,3 C 16,1 C 96 % 1015,5 hPa 0,0 l/m 4,6 km/h (1 Bft) S-SW 210 0 min 0,000 mm 0,0 UV-I 0 W/m 15,0 C 15,6 C 8,0 km/h (2 Bft) 100,00 %
12.08.2019 23:20 15,6 C 23,3 C 16,1 C 96 % 1015,5 hPa 0,0 l/m 4,2 km/h (1 Bft) S-SW 210 0 min 0,000 mm 0,0 UV-I 0 W/m 15,0 C 15,6 C 6,4 km/h (2 Bft) 95,65 %
12.08.2019 23:22 15,6 C 23,3 C 16,1 C 96 % 1015,7 hPa 0,0 l/m 4,8 km/h (1 Bft) S-SW 207 0 min 0,000 mm 0,0 UV-I 0 W/m 15,0 C 15,6 C 6,4 km/h (2 Bft) 100,00 %
12.08.2019 23:24 15,6 C 23,3 C 16,1 C 96 % 1015,8 hPa 0,0 l/m 4,5 km/h (1 Bft) S-SW 208 0 min 0,000 mm 0,0 UV-I 0 W/m 15,0 C 15,6 C 6,4 km/h (2 Bft) 100,00 %
12.08.2019 23:26 15,6 C 23,3 C 16,1 C 96 % 1015,8 hPa 0,0 l/m 2,8 km/h (1 Bft) S-SW 203 0 min 0,000 mm 0,0 UV-I 0 W/m 15,0 C 15,6 C 4,8 km/h (1 Bft) 100,00 %
12.08.2019 23:28 15,6 C 23,3 C 16,1 C 96 % 1015,7 hPa 0,0 l/m 3,2 km/h (1 Bft) S-SW 209 0 min 0,000 mm 0,0 UV-I 0 W/m 15,0 C 15,6 C 4,8 km/h (1 Bft) 97,87 %
12.08.2019 23:30 15,6 C 23,3 C 16,1 C 96 % 1015,7 hPa 0,0 l/m 3,6 km/h (1 Bft) S-SW 209 0 min 0,000 mm 0,0 UV-I 0 W/m 15,0 C 15,6 C 4,8 km/h (1 Bft) 97,87 %
12.08.2019 23:32 15,7 C 23,3 C 16,1 C 96 % 1015,7 hPa 0,0 l/m 4,0 km/h (1 Bft) W-SW 240 0 min 0,000 mm 0,0 UV-I 0 W/m 15,1 C 15,7 C 6,4 km/h (2 Bft) 100,00 %
12.08.2019 23:34 15,6 C 23,3 C 16,1 C 96 % 1015,9 hPa 0,0 l/m 3,8 km/h (1 Bft) W-SW 237 0 min 0,000 mm 0,0 UV-I 0 W/m 15,0 C 15,6 C 6,4 km/h (2 Bft) 97,87 %
12.08.2019 23:36 15,6 C 23,3 C 16,1 C 96 % 1016,0 hPa 0,0 l/m 3,8 km/h (1 Bft) SW 220 0 min 0,000 mm 0,0 UV-I 0 W/m 15,0 C 15,6 C 6,4 km/h (2 Bft) 100,00 %
12.08.2019 23:38 15,7 C 23,3 C 16,1 C 96 % 1015,7 hPa 0,0 l/m 4,1 km/h (1 Bft) SW 226 0 min 0,000 mm 0,0 UV-I 0 W/m 15,1 C 15,7 C 6,4 km/h (2 Bft) 97,92 %
12.08.2019 23:40 15,7 C 23,3 C 16,1 C 96 % 1015,5 hPa 0,2 l/m 2,8 km/h (1 Bft) SW 226 0 min 0,000 mm 0,0 UV-I 0 W/m 15,1 C 15,7 C 4,8 km/h (1 Bft) 97,87 %
12.08.2019 23:42 15,7 C 23,3 C 16,1 C 96 % 1015,6 hPa 0,0 l/m 2,5 km/h (1 Bft) SW 226 0 min 0,000 mm 0,0 UV-I 0 W/m 15,1 C 15,7 C 3,2 km/h (1 Bft) 95,74 %
12.08.2019 23:44 15,7 C 23,3 C 16,1 C 96 % 1015,6 hPa 0,0 l/m 4,3 km/h (1 Bft) W-SW 249 0 min 0,000 mm 0,0 UV-I 0 W/m 15,1 C 15,7 C 6,4 km/h (2 Bft) 95,74 %
12.08.2019 23:46 15,7 C 23,3 C 16,1 C 96 % 1015,8 hPa 0,0 l/m 3,6 km/h (1 Bft) W-SW 244 0 min 0,000 mm 0,0 UV-I 0 W/m 15,1 C 15,7 C 4,8 km/h (1 Bft) 92,11 %
12.08.2019 23:49 15,6 C 23,3 C 16,1 C 96 % 1016,0 hPa 0,0 l/m 4,4 km/h (1 Bft) SW 219 0 min 0,000 mm 0,0 UV-I 0 W/m 15,0 C 15,6 C 6,4 km/h (2 Bft) 95,77 %
12.08.2019 23:50 15,7 C 23,3 C 16,1 C 96 % 1016,0 hPa 0,2 l/m 6,2 km/h (2 Bft) SW 225 0 min 0,000 mm 0,0 UV-I 0 W/m 15,1 C 15,7 C 8,0 km/h (2 Bft) 86,96 %
12.08.2019 23:52 15,7 C 23,3 C 16,1 C 96 % 1016,1 hPa 0,0 l/m 6,0 km/h (2 Bft) SW 220 0 min 0,000 mm 0,0 UV-I 0 W/m 15,1 C 15,7 C 9,7 km/h (2 Bft) 93,62 %
12.08.2019 23:54 15,7 C 23,3 C 16,1 C 96 % 1016,1 hPa 0,0 l/m 4,1 km/h (1 Bft) W-SW 241 0 min 0,000 mm 0,0 UV-I 0 W/m 15,1 C 15,7 C 6,4 km/h (2 Bft) 96,00 %
12.08.2019 23:56 15,7 C 23,3 C 16,1 C 96 % 1016,0 hPa 0,0 l/m 4,8 km/h (1 Bft) W-SW 254 0 min 0,000 mm 0,0 UV-I 0 W/m 15,1 C 15,7 C 8,0 km/h (2 Bft) 93,62 %
12.08.2019 23:59 15,7 C 23,3 C 16,1 C 96 % 1016,2 hPa 0,0 l/m 5,9 km/h (2 Bft) W-SW 242 0 min 0,000 mm 0,0 UV-I 0 W/m 15,1 C 15,7 C 9,7 km/h (2 Bft) 91,89 %
_ Min-Zeit 22:42 21:04 22:10 12:38 00:00 - 20:16 - - - - - - 17:32 21:56 05:28 23:50
Minimum _ 15,4 C 23,3 C 15,6 C 71 % 1009,2 hPa - 0,2 km/h (0 Bft) - - - - - - 14,3 C 12,3 C 1,6 km/h (1 Bft) 86,96 %
_ Max-Zeit 12:30 00:00 12:30 22:34 22:18 22:02 02:18 - - 06:06 11:00 12:16 09:20 08:54 12:30 16:32 01:28
Maximum _ 22,4 C 25,0 C 28,3 C 96 % 1016,3 hPa 0,6 l/m 21,5 km/h
W-NW (4 Bft)
- - 2 min 0,203 mm 3,1 UV-I 663 W/m 17,8 C 22,4 C 32,2 km/h
W (5 Bft)
100,00 %
Durchschnitt _ 19,5 C 24,0 C 20,5 C 82 % 1013,6 hPa #9,6 l/m 8,2 km/h (2 Bft) W-SW - #1:52 h #1,905 mm 1,6 UV-I 161 W/m 16,3 C 18,6 C 14,0 km/h (3 Bft) 97,17 %